﻿<?xml version="1.0" encoding="utf-8"?><gpx creator="Garmin Desktop App" version="1.1" xsi:schemaLocation="http://www.topografix.com/GPX/1/1 http://www.topografix.com/GPX/1/1/gpx.xsd http://www.garmin.com/xmlschemas/WaypointExtension/v1 http://www8.garmin.com/xmlschemas/WaypointExtensionv1.xsd http://www.garmin.com/xmlschemas/TrackPointExtension/v1 http://www.garmin.com/xmlschemas/TrackPointExtensionv1.xsd http://www.garmin.com/xmlschemas/GpxExtensions/v3 http://www8.garmin.com/xmlschemas/GpxExtensionsv3.xsd http://www.garmin.com/xmlschemas/ActivityExtension/v1 http://www8.garmin.com/xmlschemas/ActivityExtensionv1.xsd http://www.garmin.com/xmlschemas/AdventuresExtensions/v1 http://www8.garmin.com/xmlschemas/AdventuresExtensionv1.xsd http://www.garmin.com/xmlschemas/PressureExtension/v1 http://www.garmin.com/xmlschemas/PressureExtensionv1.xsd http://www.garmin.com/xmlschemas/TripExtensions/v1 http://www.garmin.com/xmlschemas/TripExtensionsv1.xsd http://www.garmin.com/xmlschemas/TripMetaDataExtensions/v1 http://www.garmin.com/xmlschemas/TripMetaDataExtensionsv1.xsd http://www.garmin.com/xmlschemas/ViaPointTransportationModeExtensions/v1 http://www.garmin.com/xmlschemas/ViaPointTransportationModeExtensionsv1.xsd http://www.garmin.com/xmlschemas/CreationTimeExtension/v1 http://www.garmin.com/xmlschemas/CreationTimeExtensionsv1.xsd http://www.garmin.com/xmlschemas/AccelerationExtension/v1 http://www.garmin.com/xmlschemas/AccelerationExtensionv1.xsd http://www.garmin.com/xmlschemas/PowerExtension/v1 http://www.garmin.com/xmlschemas/PowerExtensionv1.xsd http://www.garmin.com/xmlschemas/VideoExtension/v1 http://www.garmin.com/xmlschemas/VideoExtensionv1.xsd" xmlns="http://www.topografix.com/GPX/1/1" xmlns:xsi="http://www.w3.org/2001/XMLSchema-instance" xmlns:wptx1="http://www.garmin.com/xmlschemas/WaypointExtension/v1" xmlns:gpxtrx="http://www.garmin.com/xmlschemas/GpxExtensions/v3" xmlns:gpxtpx="http://www.garmin.com/xmlschemas/TrackPointExtension/v1" xmlns:gpxx="http://www.garmin.com/xmlschemas/GpxExtensions/v3" xmlns:trp="http://www.garmin.com/xmlschemas/TripExtensions/v1" xmlns:adv="http://www.garmin.com/xmlschemas/AdventuresExtensions/v1" xmlns:prs="http://www.garmin.com/xmlschemas/PressureExtension/v1" xmlns:tmd="http://www.garmin.com/xmlschemas/TripMetaDataExtensions/v1" xmlns:vptm="http://www.garmin.com/xmlschemas/ViaPointTransportationModeExtensions/v1" xmlns:ctx="http://www.garmin.com/xmlschemas/CreationTimeExtension/v1" xmlns:gpxacc="http://www.garmin.com/xmlschemas/AccelerationExtension/v1" xmlns:gpxpx="http://www.garmin.com/xmlschemas/PowerExtension/v1" xmlns:vidx1="http://www.garmin.com/xmlschemas/VideoExtension/v1">

  <metadata>
    <link href="http://www.garmin.com">
      <text>Garmin International</text>
    </link>
    <time>2022-02-07T07:29:11Z</time>
    <bounds maxlat="46.329059042036533" maxlon="8.296098047867417" minlat="46.313439700752497" minlon="8.26019324362278" />
  </metadata>

  <trk>
    <name>corte-corbernas2022-02-06</name>
    <extensions>
      <gpxx:TrackExtension>
        <gpxx:DisplayColor>Yellow</gpxx:DisplayColor>
      </gpxx:TrackExtension>
    </extensions>
    <trkseg>
      <trkpt lat="46.313605830073357" lon="8.260286031290889">
        <ele>1627.73</ele>
        <time>2022-02-06T07:43:35Z</time>
      </trkpt>
      <trkpt lat="46.31360599771142" lon="8.260281169787049">
        <ele>1624.23</ele>
        <time>2022-02-06T07:43:40Z</time>
      </trkpt>
      <trkpt lat="46.313604153692722" lon="8.26028460636735">
        <ele>1624.77</ele>
        <time>2022-02-06T07:43:41Z</time>
      </trkpt>
      <trkpt lat="46.313611026853323" lon="8.260287707671523">
        <ele>1623.3399999999999</ele>
        <time>2022-02-06T07:43:55Z</time>
      </trkpt>
      <trkpt lat="46.313618402928114" lon="8.260288713499904">
        <ele>1623.3800000000001</ele>
        <time>2022-02-06T07:44:08Z</time>
      </trkpt>
      <trkpt lat="46.313617648556828" lon="8.260291730985045">
        <ele>1623.5699999999999</ele>
        <time>2022-02-06T07:44:15Z</time>
      </trkpt>
      <trkpt lat="46.313621504232287" lon="8.260289886966348">
        <ele>1624.45</ele>
        <time>2022-02-06T07:44:31Z</time>
      </trkpt>
      <trkpt lat="46.31360842846334" lon="8.260288294404745">
        <ele>1624.0599999999999</ele>
        <time>2022-02-06T07:44:50Z</time>
      </trkpt>
      <trkpt lat="46.313633657991886" lon="8.260281840339303">
        <ele>1624.0699999999999</ele>
        <time>2022-02-06T07:45:01Z</time>
      </trkpt>
      <trkpt lat="46.313595520332456" lon="8.260270189493895">
        <ele>1624.22</ele>
        <time>2022-02-06T07:45:12Z</time>
      </trkpt>
      <trkpt lat="46.313608763739467" lon="8.260267674922943">
        <ele>1624.1800000000001</ele>
        <time>2022-02-06T07:45:26Z</time>
      </trkpt>
      <trkpt lat="46.313609601929784" lon="8.260238422080874">
        <ele>1624.1900000000001</ele>
        <time>2022-02-06T07:45:43Z</time>
      </trkpt>
      <trkpt lat="46.313605159521103" lon="8.260237080976367">
        <ele>1624.0799999999999</ele>
        <time>2022-02-06T07:45:57Z</time>
      </trkpt>
      <trkpt lat="46.313606919720769" lon="8.26026214286685">
        <ele>1624</ele>
        <time>2022-02-06T07:46:12Z</time>
      </trkpt>
      <trkpt lat="46.313606081530452" lon="8.260264825075865">
        <ele>1623.96</ele>
        <time>2022-02-06T07:46:29Z</time>
      </trkpt>
      <trkpt lat="46.313609685748816" lon="8.260267004370689">
        <ele>1623.9100000000001</ele>
        <time>2022-02-06T07:46:44Z</time>
      </trkpt>
      <trkpt lat="46.31360943429172" lon="8.260275134816766">
        <ele>1623.6500000000001</ele>
        <time>2022-02-06T07:46:56Z</time>
      </trkpt>
      <trkpt lat="46.313613289967179" lon="8.260272452607751">
        <ele>1623.46</ele>
        <time>2022-02-06T07:47:11Z</time>
      </trkpt>
      <trkpt lat="46.3136035669595" lon="8.260268429294229">
        <ele>1623.53</ele>
        <time>2022-02-06T07:47:34Z</time>
      </trkpt>
      <trkpt lat="46.313602644950151" lon="8.260260885581374">
        <ele>1623.6300000000001</ele>
        <time>2022-02-06T07:47:51Z</time>
      </trkpt>
      <trkpt lat="46.313606416806579" lon="8.260259879752994">
        <ele>1623.6400000000001</ele>
        <time>2022-02-06T07:48:09Z</time>
      </trkpt>
      <trkpt lat="46.313601639121771" lon="8.260243618860841">
        <ele>1623.6900000000001</ele>
        <time>2022-02-06T07:48:30Z</time>
      </trkpt>
      <trkpt lat="46.313605578616261" lon="8.260241942480207">
        <ele>1623.73</ele>
        <time>2022-02-06T07:48:45Z</time>
      </trkpt>
      <trkpt lat="46.313620330765843" lon="8.260228615254164">
        <ele>1623.5899999999999</ele>
        <time>2022-02-06T07:48:59Z</time>
      </trkpt>
      <trkpt lat="46.313631646335125" lon="8.260225933045149">
        <ele>1623.8099999999999</ele>
        <time>2022-02-06T07:49:16Z</time>
      </trkpt>
      <trkpt lat="46.313621001318097" lon="8.260219898074865">
        <ele>1623.73</ele>
        <time>2022-02-06T07:49:32Z</time>
      </trkpt>
      <trkpt lat="46.313615133985877" lon="8.260232303291559">
        <ele>1623.47</ele>
        <time>2022-02-06T07:49:47Z</time>
      </trkpt>
      <trkpt lat="46.313620246946812" lon="8.260235320776701">
        <ele>1623.27</ele>
        <time>2022-02-06T07:50:02Z</time>
      </trkpt>
      <trkpt lat="46.31362309679389" lon="8.260238505899906">
        <ele>1623.5799999999999</ele>
        <time>2022-02-06T07:50:27Z</time>
      </trkpt>
      <trkpt lat="46.313627287745476" lon="8.260224340483546">
        <ele>1623.5</ele>
        <time>2022-02-06T07:50:44Z</time>
      </trkpt>
      <trkpt lat="46.313634160906076" lon="8.260233728215098">
        <ele>1623.1900000000001</ele>
        <time>2022-02-06T07:51:02Z</time>
      </trkpt>
      <trkpt lat="46.313635837286711" lon="8.260244205594063">
        <ele>1623.24</ele>
        <time>2022-02-06T07:51:15Z</time>
      </trkpt>
      <trkpt lat="46.313640028238297" lon="8.260237583890557">
        <ele>1623.21</ele>
        <time>2022-02-06T07:51:36Z</time>
      </trkpt>
      <trkpt lat="46.31362552754581" lon="8.260221239179373">
        <ele>1623.01</ele>
        <time>2022-02-06T07:51:47Z</time>
      </trkpt>
      <trkpt lat="46.313619408756495" lon="8.260234398767352">
        <ele>1623.25</ele>
        <time>2022-02-06T07:51:57Z</time>
      </trkpt>
      <trkpt lat="46.313635418191552" lon="8.2602474745363">
        <ele>1623.1500000000001</ele>
        <time>2022-02-06T07:52:09Z</time>
      </trkpt>
      <trkpt lat="46.313623934984207" lon="8.260253509506583">
        <ele>1623.05</ele>
        <time>2022-02-06T07:52:21Z</time>
      </trkpt>
      <trkpt lat="46.313619911670685" lon="8.260252252221108">
        <ele>1623.3699999999999</ele>
        <time>2022-02-06T07:52:35Z</time>
      </trkpt>
      <trkpt lat="46.313613876700401" lon="8.260253006592393">
        <ele>1623.23</ele>
        <time>2022-02-06T07:52:53Z</time>
      </trkpt>
      <trkpt lat="46.313610440120101" lon="8.260253593325615">
        <ele>1623.46</ele>
        <time>2022-02-06T07:53:17Z</time>
      </trkpt>
      <trkpt lat="46.313609182834625" lon="8.260261388495565">
        <ele>1623.26</ele>
        <time>2022-02-06T07:53:31Z</time>
      </trkpt>
      <trkpt lat="46.313603650778532" lon="8.260247893631458">
        <ele>1623.3800000000001</ele>
        <time>2022-02-06T07:53:48Z</time>
      </trkpt>
      <trkpt lat="46.31360549479723" lon="8.260258454829454">
        <ele>1623.78</ele>
        <time>2022-02-06T07:54:00Z</time>
      </trkpt>
      <trkpt lat="46.313595771789551" lon="8.260264238342643">
        <ele>1623.55</ele>
        <time>2022-02-06T07:54:10Z</time>
      </trkpt>
      <trkpt lat="46.313577415421605" lon="8.2602543476969">
        <ele>1623.49</ele>
        <time>2022-02-06T07:54:12Z</time>
      </trkpt>
      <trkpt lat="46.313452608883381" lon="8.26019324362278">
        <ele>1621.79</ele>
        <time>2022-02-06T07:54:25Z</time>
      </trkpt>
      <trkpt lat="46.313441628590226" lon="8.260215120390058">
        <ele>1621.53</ele>
        <time>2022-02-06T07:54:27Z</time>
      </trkpt>
      <trkpt lat="46.313444562256336" lon="8.260461632162333">
        <ele>1618.7</ele>
        <time>2022-02-06T07:54:42Z</time>
      </trkpt>
      <trkpt lat="46.313439700752497" lon="8.260488621890545">
        <ele>1618.4100000000001</ele>
        <time>2022-02-06T07:54:44Z</time>
      </trkpt>
      <trkpt lat="46.313474737107754" lon="8.260570764541626">
        <ele>1617.77</ele>
        <time>2022-02-06T07:54:50Z</time>
      </trkpt>
      <trkpt lat="46.313521256670356" lon="8.260599011555314">
        <ele>1618.26</ele>
        <time>2022-02-06T07:54:55Z</time>
      </trkpt>
      <trkpt lat="46.313562244176865" lon="8.260584846138954">
        <ele>1618.3599999999999</ele>
        <time>2022-02-06T07:54:59Z</time>
      </trkpt>
      <trkpt lat="46.313771121203899" lon="8.260493818670511">
        <ele>1620.46</ele>
        <time>2022-02-06T07:55:18Z</time>
      </trkpt>
      <trkpt lat="46.314009502530098" lon="8.260502284392715">
        <ele>1621.04</ele>
        <time>2022-02-06T07:55:37Z</time>
      </trkpt>
      <trkpt lat="46.314209662377834" lon="8.260528016835451">
        <ele>1621.77</ele>
        <time>2022-02-06T07:55:54Z</time>
      </trkpt>
      <trkpt lat="46.314328266307712" lon="8.260633042082191">
        <ele>1622.6199999999999</ele>
        <time>2022-02-06T07:56:06Z</time>
      </trkpt>
      <trkpt lat="46.314438907429576" lon="8.260822221636772">
        <ele>1625.3599999999999</ele>
        <time>2022-02-06T07:56:22Z</time>
      </trkpt>
      <trkpt lat="46.314459694549441" lon="8.260857677087188">
        <ele>1625.9400000000001</ele>
        <time>2022-02-06T07:56:25Z</time>
      </trkpt>
      <trkpt lat="46.314533287659287" lon="8.26088416390121">
        <ele>1627.1500000000001</ele>
        <time>2022-02-06T07:56:34Z</time>
      </trkpt>
      <trkpt lat="46.314680809155107" lon="8.260760195553303">
        <ele>1629.03</ele>
        <time>2022-02-06T07:56:51Z</time>
      </trkpt>
      <trkpt lat="46.314725652337074" lon="8.260748041793704">
        <ele>1628.9000000000001</ele>
        <time>2022-02-06T07:56:55Z</time>
      </trkpt>
      <trkpt lat="46.314929164946079" lon="8.260758519172669">
        <ele>1630.1500000000001</ele>
        <time>2022-02-06T07:57:14Z</time>
      </trkpt>
      <trkpt lat="46.315076434984803" lon="8.260776707902551">
        <ele>1631.27</ele>
        <time>2022-02-06T07:57:29Z</time>
      </trkpt>
      <trkpt lat="46.315181963145733" lon="8.260692469775677">
        <ele>1631.9400000000001</ele>
        <time>2022-02-06T07:57:43Z</time>
      </trkpt>
      <trkpt lat="46.315206186845899" lon="8.260665312409401">
        <ele>1632.45</ele>
        <time>2022-02-06T07:57:53Z</time>
      </trkpt>
      <trkpt lat="46.315163606777787" lon="8.260646285489202">
        <ele>1632.53</ele>
        <time>2022-02-06T07:58:04Z</time>
      </trkpt>
      <trkpt lat="46.315151453018188" lon="8.260639579966664">
        <ele>1632.3199999999999</ele>
        <time>2022-02-06T07:58:16Z</time>
      </trkpt>
      <trkpt lat="46.315142903476954" lon="8.260639579966664">
        <ele>1632.02</ele>
        <time>2022-02-06T07:58:39Z</time>
      </trkpt>
      <trkpt lat="46.315147681161761" lon="8.260645028203726">
        <ele>1630.78</ele>
        <time>2022-02-06T07:59:03Z</time>
      </trkpt>
      <trkpt lat="46.315157236531377" lon="8.260636562481523">
        <ele>1630.98</ele>
        <time>2022-02-06T08:00:02Z</time>
      </trkpt>
      <trkpt lat="46.315156146883965" lon="8.260638322681189">
        <ele>1631.8800000000001</ele>
        <time>2022-02-06T08:01:10Z</time>
      </trkpt>
      <trkpt lat="46.315142484381795" lon="8.260654164478183">
        <ele>1632.3499999999999</ele>
        <time>2022-02-06T08:02:18Z</time>
      </trkpt>
      <trkpt lat="46.315139047801495" lon="8.260650811716914">
        <ele>1633.0999999999999</ele>
        <time>2022-02-06T08:03:27Z</time>
      </trkpt>
      <trkpt lat="46.315144244581461" lon="8.260643100365996">
        <ele>1633.6300000000001</ele>
        <time>2022-02-06T08:04:33Z</time>
      </trkpt>
      <trkpt lat="46.315144412219524" lon="8.260645782575011">
        <ele>1634.53</ele>
        <time>2022-02-06T08:05:37Z</time>
      </trkpt>
      <trkpt lat="46.315138461068273" lon="8.260632874444127">
        <ele>1635.21</ele>
        <time>2022-02-06T08:06:47Z</time>
      </trkpt>
      <trkpt lat="46.315138628706336" lon="8.260628934949637">
        <ele>1635.04</ele>
        <time>2022-02-06T08:07:13Z</time>
      </trkpt>
      <trkpt lat="46.315135275945067" lon="8.26064033433795">
        <ele>1635.47</ele>
        <time>2022-02-06T08:07:44Z</time>
      </trkpt>
      <trkpt lat="46.315142484381795" lon="8.26064083725214">
        <ele>1635.4100000000001</ele>
        <time>2022-02-06T08:08:18Z</time>
      </trkpt>
      <trkpt lat="46.315150195732713" lon="8.260643351823092">
        <ele>1635.24</ele>
        <time>2022-02-06T08:09:05Z</time>
      </trkpt>
      <trkpt lat="46.315134270116687" lon="8.260657098144293">
        <ele>1635.2</ele>
        <time>2022-02-06T08:09:39Z</time>
      </trkpt>
      <trkpt lat="46.315128151327372" lon="8.260682662948966">
        <ele>1639.6800000000001</ele>
        <time>2022-02-06T08:09:53Z</time>
      </trkpt>
      <trkpt lat="46.315129408612847" lon="8.260683165863156">
        <ele>1639.24</ele>
        <time>2022-02-06T08:09:54Z</time>
      </trkpt>
      <trkpt lat="46.315127061679959" lon="8.260679394006729">
        <ele>1635.6400000000001</ele>
        <time>2022-02-06T08:09:57Z</time>
      </trkpt>
      <trkpt lat="46.31512513384223" lon="8.260678052902222">
        <ele>1635.6400000000001</ele>
        <time>2022-02-06T08:09:58Z</time>
      </trkpt>
      <trkpt lat="46.315131336450577" lon="8.260654667392373">
        <ele>1635.71</ele>
        <time>2022-02-06T08:10:21Z</time>
      </trkpt>
      <trkpt lat="46.315135024487972" lon="8.2606515660882">
        <ele>1636.1400000000001</ele>
        <time>2022-02-06T08:11:10Z</time>
      </trkpt>
      <trkpt lat="46.315130079165101" lon="8.260646453127265">
        <ele>1636.53</ele>
        <time>2022-02-06T08:11:40Z</time>
      </trkpt>
      <trkpt lat="46.315109794959426" lon="8.260662965476513">
        <ele>1636.51</ele>
        <time>2022-02-06T08:11:49Z</time>
      </trkpt>
      <trkpt lat="46.315124463289976" lon="8.260659947991371">
        <ele>1636.4000000000001</ele>
        <time>2022-02-06T08:12:22Z</time>
      </trkpt>
      <trkpt lat="46.315128235146403" lon="8.260667910799384">
        <ele>1636.54</ele>
        <time>2022-02-06T08:13:06Z</time>
      </trkpt>
      <trkpt lat="46.315133096650243" lon="8.260651733726263">
        <ele>1636.6099999999999</ele>
        <time>2022-02-06T08:14:00Z</time>
      </trkpt>
      <trkpt lat="46.315136281773448" lon="8.26066087000072">
        <ele>1636.9000000000001</ele>
        <time>2022-02-06T08:14:50Z</time>
      </trkpt>
      <trkpt lat="46.315138461068273" lon="8.260652404278517">
        <ele>1637.52</ele>
        <time>2022-02-06T08:15:39Z</time>
      </trkpt>
      <trkpt lat="46.315142065286636" lon="8.260655421763659">
        <ele>1637.8599999999999</ele>
        <time>2022-02-06T08:16:23Z</time>
      </trkpt>
      <trkpt lat="46.315147932618856" lon="8.260643687099218">
        <ele>1637.5</ele>
        <time>2022-02-06T08:17:10Z</time>
      </trkpt>
      <trkpt lat="46.315144244581461" lon="8.260657684877515">
        <ele>1637.45</ele>
        <time>2022-02-06T08:17:33Z</time>
      </trkpt>
      <trkpt lat="46.315142652019858" lon="8.260665228590369">
        <ele>1637.79</ele>
        <time>2022-02-06T08:18:10Z</time>
      </trkpt>
      <trkpt lat="46.315139969810843" lon="8.26066036708653">
        <ele>1637.8699999999999</ele>
        <time>2022-02-06T08:18:20Z</time>
      </trkpt>
      <trkpt lat="46.315136617049575" lon="8.260644692927599">
        <ele>1638.0899999999999</ele>
        <time>2022-02-06T08:18:40Z</time>
      </trkpt>
      <trkpt lat="46.315139131620526" lon="8.260619966313243">
        <ele>1637.9200000000001</ele>
        <time>2022-02-06T08:19:28Z</time>
      </trkpt>
      <trkpt lat="46.315142819657922" lon="8.2606256660074">
        <ele>1638.04</ele>
        <time>2022-02-06T08:19:35Z</time>
      </trkpt>
      <trkpt lat="46.315144244581461" lon="8.260634047910571">
        <ele>1637.8099999999999</ele>
        <time>2022-02-06T08:20:20Z</time>
      </trkpt>
      <trkpt lat="46.315144244581461" lon="8.260621475055814">
        <ele>1638.0599999999999</ele>
        <time>2022-02-06T08:21:12Z</time>
      </trkpt>
      <trkpt lat="46.315146088600159" lon="8.260630276054144">
        <ele>1638.21</ele>
        <time>2022-02-06T08:22:01Z</time>
      </trkpt>
      <trkpt lat="46.315150028094649" lon="8.260627426207066">
        <ele>1638.1700000000001</ele>
        <time>2022-02-06T08:22:15Z</time>
      </trkpt>
      <trkpt lat="46.315146759152412" lon="8.260631030425429">
        <ele>1638.6600000000001</ele>
        <time>2022-02-06T08:22:54Z</time>
      </trkpt>
      <trkpt lat="46.315158661454916" lon="8.26062667183578">
        <ele>1638.6800000000001</ele>
        <time>2022-02-06T08:23:25Z</time>
      </trkpt>
      <trkpt lat="46.315156565979123" lon="8.260620553046465">
        <ele>1638.8699999999999</ele>
        <time>2022-02-06T08:23:50Z</time>
      </trkpt>
      <trkpt lat="46.315154302865267" lon="8.260622564703226">
        <ele>1634.54</ele>
        <time>2022-02-06T08:24:22Z</time>
      </trkpt>
      <trkpt lat="46.315155560150743" lon="8.26062130741775">
        <ele>1635.27</ele>
        <time>2022-02-06T08:24:23Z</time>
      </trkpt>
      <trkpt lat="46.315156733617187" lon="8.260617787018418">
        <ele>1638.29</ele>
        <time>2022-02-06T08:24:26Z</time>
      </trkpt>
      <trkpt lat="46.315156565979123" lon="8.260616026818752">
        <ele>1638.51</ele>
        <time>2022-02-06T08:24:27Z</time>
      </trkpt>
      <trkpt lat="46.315147932618856" lon="8.260619379580021">
        <ele>1644.3</ele>
        <time>2022-02-06T08:24:33Z</time>
      </trkpt>
      <trkpt lat="46.315145753324032" lon="8.260621558874846">
        <ele>1640.05</ele>
        <time>2022-02-06T08:24:34Z</time>
      </trkpt>
      <trkpt lat="46.315145250409842" lon="8.260621475055814">
        <ele>1630.24</ele>
        <time>2022-02-06T08:24:35Z</time>
      </trkpt>
      <trkpt lat="46.315147513523698" lon="8.260626336559653">
        <ele>1634.1800000000001</ele>
        <time>2022-02-06T08:24:36Z</time>
      </trkpt>
      <trkpt lat="46.315149860456586" lon="8.260629521682859">
        <ele>1644.73</ele>
        <time>2022-02-06T08:24:37Z</time>
      </trkpt>
      <trkpt lat="46.315147429704666" lon="8.26062960550189">
        <ele>1641.3599999999999</ele>
        <time>2022-02-06T08:24:40Z</time>
      </trkpt>
      <trkpt lat="46.315145585685968" lon="8.260629354044795">
        <ele>1641.0899999999999</ele>
        <time>2022-02-06T08:24:41Z</time>
      </trkpt>
      <trkpt lat="46.315170982852578" lon="8.260635640472174">
        <ele>1640.3299999999999</ele>
        <time>2022-02-06T08:24:54Z</time>
      </trkpt>
      <trkpt lat="46.315182046964765" lon="8.260593144223094">
        <ele>1640.04</ele>
        <time>2022-02-06T08:25:05Z</time>
      </trkpt>
      <trkpt lat="46.315177939832211" lon="8.260589288547635">
        <ele>1639.8800000000001</ele>
        <time>2022-02-06T08:25:19Z</time>
      </trkpt>
      <trkpt lat="46.315179280936718" lon="8.260578559711576">
        <ele>1639.8800000000001</ele>
        <time>2022-02-06T08:25:39Z</time>
      </trkpt>
      <trkpt lat="46.315184393897653" lon="8.260594150051475">
        <ele>1640.0999999999999</ele>
        <time>2022-02-06T08:25:53Z</time>
      </trkpt>
      <trkpt lat="46.315186657011509" lon="8.260617200285196">
        <ele>1640.01</ele>
        <time>2022-02-06T08:26:04Z</time>
      </trkpt>
      <trkpt lat="46.315192859619856" lon="8.260640753433108">
        <ele>1640.05</ele>
        <time>2022-02-06T08:26:17Z</time>
      </trkpt>
      <trkpt lat="46.315195458009839" lon="8.26064276508987">
        <ele>1639.8499999999999</ele>
        <time>2022-02-06T08:26:49Z</time>
      </trkpt>
      <trkpt lat="46.315158745273948" lon="8.260649973526597">
        <ele>1640.05</ele>
        <time>2022-02-06T08:26:57Z</time>
      </trkpt>
      <trkpt lat="46.315156733617187" lon="8.260645112022758">
        <ele>1640.05</ele>
        <time>2022-02-06T08:27:10Z</time>
      </trkpt>
      <trkpt lat="46.315154302865267" lon="8.260638657957315">
        <ele>1640.2</ele>
        <time>2022-02-06T08:27:28Z</time>
      </trkpt>
      <trkpt lat="46.315159080550075" lon="8.260634131729603">
        <ele>1640.0899999999999</ele>
        <time>2022-02-06T08:27:51Z</time>
      </trkpt>
      <trkpt lat="46.31515690125525" lon="8.260633880272508">
        <ele>1639.73</ele>
        <time>2022-02-06T08:28:05Z</time>
      </trkpt>
      <trkpt lat="46.315181208774447" lon="8.260623905807734">
        <ele>1639.8399999999999</ele>
        <time>2022-02-06T08:28:13Z</time>
      </trkpt>
      <trkpt lat="46.315180705860257" lon="8.260628096759319">
        <ele>1639.0899999999999</ele>
        <time>2022-02-06T08:28:24Z</time>
      </trkpt>
      <trkpt lat="46.315166624262929" lon="8.260634047910571">
        <ele>1640.3199999999999</ele>
        <time>2022-02-06T08:28:45Z</time>
      </trkpt>
      <trkpt lat="46.315150363370776" lon="8.260625917464495">
        <ele>1640.4400000000001</ele>
        <time>2022-02-06T08:28:54Z</time>
      </trkpt>
      <trkpt lat="46.315158158540726" lon="8.260632706806064">
        <ele>1640.51</ele>
        <time>2022-02-06T08:29:23Z</time>
      </trkpt>
      <trkpt lat="46.315154889598489" lon="8.260623821988702">
        <ele>1640.75</ele>
        <time>2022-02-06T08:29:41Z</time>
      </trkpt>
      <trkpt lat="46.315172743052244" lon="8.260588366538286">
        <ele>1640.74</ele>
        <time>2022-02-06T08:29:54Z</time>
      </trkpt>
      <trkpt lat="46.315167127177119" lon="8.260572943836451">
        <ele>1640.72</ele>
        <time>2022-02-06T08:30:02Z</time>
      </trkpt>
      <trkpt lat="46.315169725567102" lon="8.260588115081191">
        <ele>1640.5599999999999</ele>
        <time>2022-02-06T08:30:06Z</time>
      </trkpt>
      <trkpt lat="46.315175844356418" lon="8.2606515660882">
        <ele>1640.8900000000001</ele>
        <time>2022-02-06T08:30:17Z</time>
      </trkpt>
      <trkpt lat="46.315165283158422" lon="8.260665060952306">
        <ele>1641.01</ele>
        <time>2022-02-06T08:30:30Z</time>
      </trkpt>
      <trkpt lat="46.315158326178789" lon="8.260652739554644">
        <ele>1641.2</ele>
        <time>2022-02-06T08:30:40Z</time>
      </trkpt>
      <trkpt lat="46.315156146883965" lon="8.260642681270838">
        <ele>1641.04</ele>
        <time>2022-02-06T08:30:51Z</time>
      </trkpt>
      <trkpt lat="46.315156649798155" lon="8.260643184185028">
        <ele>1641.03</ele>
        <time>2022-02-06T08:31:00Z</time>
      </trkpt>
      <trkpt lat="46.315156482160091" lon="8.260650224983692">
        <ele>1640.96</ele>
        <time>2022-02-06T08:31:15Z</time>
      </trkpt>
      <trkpt lat="46.315155727788806" lon="8.260658774524927">
        <ele>1639.9200000000001</ele>
        <time>2022-02-06T08:31:27Z</time>
      </trkpt>
      <trkpt lat="46.315149692818522" lon="8.26064863242209">
        <ele>1639.6900000000001</ele>
        <time>2022-02-06T08:31:51Z</time>
      </trkpt>
      <trkpt lat="46.315148938447237" lon="8.260646956041455">
        <ele>1641</ele>
        <time>2022-02-06T08:32:04Z</time>
      </trkpt>
      <trkpt lat="46.31514860317111" lon="8.26064033433795">
        <ele>1641</ele>
        <time>2022-02-06T08:32:20Z</time>
      </trkpt>
      <trkpt lat="46.315154889598489" lon="8.260635221377015">
        <ele>1641.21</ele>
        <time>2022-02-06T08:32:31Z</time>
      </trkpt>
      <trkpt lat="46.315155057236552" lon="8.260627677664161">
        <ele>1641.3199999999999</ele>
        <time>2022-02-06T08:32:55Z</time>
      </trkpt>
      <trkpt lat="46.315158745273948" lon="8.260633880272508">
        <ele>1641.73</ele>
        <time>2022-02-06T08:33:12Z</time>
      </trkpt>
      <trkpt lat="46.315162684768438" lon="8.260631030425429">
        <ele>1640.97</ele>
        <time>2022-02-06T08:33:29Z</time>
      </trkpt>
      <trkpt lat="46.315162014216185" lon="8.260632958263159">
        <ele>1641.6800000000001</ele>
        <time>2022-02-06T08:33:43Z</time>
      </trkpt>
      <trkpt lat="46.315173748880625" lon="8.260645866394043">
        <ele>1641.53</ele>
        <time>2022-02-06T08:33:58Z</time>
      </trkpt>
      <trkpt lat="46.31518280133605" lon="8.26064863242209">
        <ele>1639.95</ele>
        <time>2022-02-06T08:34:14Z</time>
      </trkpt>
      <trkpt lat="46.315192356705666" lon="8.26068333350122">
        <ele>1641.45</ele>
        <time>2022-02-06T08:34:27Z</time>
      </trkpt>
      <trkpt lat="46.315186070278287" lon="8.260687105357647">
        <ele>1641.52</ele>
        <time>2022-02-06T08:34:46Z</time>
      </trkpt>
      <trkpt lat="46.315184729173779" lon="8.26068140566349">
        <ele>1641.4300000000001</ele>
        <time>2022-02-06T08:35:02Z</time>
      </trkpt>
      <trkpt lat="46.315247844904661" lon="8.260703533887863">
        <ele>1641.47</ele>
        <time>2022-02-06T08:35:13Z</time>
      </trkpt>
      <trkpt lat="46.315365945920348" lon="8.260722728446126">
        <ele>1641.54</ele>
        <time>2022-02-06T08:35:27Z</time>
      </trkpt>
      <trkpt lat="46.315397461876273" lon="8.260731110349298">
        <ele>1641.28</ele>
        <time>2022-02-06T08:35:31Z</time>
      </trkpt>
      <trkpt lat="46.31552922539413" lon="8.260816354304552">
        <ele>1641.28</ele>
        <time>2022-02-06T08:35:47Z</time>
      </trkpt>
      <trkpt lat="46.315539954230189" lon="8.260821970179677">
        <ele>1641.4100000000001</ele>
        <time>2022-02-06T08:35:59Z</time>
      </trkpt>
      <trkpt lat="46.315568871796131" lon="8.260811241343617">
        <ele>1641.53</ele>
        <time>2022-02-06T08:36:08Z</time>
      </trkpt>
      <trkpt lat="46.315572308376431" lon="8.26081476174295">
        <ele>1641.49</ele>
        <time>2022-02-06T08:36:26Z</time>
      </trkpt>
      <trkpt lat="46.315593011677265" lon="8.260807553306222">
        <ele>1641.6800000000001</ele>
        <time>2022-02-06T08:36:36Z</time>
      </trkpt>
      <trkpt lat="46.315592089667916" lon="8.260805541649461">
        <ele>1641.8900000000001</ele>
        <time>2022-02-06T08:37:15Z</time>
      </trkpt>
      <trkpt lat="46.31559519097209" lon="8.260803110897541">
        <ele>1642.1400000000001</ele>
        <time>2022-02-06T08:37:32Z</time>
      </trkpt>
      <trkpt lat="46.315599717199802" lon="8.260809481143951">
        <ele>1642.1900000000001</ele>
        <time>2022-02-06T08:37:50Z</time>
      </trkpt>
      <trkpt lat="46.315610446035862" lon="8.260848037898541">
        <ele>1641.9400000000001</ele>
        <time>2022-02-06T08:38:03Z</time>
      </trkpt>
      <trkpt lat="46.315680267289281" lon="8.260910315439105">
        <ele>1641.6400000000001</ele>
        <time>2022-02-06T08:38:16Z</time>
      </trkpt>
      <trkpt lat="46.315749837085605" lon="8.260978208854795">
        <ele>1642.1600000000001</ele>
        <time>2022-02-06T08:38:28Z</time>
      </trkpt>
      <trkpt lat="46.31579409353435" lon="8.261030511930585">
        <ele>1642.1099999999999</ele>
        <time>2022-02-06T08:38:36Z</time>
      </trkpt>
      <trkpt lat="46.315791914239526" lon="8.26106010004878">
        <ele>1641.9200000000001</ele>
        <time>2022-02-06T08:38:46Z</time>
      </trkpt>
      <trkpt lat="46.315796691924334" lon="8.261063704267144">
        <ele>1641.8900000000001</ele>
        <time>2022-02-06T08:38:52Z</time>
      </trkpt>
      <trkpt lat="46.315778670832515" lon="8.261245004832745">
        <ele>1643.03</ele>
        <time>2022-02-06T08:39:06Z</time>
      </trkpt>
      <trkpt lat="46.315727792680264" lon="8.261347180232406">
        <ele>1642.6900000000001</ele>
        <time>2022-02-06T08:39:18Z</time>
      </trkpt>
      <trkpt lat="46.315707257017493" lon="8.261463269591332">
        <ele>1642.5799999999999</ele>
        <time>2022-02-06T08:39:31Z</time>
      </trkpt>
      <trkpt lat="46.315678926184773" lon="8.261576676741242">
        <ele>1643.6300000000001</ele>
        <time>2022-02-06T08:39:43Z</time>
      </trkpt>
      <trkpt lat="46.315651684999466" lon="8.261710535734892">
        <ele>1644.77</ele>
        <time>2022-02-06T08:39:56Z</time>
      </trkpt>
      <trkpt lat="46.315656043589115" lon="8.261823020875454">
        <ele>1645.98</ele>
        <time>2022-02-06T08:40:09Z</time>
      </trkpt>
      <trkpt lat="46.315716896206141" lon="8.261895440518856">
        <ele>1647.99</ele>
        <time>2022-02-06T08:40:23Z</time>
      </trkpt>
      <trkpt lat="46.315763415768743" lon="8.261902313679457">
        <ele>1648.5899999999999</ele>
        <time>2022-02-06T08:40:38Z</time>
      </trkpt>
      <trkpt lat="46.315793255344033" lon="8.261904073879123">
        <ele>1649.3499999999999</ele>
        <time>2022-02-06T08:40:42Z</time>
      </trkpt>
      <trkpt lat="46.315820664167404" lon="8.261917484924197">
        <ele>1649.71</ele>
        <time>2022-02-06T08:40:45Z</time>
      </trkpt>
      <trkpt lat="46.315899286419153" lon="8.262110855430365">
        <ele>1650.78</ele>
        <time>2022-02-06T08:41:00Z</time>
      </trkpt>
      <trkpt lat="46.315928623080254" lon="8.262197859585285">
        <ele>1651.1500000000001</ele>
        <time>2022-02-06T08:41:14Z</time>
      </trkpt>
      <trkpt lat="46.315951589494944" lon="8.262297352775931">
        <ele>1651.4400000000001</ele>
        <time>2022-02-06T08:41:28Z</time>
      </trkpt>
      <trkpt lat="46.316019147634506" lon="8.262442527338862">
        <ele>1651.97</ele>
        <time>2022-02-06T08:41:43Z</time>
      </trkpt>
      <trkpt lat="46.316078575327992" lon="8.262589629739523">
        <ele>1652.3800000000001</ele>
        <time>2022-02-06T08:41:58Z</time>
      </trkpt>
      <trkpt lat="46.316120903939009" lon="8.262747377157211">
        <ele>1652.9200000000001</ele>
        <time>2022-02-06T08:42:14Z</time>
      </trkpt>
      <trkpt lat="46.316161975264549" lon="8.262890707701445">
        <ele>1654.3199999999999</ele>
        <time>2022-02-06T08:42:30Z</time>
      </trkpt>
      <trkpt lat="46.316179325804114" lon="8.262963378801942">
        <ele>1654.99</ele>
        <time>2022-02-06T08:42:39Z</time>
      </trkpt>
      <trkpt lat="46.31619181483984" lon="8.263032864779234">
        <ele>1655.95</ele>
        <time>2022-02-06T08:42:51Z</time>
      </trkpt>
      <trkpt lat="46.316196424886584" lon="8.263064213097096">
        <ele>1655.6800000000001</ele>
        <time>2022-02-06T08:43:14Z</time>
      </trkpt>
      <trkpt lat="46.316218134015799" lon="8.263096986338496">
        <ele>1656.05</ele>
        <time>2022-02-06T08:43:17Z</time>
      </trkpt>
      <trkpt lat="46.316314525902271" lon="8.263187343254685">
        <ele>1659.6300000000001</ele>
        <time>2022-02-06T08:43:30Z</time>
      </trkpt>
      <trkpt lat="46.316396668553352" lon="8.263303516432643">
        <ele>1660.28</ele>
        <time>2022-02-06T08:43:43Z</time>
      </trkpt>
      <trkpt lat="46.316428352147341" lon="8.263431424275041">
        <ele>1662.74</ele>
        <time>2022-02-06T08:43:57Z</time>
      </trkpt>
      <trkpt lat="46.316452492028475" lon="8.263628650456667">
        <ele>1665.0899999999999</ele>
        <time>2022-02-06T08:44:15Z</time>
      </trkpt>
      <trkpt lat="46.316473111510277" lon="8.263832414522767">
        <ele>1666.78</ele>
        <time>2022-02-06T08:44:31Z</time>
      </trkpt>
      <trkpt lat="46.316474955528975" lon="8.263844568282366">
        <ele>1666.76</ele>
        <time>2022-02-06T08:44:32Z</time>
      </trkpt>
      <trkpt lat="46.316522983834147" lon="8.264067526906729">
        <ele>1667.3800000000001</ele>
        <time>2022-02-06T08:44:48Z</time>
      </trkpt>
      <trkpt lat="46.31655684672296" lon="8.264223849400878">
        <ele>1667.49</ele>
        <time>2022-02-06T08:45:01Z</time>
      </trkpt>
      <trkpt lat="46.316576208919287" lon="8.264356702566147">
        <ele>1667.99</ele>
        <time>2022-02-06T08:45:13Z</time>
      </trkpt>
      <trkpt lat="46.316636726260185" lon="8.264484107494354">
        <ele>1668.55</ele>
        <time>2022-02-06T08:45:27Z</time>
      </trkpt>
      <trkpt lat="46.316717443987727" lon="8.264481760561466">
        <ele>1670.27</ele>
        <time>2022-02-06T08:45:41Z</time>
      </trkpt>
      <trkpt lat="46.316752731800079" lon="8.264526603743434">
        <ele>1671.0599999999999</ele>
        <time>2022-02-06T08:45:53Z</time>
      </trkpt>
      <trkpt lat="46.316764215007424" lon="8.264541020616889">
        <ele>1671.0899999999999</ele>
        <time>2022-02-06T08:45:56Z</time>
      </trkpt>
      <trkpt lat="46.316793551668525" lon="8.264616709202528">
        <ele>1671.3199999999999</ele>
        <time>2022-02-06T08:46:02Z</time>
      </trkpt>
      <trkpt lat="46.31684216670692" lon="8.264749059453607">
        <ele>1672.6300000000001</ele>
        <time>2022-02-06T08:46:13Z</time>
      </trkpt>
      <trkpt lat="46.316922884434462" lon="8.264862382784486">
        <ele>1673.8399999999999</ele>
        <time>2022-02-06T08:46:26Z</time>
      </trkpt>
      <trkpt lat="46.316990694031119" lon="8.264999259263277">
        <ele>1674.4100000000001</ele>
        <time>2022-02-06T08:46:41Z</time>
      </trkpt>
      <trkpt lat="46.31706302985549" lon="8.265113420784473">
        <ele>1674.3599999999999</ele>
        <time>2022-02-06T08:46:54Z</time>
      </trkpt>
      <trkpt lat="46.317144585773349" lon="8.265195982530713">
        <ele>1674.95</ele>
        <time>2022-02-06T08:47:07Z</time>
      </trkpt>
      <trkpt lat="46.317187668755651" lon="8.265298996120691">
        <ele>1675.3699999999999</ele>
        <time>2022-02-06T08:47:18Z</time>
      </trkpt>
      <trkpt lat="46.317214155569673" lon="8.2653849106282">
        <ele>1675.5999999999999</ele>
        <time>2022-02-06T08:47:25Z</time>
      </trkpt>
      <trkpt lat="46.317237708717585" lon="8.265545088797808">
        <ele>1675.71</ele>
        <time>2022-02-06T08:47:38Z</time>
      </trkpt>
      <trkpt lat="46.317276852205396" lon="8.265694286674261">
        <ele>1676.9200000000001</ele>
        <time>2022-02-06T08:47:50Z</time>
      </trkpt>
      <trkpt lat="46.317284144461155" lon="8.26581884175539">
        <ele>1678.04</ele>
        <time>2022-02-06T08:48:01Z</time>
      </trkpt>
      <trkpt lat="46.317320354282856" lon="8.26595664024353">
        <ele>1679.3</ele>
        <time>2022-02-06T08:48:14Z</time>
      </trkpt>
      <trkpt lat="46.317319767549634" lon="8.266094354912639">
        <ele>1680.3900000000001</ele>
        <time>2022-02-06T08:48:26Z</time>
      </trkpt>
      <trkpt lat="46.317293113097548" lon="8.266216395422816">
        <ele>1681.5599999999999</ele>
        <time>2022-02-06T08:48:38Z</time>
      </trkpt>
      <trkpt lat="46.317320354282856" lon="8.26635779812932">
        <ele>1682.9400000000001</ele>
        <time>2022-02-06T08:48:51Z</time>
      </trkpt>
      <trkpt lat="46.317331669852138" lon="8.26637732796371">
        <ele>1682.98</ele>
        <time>2022-02-06T08:48:53Z</time>
      </trkpt>
      <trkpt lat="46.317370561882854" lon="8.266523340716958">
        <ele>1683.9300000000001</ele>
        <time>2022-02-06T08:49:06Z</time>
      </trkpt>
      <trkpt lat="46.317411800846457" lon="8.266658037900925">
        <ele>1684.3299999999999</ele>
        <time>2022-02-06T08:49:19Z</time>
      </trkpt>
      <trkpt lat="46.317456476390362" lon="8.266769517213106">
        <ele>1685.3499999999999</ele>
        <time>2022-02-06T08:49:31Z</time>
      </trkpt>
      <trkpt lat="46.317507605999708" lon="8.266883175820112">
        <ele>1685.9400000000001</ele>
        <time>2022-02-06T08:49:44Z</time>
      </trkpt>
      <trkpt lat="46.317569967359304" lon="8.26698468066752">
        <ele>1687.04</ele>
        <time>2022-02-06T08:49:57Z</time>
      </trkpt>
      <trkpt lat="46.317602153867483" lon="8.267037235200405">
        <ele>1687.0699999999999</ele>
        <time>2022-02-06T08:50:03Z</time>
      </trkpt>
      <trkpt lat="46.317671220749617" lon="8.267147541046143">
        <ele>1686.6199999999999</ele>
        <time>2022-02-06T08:50:17Z</time>
      </trkpt>
      <trkpt lat="46.317675327882171" lon="8.267148630693555">
        <ele>1686.48</ele>
        <time>2022-02-06T08:50:19Z</time>
      </trkpt>
      <trkpt lat="46.317724194377661" lon="8.267214260995388">
        <ele>1686.4200000000001</ele>
        <time>2022-02-06T08:50:25Z</time>
      </trkpt>
      <trkpt lat="46.317826202139258" lon="8.267421964555979">
        <ele>1686.4000000000001</ele>
        <time>2022-02-06T08:50:41Z</time>
      </trkpt>
      <trkpt lat="46.317919827997684" lon="8.267583232372999">
        <ele>1686.21</ele>
        <time>2022-02-06T08:50:57Z</time>
      </trkpt>
      <trkpt lat="46.317971376702189" lon="8.267707787454128">
        <ele>1686.3900000000001</ele>
        <time>2022-02-06T08:51:09Z</time>
      </trkpt>
      <trkpt lat="46.318026026710868" lon="8.267852710559964">
        <ele>1686.53</ele>
        <time>2022-02-06T08:51:23Z</time>
      </trkpt>
      <trkpt lat="46.318094255402684" lon="8.267987072467804">
        <ele>1687.1099999999999</ele>
        <time>2022-02-06T08:51:36Z</time>
      </trkpt>
      <trkpt lat="46.318163322284818" lon="8.268114477396011">
        <ele>1687.54</ele>
        <time>2022-02-06T08:51:49Z</time>
      </trkpt>
      <trkpt lat="46.31819567643106" lon="8.268253952264786">
        <ele>1687.8199999999999</ele>
        <time>2022-02-06T08:52:01Z</time>
      </trkpt>
      <trkpt lat="46.318226605653763" lon="8.268408766016364">
        <ele>1688.1500000000001</ele>
        <time>2022-02-06T08:52:14Z</time>
      </trkpt>
      <trkpt lat="46.318221660330892" lon="8.268555700778961">
        <ele>1689.1199999999999</ele>
        <time>2022-02-06T08:52:26Z</time>
      </trkpt>
      <trkpt lat="46.318239262327552" lon="8.268675981089473">
        <ele>1689.7</ele>
        <time>2022-02-06T08:52:38Z</time>
      </trkpt>
      <trkpt lat="46.318242782726884" lon="8.26874622143805">
        <ele>1689.5699999999999</ele>
        <time>2022-02-06T08:52:44Z</time>
      </trkpt>
      <trkpt lat="46.318256864324212" lon="8.268896425142884">
        <ele>1689.5</ele>
        <time>2022-02-06T08:52:56Z</time>
      </trkpt>
      <trkpt lat="46.318274633958936" lon="8.269002456218004">
        <ele>1689.8399999999999</ele>
        <time>2022-02-06T08:53:08Z</time>
      </trkpt>
      <trkpt lat="46.318289637565613" lon="8.269120221957564">
        <ele>1690.4000000000001</ele>
        <time>2022-02-06T08:53:19Z</time>
      </trkpt>
      <trkpt lat="46.318343365564942" lon="8.269244357943535">
        <ele>1691.4100000000001</ele>
        <time>2022-02-06T08:53:32Z</time>
      </trkpt>
      <trkpt lat="46.318381335586309" lon="8.269346700981259">
        <ele>1692.28</ele>
        <time>2022-02-06T08:53:44Z</time>
      </trkpt>
      <trkpt lat="46.318367002531886" lon="8.269439656287432">
        <ele>1693.6199999999999</ele>
        <time>2022-02-06T08:53:58Z</time>
      </trkpt>
      <trkpt lat="46.318338001146913" lon="8.269546693190932">
        <ele>1695.1700000000001</ele>
        <time>2022-02-06T08:54:13Z</time>
      </trkpt>
      <trkpt lat="46.318402793258429" lon="8.269625063985586">
        <ele>1696.9000000000001</ele>
        <time>2022-02-06T08:54:28Z</time>
      </trkpt>
      <trkpt lat="46.318423580378294" lon="8.269661441445351">
        <ele>1697.46</ele>
        <time>2022-02-06T08:54:33Z</time>
      </trkpt>
      <trkpt lat="46.318520475178957" lon="8.269761605188251">
        <ele>1697.9200000000001</ele>
        <time>2022-02-06T08:54:47Z</time>
      </trkpt>
      <trkpt lat="46.318566743284464" lon="8.269880460575223">
        <ele>1698.6800000000001</ele>
        <time>2022-02-06T08:54:58Z</time>
      </trkpt>
      <trkpt lat="46.318608988076448" lon="8.270043153315783">
        <ele>1699.28</ele>
        <time>2022-02-06T08:55:11Z</time>
      </trkpt>
      <trkpt lat="46.318650227040052" lon="8.270233338698745">
        <ele>1700.04</ele>
        <time>2022-02-06T08:55:27Z</time>
      </trkpt>
      <trkpt lat="46.318721808493137" lon="8.270392511039972">
        <ele>1700.51</ele>
        <time>2022-02-06T08:55:42Z</time>
      </trkpt>
      <trkpt lat="46.318759359419346" lon="8.270455207675695">
        <ele>1700.5899999999999</ele>
        <time>2022-02-06T08:55:54Z</time>
      </trkpt>
      <trkpt lat="46.31878157146275" lon="8.270515808835626">
        <ele>1700.8499999999999</ele>
        <time>2022-02-06T08:56:13Z</time>
      </trkpt>
      <trkpt lat="46.318840747699142" lon="8.270689398050308">
        <ele>1701.6800000000001</ele>
        <time>2022-02-06T08:56:30Z</time>
      </trkpt>
      <trkpt lat="46.318879052996635" lon="8.270814539864659">
        <ele>1702.52</ele>
        <time>2022-02-06T08:56:43Z</time>
      </trkpt>
      <trkpt lat="46.318901348859072" lon="8.27092157676816">
        <ele>1703.3</ele>
        <time>2022-02-06T08:56:53Z</time>
      </trkpt>
      <trkpt lat="46.318926829844713" lon="8.271034481003881">
        <ele>1703.6099999999999</ele>
        <time>2022-02-06T08:57:04Z</time>
      </trkpt>
      <trkpt lat="46.318969829007983" lon="8.271195497363806">
        <ele>1704.6300000000001</ele>
        <time>2022-02-06T08:57:19Z</time>
      </trkpt>
      <trkpt lat="46.319034453481436" lon="8.271323405206204">
        <ele>1704.8900000000001</ele>
        <time>2022-02-06T08:57:33Z</time>
      </trkpt>
      <trkpt lat="46.319084577262402" lon="8.271492049098015">
        <ele>1705.5999999999999</ele>
        <time>2022-02-06T08:57:48Z</time>
      </trkpt>
      <trkpt lat="46.319111483171582" lon="8.271593302488327">
        <ele>1707.2</ele>
        <time>2022-02-06T08:58:00Z</time>
      </trkpt>
      <trkpt lat="46.319129001349211" lon="8.271697824820876">
        <ele>1708.51</ele>
        <time>2022-02-06T08:58:11Z</time>
      </trkpt>
      <trkpt lat="46.319152554497123" lon="8.271767813712359">
        <ele>1709.9000000000001</ele>
        <time>2022-02-06T08:58:21Z</time>
      </trkpt>
      <trkpt lat="46.319171246141195" lon="8.271869150921702">
        <ele>1711.1600000000001</ele>
        <time>2022-02-06T08:58:33Z</time>
      </trkpt>
      <trkpt lat="46.319214161485434" lon="8.271981719881296">
        <ele>1711.78</ele>
        <time>2022-02-06T08:58:45Z</time>
      </trkpt>
      <trkpt lat="46.319265458732843" lon="8.272083895280957">
        <ele>1712.74</ele>
        <time>2022-02-06T08:58:57Z</time>
      </trkpt>
      <trkpt lat="46.319329496473074" lon="8.272199649363756">
        <ele>1712.76</ele>
        <time>2022-02-06T08:59:10Z</time>
      </trkpt>
      <trkpt lat="46.319366712123156" lon="8.272322276607156">
        <ele>1712.8299999999999</ele>
        <time>2022-02-06T08:59:21Z</time>
      </trkpt>
      <trkpt lat="46.319437371566892" lon="8.272463260218501">
        <ele>1713.0799999999999</ele>
        <time>2022-02-06T08:59:35Z</time>
      </trkpt>
      <trkpt lat="46.319484813138843" lon="8.272653529420495">
        <ele>1713.6500000000001</ele>
        <time>2022-02-06T08:59:49Z</time>
      </trkpt>
      <trkpt lat="46.319490512832999" lon="8.272803984582424">
        <ele>1714.04</ele>
        <time>2022-02-06T09:00:01Z</time>
      </trkpt>
      <trkpt lat="46.319507695734501" lon="8.272922169417143">
        <ele>1715.1099999999999</ele>
        <time>2022-02-06T09:00:12Z</time>
      </trkpt>
      <trkpt lat="46.319548767060041" lon="8.273033145815134">
        <ele>1715.97</ele>
        <time>2022-02-06T09:00:24Z</time>
      </trkpt>
      <trkpt lat="46.319590508937836" lon="8.273068265989423">
        <ele>1716.79</ele>
        <time>2022-02-06T09:00:38Z</time>
      </trkpt>
      <trkpt lat="46.319615570828319" lon="8.273058459162712">
        <ele>1717.5999999999999</ele>
        <time>2022-02-06T09:00:51Z</time>
      </trkpt>
      <trkpt lat="46.319632837548852" lon="8.273095674812794">
        <ele>1717.8499999999999</ele>
        <time>2022-02-06T09:01:02Z</time>
      </trkpt>
      <trkpt lat="46.319637950509787" lon="8.273104140534997">
        <ele>1718.1199999999999</ele>
        <time>2022-02-06T09:01:12Z</time>
      </trkpt>
      <trkpt lat="46.319643398746848" lon="8.27312576584518">
        <ele>1718.0699999999999</ele>
        <time>2022-02-06T09:01:31Z</time>
      </trkpt>
      <trkpt lat="46.31963518448174" lon="8.273133896291256">
        <ele>1717.9000000000001</ele>
        <time>2022-02-06T09:01:58Z</time>
      </trkpt>
      <trkpt lat="46.319630155339837" lon="8.273137416690588">
        <ele>1717.8599999999999</ele>
        <time>2022-02-06T09:02:16Z</time>
      </trkpt>
      <trkpt lat="46.319622695446014" lon="8.273175805807114">
        <ele>1718.1199999999999</ele>
        <time>2022-02-06T09:02:49Z</time>
      </trkpt>
      <trkpt lat="46.319670723751187" lon="8.273229030892253">
        <ele>1720.24</ele>
        <time>2022-02-06T09:03:05Z</time>
      </trkpt>
      <trkpt lat="46.319706346839666" lon="8.273200616240501">
        <ele>1721.21</ele>
        <time>2022-02-06T09:03:19Z</time>
      </trkpt>
      <trkpt lat="46.319725709035993" lon="8.273235065862536">
        <ele>1722.6700000000001</ele>
        <time>2022-02-06T09:03:30Z</time>
      </trkpt>
      <trkpt lat="46.319756638258696" lon="8.273295247927308">
        <ele>1724.28</ele>
        <time>2022-02-06T09:03:41Z</time>
      </trkpt>
      <trkpt lat="46.319776084274054" lon="8.273436734452844">
        <ele>1727.3</ele>
        <time>2022-02-06T09:03:59Z</time>
      </trkpt>
      <trkpt lat="46.3198013138026" lon="8.273507980629802">
        <ele>1728.51</ele>
        <time>2022-02-06T09:04:12Z</time>
      </trkpt>
      <trkpt lat="46.319816820323467" lon="8.273578053340316">
        <ele>1730.22</ele>
        <time>2022-02-06T09:04:23Z</time>
      </trkpt>
      <trkpt lat="46.31983358412981" lon="8.273659525439143">
        <ele>1731.9200000000001</ele>
        <time>2022-02-06T09:04:35Z</time>
      </trkpt>
      <trkpt lat="46.319865519180894" lon="8.273722641170025">
        <ele>1733.73</ele>
        <time>2022-02-06T09:04:47Z</time>
      </trkpt>
      <trkpt lat="46.319885971024632" lon="8.273797910660505">
        <ele>1735.3199999999999</ele>
        <time>2022-02-06T09:04:59Z</time>
      </trkpt>
      <trkpt lat="46.319912793114781" lon="8.273878963664174">
        <ele>1737.3900000000001</ele>
        <time>2022-02-06T09:05:12Z</time>
      </trkpt>
      <trkpt lat="46.319934166967869" lon="8.273943671956658">
        <ele>1738.04</ele>
        <time>2022-02-06T09:05:22Z</time>
      </trkpt>
      <trkpt lat="46.319969119504094" lon="8.274001926183701">
        <ele>1739.6600000000001</ele>
        <time>2022-02-06T09:05:32Z</time>
      </trkpt>
      <trkpt lat="46.319979848340154" lon="8.274009050801396">
        <ele>1739.96</ele>
        <time>2022-02-06T09:05:44Z</time>
      </trkpt>
      <trkpt lat="46.320014549419284" lon="8.274057665839791">
        <ele>1740.9300000000001</ele>
        <time>2022-02-06T09:05:54Z</time>
      </trkpt>
      <trkpt lat="46.320047909393907" lon="8.274099491536617">
        <ele>1742.1099999999999</ele>
        <time>2022-02-06T09:06:06Z</time>
      </trkpt>
      <trkpt lat="46.320092165842652" lon="8.274125643074513">
        <ele>1743.95</ele>
        <time>2022-02-06T09:06:18Z</time>
      </trkpt>
      <trkpt lat="46.320097194984555" lon="8.274136791005731">
        <ele>1744.74</ele>
        <time>2022-02-06T09:06:32Z</time>
      </trkpt>
      <trkpt lat="46.32014187052846" lon="8.274160595610738">
        <ele>1745.8900000000001</ele>
        <time>2022-02-06T09:06:51Z</time>
      </trkpt>
      <trkpt lat="46.320170033723116" lon="8.274202672764659">
        <ele>1746.51</ele>
        <time>2022-02-06T09:06:57Z</time>
      </trkpt>
      <trkpt lat="46.320153102278709" lon="8.274237122386694">
        <ele>1745.9000000000001</ele>
        <time>2022-02-06T09:07:07Z</time>
      </trkpt>
      <trkpt lat="46.320158047601581" lon="8.274235865101218">
        <ele>1746.05</ele>
        <time>2022-02-06T09:07:21Z</time>
      </trkpt>
      <trkpt lat="46.320195179432631" lon="8.274262519553304">
        <ele>1745.8800000000001</ele>
        <time>2022-02-06T09:07:34Z</time>
      </trkpt>
      <trkpt lat="46.320264078676701" lon="8.274349439889193">
        <ele>1746.0899999999999</ele>
        <time>2022-02-06T09:07:46Z</time>
      </trkpt>
      <trkpt lat="46.32031537592411" lon="8.27442018315196">
        <ele>1746.8299999999999</ele>
        <time>2022-02-06T09:07:57Z</time>
      </trkpt>
      <trkpt lat="46.32032124325633" lon="8.274418925866485">
        <ele>1746.6700000000001</ele>
        <time>2022-02-06T09:08:16Z</time>
      </trkpt>
      <trkpt lat="46.320325937122107" lon="8.274430995807052">
        <ele>1746.8299999999999</ele>
        <time>2022-02-06T09:08:23Z</time>
      </trkpt>
      <trkpt lat="46.320421490818262" lon="8.274606009945273">
        <ele>1747.0999999999999</ele>
        <time>2022-02-06T09:08:37Z</time>
      </trkpt>
      <trkpt lat="46.320471782237291" lon="8.274834416806698">
        <ele>1748.1600000000001</ele>
        <time>2022-02-06T09:08:51Z</time>
      </trkpt>
      <trkpt lat="46.320512183010578" lon="8.274998869746923">
        <ele>1750.1199999999999</ele>
        <time>2022-02-06T09:09:03Z</time>
      </trkpt>
      <trkpt lat="46.320518720895052" lon="8.275009766221046">
        <ele>1750.46</ele>
        <time>2022-02-06T09:09:04Z</time>
      </trkpt>
      <trkpt lat="46.32061343640089" lon="8.275108924135566">
        <ele>1752.6700000000001</ele>
        <time>2022-02-06T09:09:19Z</time>
      </trkpt>
      <trkpt lat="46.320676887407899" lon="8.275195173919201">
        <ele>1754.0899999999999</ele>
        <time>2022-02-06T09:09:33Z</time>
      </trkpt>
      <trkpt lat="46.320712510496378" lon="8.275228701531887">
        <ele>1754.74</ele>
        <time>2022-02-06T09:09:46Z</time>
      </trkpt>
      <trkpt lat="46.320711839944124" lon="8.275255607441068">
        <ele>1754.98</ele>
        <time>2022-02-06T09:09:57Z</time>
      </trkpt>
      <trkpt lat="46.320720557123423" lon="8.275282680988312">
        <ele>1754.97</ele>
        <time>2022-02-06T09:10:06Z</time>
      </trkpt>
      <trkpt lat="46.320758191868663" lon="8.275342108681798">
        <ele>1756.3199999999999</ele>
        <time>2022-02-06T09:10:17Z</time>
      </trkpt>
      <trkpt lat="46.320762550458312" lon="8.275356525555253">
        <ele>1757.1900000000001</ele>
        <time>2022-02-06T09:10:29Z</time>
      </trkpt>
      <trkpt lat="46.320765065029263" lon="8.275379240512848">
        <ele>1757.8499999999999</ele>
        <time>2022-02-06T09:10:40Z</time>
      </trkpt>
      <trkpt lat="46.320759952068329" lon="8.27537102624774">
        <ele>1757.9200000000001</ele>
        <time>2022-02-06T09:10:55Z</time>
      </trkpt>
      <trkpt lat="46.320736818015575" lon="8.275353005155921">
        <ele>1758.1500000000001</ele>
        <time>2022-02-06T09:11:11Z</time>
      </trkpt>
      <trkpt lat="46.320721311494708" lon="8.275334062054753">
        <ele>1758.03</ele>
        <time>2022-02-06T09:11:24Z</time>
      </trkpt>
      <trkpt lat="46.320731788873672" lon="8.275329871103168">
        <ele>1758.05</ele>
        <time>2022-02-06T09:11:48Z</time>
      </trkpt>
      <trkpt lat="46.320742685347795" lon="8.275332804769278">
        <ele>1758.04</ele>
        <time>2022-02-06T09:12:12Z</time>
      </trkpt>
      <trkpt lat="46.320735225453973" lon="8.275329368188977">
        <ele>1757.97</ele>
        <time>2022-02-06T09:12:33Z</time>
      </trkpt>
      <trkpt lat="46.32073120214045" lon="8.275324506685138">
        <ele>1757.73</ele>
        <time>2022-02-06T09:13:08Z</time>
      </trkpt>
      <trkpt lat="46.320726256817579" lon="8.27533096075058">
        <ele>1757.6900000000001</ele>
        <time>2022-02-06T09:13:38Z</time>
      </trkpt>
      <trkpt lat="46.320740422233939" lon="8.275325847789645">
        <ele>1757.5899999999999</ele>
        <time>2022-02-06T09:14:00Z</time>
      </trkpt>
      <trkpt lat="46.320745870471001" lon="8.275330625474453">
        <ele>1757.74</ele>
        <time>2022-02-06T09:14:23Z</time>
      </trkpt>
      <trkpt lat="46.320748971775174" lon="8.275334313511848">
        <ele>1757.6800000000001</ele>
        <time>2022-02-06T09:14:41Z</time>
      </trkpt>
      <trkpt lat="46.320746205747128" lon="8.275355603545904">
        <ele>1757.54</ele>
        <time>2022-02-06T09:15:12Z</time>
      </trkpt>
      <trkpt lat="46.320747882127762" lon="8.275338923558593">
        <ele>1757.4200000000001</ele>
        <time>2022-02-06T09:15:51Z</time>
      </trkpt>
      <trkpt lat="46.320745870471001" lon="8.275314448401332">
        <ele>1757.53</ele>
        <time>2022-02-06T09:16:21Z</time>
      </trkpt>
      <trkpt lat="46.320733213797212" lon="8.2753143645823">
        <ele>1757.6300000000001</ele>
        <time>2022-02-06T09:16:40Z</time>
      </trkpt>
      <trkpt lat="46.320730363950133" lon="8.275321656838059">
        <ele>1757.5799999999999</ele>
        <time>2022-02-06T09:16:59Z</time>
      </trkpt>
      <trkpt lat="46.320734806358814" lon="8.27534269541502">
        <ele>1758.05</ele>
        <time>2022-02-06T09:17:24Z</time>
      </trkpt>
      <trkpt lat="46.320735979825258" lon="8.275344874709845">
        <ele>1758.0599999999999</ele>
        <time>2022-02-06T09:17:46Z</time>
      </trkpt>
      <trkpt lat="46.320740254595876" lon="8.275349233299494">
        <ele>1758.3099999999999</ele>
        <time>2022-02-06T09:18:10Z</time>
      </trkpt>
      <trkpt lat="46.320754922926426" lon="8.275351580232382">
        <ele>1758.49</ele>
        <time>2022-02-06T09:18:39Z</time>
      </trkpt>
      <trkpt lat="46.320759365335107" lon="8.275347221642733">
        <ele>1758.5</ele>
        <time>2022-02-06T09:19:02Z</time>
      </trkpt>
      <trkpt lat="46.320759197697043" lon="8.275338839739561">
        <ele>1758</ele>
        <time>2022-02-06T09:19:17Z</time>
      </trkpt>
      <trkpt lat="46.320746708661318" lon="8.27532752417028">
        <ele>1758.05</ele>
        <time>2022-02-06T09:19:39Z</time>
      </trkpt>
      <trkpt lat="46.32079322822392" lon="8.275395669043064">
        <ele>1757.3199999999999</ele>
        <time>2022-02-06T09:19:49Z</time>
      </trkpt>
      <trkpt lat="46.320868246257305" lon="8.275488372892141">
        <ele>1757.51</ele>
        <time>2022-02-06T09:20:01Z</time>
      </trkpt>
      <trkpt lat="46.320876125246286" lon="8.27549709007144">
        <ele>1757.48</ele>
        <time>2022-02-06T09:20:02Z</time>
      </trkpt>
      <trkpt lat="46.320963213220239" lon="8.275626339018345">
        <ele>1756.5699999999999</ele>
        <time>2022-02-06T09:20:16Z</time>
      </trkpt>
      <trkpt lat="46.320998081937432" lon="8.275725496932864">
        <ele>1755.8599999999999</ele>
        <time>2022-02-06T09:20:27Z</time>
      </trkpt>
      <trkpt lat="46.321020880714059" lon="8.275864468887448">
        <ele>1754.74</ele>
        <time>2022-02-06T09:20:38Z</time>
      </trkpt>
      <trkpt lat="46.32106346078217" lon="8.275978043675423">
        <ele>1754.6400000000001</ele>
        <time>2022-02-06T09:20:48Z</time>
      </trkpt>
      <trkpt lat="46.321103693917394" lon="8.276089606806636">
        <ele>1754.8599999999999</ele>
        <time>2022-02-06T09:20:59Z</time>
      </trkpt>
      <trkpt lat="46.321124732494354" lon="8.276195889338851">
        <ele>1754.9300000000001</ele>
        <time>2022-02-06T09:21:09Z</time>
      </trkpt>
      <trkpt lat="46.321150464937091" lon="8.276235032826662">
        <ele>1755.1700000000001</ele>
        <time>2022-02-06T09:21:16Z</time>
      </trkpt>
      <trkpt lat="46.321173347532749" lon="8.276243582367897">
        <ele>1755.1400000000001</ele>
        <time>2022-02-06T09:21:18Z</time>
      </trkpt>
      <trkpt lat="46.321253897622228" lon="8.276356821879745">
        <ele>1755.8900000000001</ele>
        <time>2022-02-06T09:21:32Z</time>
      </trkpt>
      <trkpt lat="46.321368142962456" lon="8.276455979794264">
        <ele>1757.3299999999999</ele>
        <time>2022-02-06T09:21:49Z</time>
      </trkpt>
      <trkpt lat="46.321409633383155" lon="8.276451956480742">
        <ele>1757.04</ele>
        <time>2022-02-06T09:22:03Z</time>
      </trkpt>
      <trkpt lat="46.321425558999181" lon="8.276473078876734">
        <ele>1756.9300000000001</ele>
        <time>2022-02-06T09:22:31Z</time>
      </trkpt>
      <trkpt lat="46.321450872346759" lon="8.276556730270386">
        <ele>1758.22</ele>
        <time>2022-02-06T09:22:44Z</time>
      </trkpt>
      <trkpt lat="46.321459589526057" lon="8.276572320610285">
        <ele>1758.0899999999999</ele>
        <time>2022-02-06T09:22:54Z</time>
      </trkpt>
      <trkpt lat="46.321424134075642" lon="8.276514234021306">
        <ele>1757.9200000000001</ele>
        <time>2022-02-06T09:23:07Z</time>
      </trkpt>
      <trkpt lat="46.321419691666961" lon="8.276515575125814">
        <ele>1757.8099999999999</ele>
        <time>2022-02-06T09:23:25Z</time>
      </trkpt>
      <trkpt lat="46.321417512372136" lon="8.276509456336498">
        <ele>1758.04</ele>
        <time>2022-02-06T09:23:47Z</time>
      </trkpt>
      <trkpt lat="46.321456236764789" lon="8.276489675045013">
        <ele>1757.4000000000001</ele>
        <time>2022-02-06T09:23:59Z</time>
      </trkpt>
      <trkpt lat="46.321446932852268" lon="8.276481796056032">
        <ele>1757.3900000000001</ele>
        <time>2022-02-06T09:24:10Z</time>
      </trkpt>
      <trkpt lat="46.321452297270298" lon="8.276500152423978">
        <ele>1757.4100000000001</ele>
        <time>2022-02-06T09:24:29Z</time>
      </trkpt>
      <trkpt lat="46.321445340290666" lon="8.276517083868384">
        <ele>1757.5899999999999</ele>
        <time>2022-02-06T09:24:57Z</time>
      </trkpt>
      <trkpt lat="46.321438048034906" lon="8.276519766077399">
        <ele>1758.0599999999999</ele>
        <time>2022-02-06T09:25:22Z</time>
      </trkpt>
      <trkpt lat="46.32144064642489" lon="8.276531836017966">
        <ele>1757.96</ele>
        <time>2022-02-06T09:25:43Z</time>
      </trkpt>
      <trkpt lat="46.321440981701016" lon="8.276529908180237">
        <ele>1758.1400000000001</ele>
        <time>2022-02-06T09:26:06Z</time>
      </trkpt>
      <trkpt lat="46.32144064642489" lon="8.276530243456364">
        <ele>1755.0599999999999</ele>
        <time>2022-02-06T09:26:19Z</time>
      </trkpt>
      <trkpt lat="46.321440143510699" lon="8.276529991999269">
        <ele>1761.0699999999999</ele>
        <time>2022-02-06T09:26:21Z</time>
      </trkpt>
      <trkpt lat="46.321440730243921" lon="8.27652957290411">
        <ele>1759.72</ele>
        <time>2022-02-06T09:26:22Z</time>
      </trkpt>
      <trkpt lat="46.32144408300519" lon="8.276523789390922">
        <ele>1758.4400000000001</ele>
        <time>2022-02-06T09:26:45Z</time>
      </trkpt>
      <trkpt lat="46.321447100490332" lon="8.276519598439336">
        <ele>1758.3900000000001</ele>
        <time>2022-02-06T09:26:57Z</time>
      </trkpt>
      <trkpt lat="46.321466630324721" lon="8.276524543762207">
        <ele>1758.52</ele>
        <time>2022-02-06T09:27:26Z</time>
      </trkpt>
      <trkpt lat="46.321449531242251" lon="8.276527309790254">
        <ele>1759.01</ele>
        <time>2022-02-06T09:27:43Z</time>
      </trkpt>
      <trkpt lat="46.32148515433073" lon="8.276603668928146">
        <ele>1759.4000000000001</ele>
        <time>2022-02-06T09:27:57Z</time>
      </trkpt>
      <trkpt lat="46.321500157937407" lon="8.276738366112113">
        <ele>1758.8099999999999</ele>
        <time>2022-02-06T09:28:10Z</time>
      </trkpt>
      <trkpt lat="46.32153938524425" lon="8.276872895658016">
        <ele>1759.1500000000001</ele>
        <time>2022-02-06T09:28:22Z</time>
      </trkpt>
      <trkpt lat="46.321545336395502" lon="8.27692436054349">
        <ele>1759.3499999999999</ele>
        <time>2022-02-06T09:28:31Z</time>
      </trkpt>
      <trkpt lat="46.32157014682889" lon="8.27696199528873">
        <ele>1759.4000000000001</ele>
        <time>2022-02-06T09:28:37Z</time>
      </trkpt>
      <trkpt lat="46.321622617542744" lon="8.277044389396906">
        <ele>1760.1099999999999</ele>
        <time>2022-02-06T09:28:44Z</time>
      </trkpt>
      <trkpt lat="46.321636363863945" lon="8.277084706351161">
        <ele>1760.3800000000001</ele>
        <time>2022-02-06T09:28:47Z</time>
      </trkpt>
      <trkpt lat="46.321673663333058" lon="8.277101553976536">
        <ele>1760.5699999999999</ele>
        <time>2022-02-06T09:28:59Z</time>
      </trkpt>
      <trkpt lat="46.321709370240569" lon="8.277176069095731">
        <ele>1761.3499999999999</ele>
        <time>2022-02-06T09:29:14Z</time>
      </trkpt>
      <trkpt lat="46.321735186502337" lon="8.277271455153823">
        <ele>1762.6400000000001</ele>
        <time>2022-02-06T09:29:25Z</time>
      </trkpt>
      <trkpt lat="46.321734096854925" lon="8.277358878403902">
        <ele>1763.9300000000001</ele>
        <time>2022-02-06T09:29:37Z</time>
      </trkpt>
      <trkpt lat="46.321727139875293" lon="8.277363320812583">
        <ele>1763.8299999999999</ele>
        <time>2022-02-06T09:30:02Z</time>
      </trkpt>
      <trkpt lat="46.321753542870283" lon="8.277379497885704">
        <ele>1764.1700000000001</ele>
        <time>2022-02-06T09:30:10Z</time>
      </trkpt>
      <trkpt lat="46.321787070482969" lon="8.277503801509738">
        <ele>1766.49</ele>
        <time>2022-02-06T09:30:23Z</time>
      </trkpt>
      <trkpt lat="46.321791596710682" lon="8.277626344934106">
        <ele>1768.21</ele>
        <time>2022-02-06T09:30:36Z</time>
      </trkpt>
      <trkpt lat="46.321792351081967" lon="8.277715276926756">
        <ele>1769.55</ele>
        <time>2022-02-06T09:30:49Z</time>
      </trkpt>
      <trkpt lat="46.321787992492318" lon="8.277823487296701">
        <ele>1771.8199999999999</ele>
        <time>2022-02-06T09:31:02Z</time>
      </trkpt>
      <trkpt lat="46.321761086583138" lon="8.277951311320067">
        <ele>1772.96</ele>
        <time>2022-02-06T09:31:14Z</time>
      </trkpt>
      <trkpt lat="46.321740048006177" lon="8.278033286333084">
        <ele>1773</ele>
        <time>2022-02-06T09:31:25Z</time>
      </trkpt>
      <trkpt lat="46.321762008592486" lon="8.278114590793848">
        <ele>1774.5</ele>
        <time>2022-02-06T09:31:41Z</time>
      </trkpt>
      <trkpt lat="46.321756979450583" lon="8.278264794498682">
        <ele>1776.4200000000001</ele>
        <time>2022-02-06T09:31:54Z</time>
      </trkpt>
      <trkpt lat="46.321739880368114" lon="8.278342746198177">
        <ele>1777.78</ele>
        <time>2022-02-06T09:32:06Z</time>
      </trkpt>
      <trkpt lat="46.321737030521035" lon="8.278339058160782">
        <ele>1777.9300000000001</ele>
        <time>2022-02-06T09:32:25Z</time>
      </trkpt>
      <trkpt lat="46.321733929216862" lon="8.278403347358108">
        <ele>1778.79</ele>
        <time>2022-02-06T09:32:39Z</time>
      </trkpt>
      <trkpt lat="46.321756225079298" lon="8.278399910777807">
        <ele>1778.8099999999999</ele>
        <time>2022-02-06T09:33:00Z</time>
      </trkpt>
      <trkpt lat="46.321747926995158" lon="8.278385829180479">
        <ele>1778.4400000000001</ele>
        <time>2022-02-06T09:33:19Z</time>
      </trkpt>
      <trkpt lat="46.321747591719031" lon="8.278489597141743">
        <ele>1779.9300000000001</ele>
        <time>2022-02-06T09:33:33Z</time>
      </trkpt>
      <trkpt lat="46.32176510989666" lon="8.278608033433557">
        <ele>1781.75</ele>
        <time>2022-02-06T09:33:48Z</time>
      </trkpt>
      <trkpt lat="46.321778940036893" lon="8.278685146942735">
        <ele>1783.0899999999999</ele>
        <time>2022-02-06T09:34:04Z</time>
      </trkpt>
      <trkpt lat="46.321764523163438" lon="8.278763433918357">
        <ele>1784.49</ele>
        <time>2022-02-06T09:34:17Z</time>
      </trkpt>
      <trkpt lat="46.321748429909348" lon="8.278837110847235">
        <ele>1785.6500000000001</ele>
        <time>2022-02-06T09:34:31Z</time>
      </trkpt>
      <trkpt lat="46.321742814034224" lon="8.278916822746396">
        <ele>1787.97</ele>
        <time>2022-02-06T09:34:43Z</time>
      </trkpt>
      <trkpt lat="46.321753123775125" lon="8.27892629429698">
        <ele>1788.6900000000001</ele>
        <time>2022-02-06T09:34:56Z</time>
      </trkpt>
      <trkpt lat="46.321797631680965" lon="8.278945405036211">
        <ele>1789.79</ele>
        <time>2022-02-06T09:35:09Z</time>
      </trkpt>
      <trkpt lat="46.321834092959762" lon="8.278946243226528">
        <ele>1791.3800000000001</ele>
        <time>2022-02-06T09:35:21Z</time>
      </trkpt>
      <trkpt lat="46.321820681914687" lon="8.279022602364421">
        <ele>1793</ele>
        <time>2022-02-06T09:35:34Z</time>
      </trkpt>
      <trkpt lat="46.321775168180466" lon="8.27910415828228">
        <ele>1794.8699999999999</ele>
        <time>2022-02-06T09:35:48Z</time>
      </trkpt>
      <trkpt lat="46.321768630295992" lon="8.279214296489954">
        <ele>1797.3699999999999</ele>
        <time>2022-02-06T09:36:05Z</time>
      </trkpt>
      <trkpt lat="46.321731163188815" lon="8.279268192127347">
        <ele>1798.73</ele>
        <time>2022-02-06T09:36:17Z</time>
      </trkpt>
      <trkpt lat="46.321681961417198" lon="8.279281938448548">
        <ele>1800.5799999999999</ele>
        <time>2022-02-06T09:36:31Z</time>
      </trkpt>
      <trkpt lat="46.321716411039233" lon="8.279313454404473">
        <ele>1802.04</ele>
        <time>2022-02-06T09:36:45Z</time>
      </trkpt>
      <trkpt lat="46.321728313341737" lon="8.279353687539697">
        <ele>1803.21</ele>
        <time>2022-02-06T09:36:58Z</time>
      </trkpt>
      <trkpt lat="46.321703167632222" lon="8.279385454952717">
        <ele>1804.1800000000001</ele>
        <time>2022-02-06T09:37:16Z</time>
      </trkpt>
      <trkpt lat="46.321651451289654" lon="8.27942862175405">
        <ele>1806.78</ele>
        <time>2022-02-06T09:37:32Z</time>
      </trkpt>
      <trkpt lat="46.321638794615865" lon="8.27949944883585">
        <ele>1808.77</ele>
        <time>2022-02-06T09:37:46Z</time>
      </trkpt>
      <trkpt lat="46.321686236187816" lon="8.279579076915979">
        <ele>1810.53</ele>
        <time>2022-02-06T09:38:01Z</time>
      </trkpt>
      <trkpt lat="46.321738371625543" lon="8.279610928148031">
        <ele>1812.0799999999999</ele>
        <time>2022-02-06T09:38:13Z</time>
      </trkpt>
      <trkpt lat="46.321732839569449" lon="8.279696926474571">
        <ele>1812.79</ele>
        <time>2022-02-06T09:38:25Z</time>
      </trkpt>
      <trkpt lat="46.321735186502337" lon="8.279830031096935">
        <ele>1814.4100000000001</ele>
        <time>2022-02-06T09:38:40Z</time>
      </trkpt>
      <trkpt lat="46.321771061047912" lon="8.279895829036832">
        <ele>1815.48</ele>
        <time>2022-02-06T09:38:54Z</time>
      </trkpt>
      <trkpt lat="46.321771647781134" lon="8.279954167082906">
        <ele>1816.5699999999999</ele>
        <time>2022-02-06T09:39:05Z</time>
      </trkpt>
      <trkpt lat="46.321780197322369" lon="8.279935475438833">
        <ele>1816.74</ele>
        <time>2022-02-06T09:39:16Z</time>
      </trkpt>
      <trkpt lat="46.321828728541732" lon="8.279891218990088">
        <ele>1817.9200000000001</ele>
        <time>2022-02-06T09:39:27Z</time>
      </trkpt>
      <trkpt lat="46.321871895343065" lon="8.279881328344345">
        <ele>1820.0699999999999</ele>
        <time>2022-02-06T09:39:39Z</time>
      </trkpt>
      <trkpt lat="46.321887820959091" lon="8.279973277822137">
        <ele>1821.98</ele>
        <time>2022-02-06T09:39:53Z</time>
      </trkpt>
      <trkpt lat="46.321911122649908" lon="8.280041590332985">
        <ele>1824.1300000000001</ele>
        <time>2022-02-06T09:40:06Z</time>
      </trkpt>
      <trkpt lat="46.321931825950742" lon="8.280111160129309">
        <ele>1826.5799999999999</ele>
        <time>2022-02-06T09:40:22Z</time>
      </trkpt>
      <trkpt lat="46.321948086842895" lon="8.280117949470878">
        <ele>1826.6099999999999</ele>
        <time>2022-02-06T09:40:41Z</time>
      </trkpt>
      <trkpt lat="46.321955295279622" lon="8.280207049101591">
        <ele>1828.73</ele>
        <time>2022-02-06T09:40:55Z</time>
      </trkpt>
      <trkpt lat="46.321962000802159" lon="8.280289024114609">
        <ele>1830.78</ele>
        <time>2022-02-06T09:41:09Z</time>
      </trkpt>
      <trkpt lat="46.321958228945732" lon="8.280398910865188">
        <ele>1833.53</ele>
        <time>2022-02-06T09:41:28Z</time>
      </trkpt>
      <trkpt lat="46.321942387148738" lon="8.280466217547655">
        <ele>1834.8599999999999</ele>
        <time>2022-02-06T09:41:39Z</time>
      </trkpt>
      <trkpt lat="46.321961414068937" lon="8.280558753758669">
        <ele>1836.5799999999999</ele>
        <time>2022-02-06T09:41:53Z</time>
      </trkpt>
      <trkpt lat="46.321984883397818" lon="8.280656402930617">
        <ele>1838.8499999999999</ele>
        <time>2022-02-06T09:42:10Z</time>
      </trkpt>
      <trkpt lat="46.321984296664596" lon="8.280797889456153">
        <ele>1840.26</ele>
        <time>2022-02-06T09:42:24Z</time>
      </trkpt>
      <trkpt lat="46.321992175653577" lon="8.280916577205062">
        <ele>1840.9000000000001</ele>
        <time>2022-02-06T09:42:36Z</time>
      </trkpt>
      <trkpt lat="46.321997959166765" lon="8.280956810340285">
        <ele>1841.6199999999999</ele>
        <time>2022-02-06T09:42:47Z</time>
      </trkpt>
      <trkpt lat="46.321994103491306" lon="8.280965108424425">
        <ele>1840.0799999999999</ele>
        <time>2022-02-06T09:42:59Z</time>
      </trkpt>
      <trkpt lat="46.321987397968769" lon="8.280973406508565">
        <ele>1840.21</ele>
        <time>2022-02-06T09:43:19Z</time>
      </trkpt>
      <trkpt lat="46.321952529251575" lon="8.280982626602054">
        <ele>1840.05</ele>
        <time>2022-02-06T09:43:47Z</time>
      </trkpt>
      <trkpt lat="46.321943728253245" lon="8.280979357659817">
        <ele>1840.01</ele>
        <time>2022-02-06T09:44:13Z</time>
      </trkpt>
      <trkpt lat="46.321956804022193" lon="8.280982375144959">
        <ele>1839.9400000000001</ele>
        <time>2022-02-06T09:44:20Z</time>
      </trkpt>
      <trkpt lat="46.321950433775783" lon="8.280990086495876">
        <ele>1839.8800000000001</ele>
        <time>2022-02-06T09:44:44Z</time>
      </trkpt>
      <trkpt lat="46.321959821507335" lon="8.280991427600384">
        <ele>1839.9400000000001</ele>
        <time>2022-02-06T09:45:03Z</time>
      </trkpt>
      <trkpt lat="46.321955630555749" lon="8.281010119244456">
        <ele>1839.79</ele>
        <time>2022-02-06T09:45:26Z</time>
      </trkpt>
      <trkpt lat="46.321939453482628" lon="8.281016405671835">
        <ele>1840.3</ele>
        <time>2022-02-06T09:45:47Z</time>
      </trkpt>
      <trkpt lat="46.321958396583796" lon="8.281002407893539">
        <ele>1840.0799999999999</ele>
        <time>2022-02-06T09:46:01Z</time>
      </trkpt>
      <trkpt lat="46.321961162611842" lon="8.280996205285192">
        <ele>1840.9000000000001</ele>
        <time>2022-02-06T09:46:05Z</time>
      </trkpt>
      <trkpt lat="46.321961581707001" lon="8.280996875837445">
        <ele>1839.96</ele>
        <time>2022-02-06T09:46:07Z</time>
      </trkpt>
      <trkpt lat="46.321950014680624" lon="8.280998719856143">
        <ele>1840.1099999999999</ele>
        <time>2022-02-06T09:46:24Z</time>
      </trkpt>
      <trkpt lat="46.321946242824197" lon="8.280977765098214">
        <ele>1840.0999999999999</ele>
        <time>2022-02-06T09:46:53Z</time>
      </trkpt>
      <trkpt lat="46.321940794587135" lon="8.280977932736278">
        <ele>1840.3199999999999</ele>
        <time>2022-02-06T09:47:16Z</time>
      </trkpt>
      <trkpt lat="46.321938531473279" lon="8.280960079282522">
        <ele>1840.0899999999999</ele>
        <time>2022-02-06T09:47:43Z</time>
      </trkpt>
      <trkpt lat="46.321940710768104" lon="8.280965276062489">
        <ele>1840.24</ele>
        <time>2022-02-06T09:48:05Z</time>
      </trkpt>
      <trkpt lat="46.321945069357753" lon="8.280958067625761">
        <ele>1840.6700000000001</ele>
        <time>2022-02-06T09:48:22Z</time>
      </trkpt>
      <trkpt lat="46.321953032165766" lon="8.280956894159317">
        <ele>1840.29</ele>
        <time>2022-02-06T09:48:40Z</time>
      </trkpt>
      <trkpt lat="46.321953451260924" lon="8.280954295769334">
        <ele>1840.4400000000001</ele>
        <time>2022-02-06T09:49:00Z</time>
      </trkpt>
      <trkpt lat="46.321946829557419" lon="8.280946249142289">
        <ele>1840.55</ele>
        <time>2022-02-06T09:49:22Z</time>
      </trkpt>
      <trkpt lat="46.321938028559089" lon="8.280940214172006">
        <ele>1840.79</ele>
        <time>2022-02-06T09:49:47Z</time>
      </trkpt>
      <trkpt lat="46.321932077407837" lon="8.280951948836446">
        <ele>1840.8</ele>
        <time>2022-02-06T09:50:09Z</time>
      </trkpt>
      <trkpt lat="46.321936100721359" lon="8.280958570539951">
        <ele>1840.74</ele>
        <time>2022-02-06T09:50:37Z</time>
      </trkpt>
      <trkpt lat="46.32192294113338" lon="8.28099419362843">
        <ele>1840.6099999999999</ele>
        <time>2022-02-06T09:50:57Z</time>
      </trkpt>
      <trkpt lat="46.321914223954082" lon="8.281116485595703">
        <ele>1839.26</ele>
        <time>2022-02-06T09:51:10Z</time>
      </trkpt>
      <trkpt lat="46.321936352178454" lon="8.281181948259473">
        <ele>1839.3</ele>
        <time>2022-02-06T09:51:20Z</time>
      </trkpt>
      <trkpt lat="46.32195957005024" lon="8.281215056777">
        <ele>1839.49</ele>
        <time>2022-02-06T09:51:23Z</time>
      </trkpt>
      <trkpt lat="46.322015561163425" lon="8.281343383714557">
        <ele>1839.79</ele>
        <time>2022-02-06T09:51:35Z</time>
      </trkpt>
      <trkpt lat="46.322059985250235" lon="8.281481685116887">
        <ele>1839.4200000000001</ele>
        <time>2022-02-06T09:51:48Z</time>
      </trkpt>
      <trkpt lat="46.32212720811367" lon="8.281615627929568">
        <ele>1839.9000000000001</ele>
        <time>2022-02-06T09:52:02Z</time>
      </trkpt>
      <trkpt lat="46.322151012718678" lon="8.281736662611365">
        <ele>1840.0699999999999</ele>
        <time>2022-02-06T09:52:14Z</time>
      </trkpt>
      <trkpt lat="46.32218680344522" lon="8.281884854659438">
        <ele>1840.29</ele>
        <time>2022-02-06T09:52:28Z</time>
      </trkpt>
      <trkpt lat="46.322241118177772" lon="8.282008403912187">
        <ele>1840.7</ele>
        <time>2022-02-06T09:52:41Z</time>
      </trkpt>
      <trkpt lat="46.322311274707317" lon="8.28208920545876">
        <ele>1841.1300000000001</ele>
        <time>2022-02-06T09:52:53Z</time>
      </trkpt>
      <trkpt lat="46.322374725714326" lon="8.282156763598323">
        <ele>1841.79</ele>
        <time>2022-02-06T09:53:03Z</time>
      </trkpt>
      <trkpt lat="46.322441026568413" lon="8.282282073050737">
        <ele>1841.8900000000001</ele>
        <time>2022-02-06T09:53:16Z</time>
      </trkpt>
      <trkpt lat="46.322476230561733" lon="8.282394474372268">
        <ele>1843.25</ele>
        <time>2022-02-06T09:53:27Z</time>
      </trkpt>
      <trkpt lat="46.322545548900962" lon="8.282444765791297">
        <ele>1844.23</ele>
        <time>2022-02-06T09:53:39Z</time>
      </trkpt>
      <trkpt lat="46.322612101212144" lon="8.282511401921511">
        <ele>1845.52</ele>
        <time>2022-02-06T09:53:53Z</time>
      </trkpt>
      <trkpt lat="46.322655854746699" lon="8.282632771879435">
        <ele>1844.9200000000001</ele>
        <time>2022-02-06T09:54:04Z</time>
      </trkpt>
      <trkpt lat="46.322703044861555" lon="8.282696139067411">
        <ele>1844.52</ele>
        <time>2022-02-06T09:54:15Z</time>
      </trkpt>
      <trkpt lat="46.322770183905959" lon="8.282775264233351">
        <ele>1845.02</ele>
        <time>2022-02-06T09:54:28Z</time>
      </trkpt>
      <trkpt lat="46.322827935218811" lon="8.282852377742529">
        <ele>1845.8499999999999</ele>
        <time>2022-02-06T09:54:40Z</time>
      </trkpt>
      <trkpt lat="46.322865402325988" lon="8.282923037186265">
        <ele>1846.1400000000001</ele>
        <time>2022-02-06T09:54:53Z</time>
      </trkpt>
      <trkpt lat="46.32291292771697" lon="8.283055303618312">
        <ele>1846.4400000000001</ele>
        <time>2022-02-06T09:55:07Z</time>
      </trkpt>
      <trkpt lat="46.32291586138308" lon="8.283133925870061">
        <ele>1846.1800000000001</ele>
        <time>2022-02-06T09:55:22Z</time>
      </trkpt>
      <trkpt lat="46.322888284921646" lon="8.283196873962879">
        <ele>1845.4400000000001</ele>
        <time>2022-02-06T09:55:35Z</time>
      </trkpt>
      <trkpt lat="46.322901025414467" lon="8.283277340233326">
        <ele>1845.78</ele>
        <time>2022-02-06T09:55:51Z</time>
      </trkpt>
      <trkpt lat="46.32287428714335" lon="8.283280190080404">
        <ele>1845.9000000000001</ele>
        <time>2022-02-06T09:56:01Z</time>
      </trkpt>
      <trkpt lat="46.322846710681915" lon="8.283209362998605">
        <ele>1845.4400000000001</ele>
        <time>2022-02-06T09:56:13Z</time>
      </trkpt>
      <trkpt lat="46.322833467274904" lon="8.28320374712348">
        <ele>1845.6600000000001</ele>
        <time>2022-02-06T09:56:27Z</time>
      </trkpt>
      <trkpt lat="46.32283229380846" lon="8.283196622505784">
        <ele>1845.5799999999999</ele>
        <time>2022-02-06T09:56:49Z</time>
      </trkpt>
      <trkpt lat="46.322827432304621" lon="8.283194694668055">
        <ele>1845.48</ele>
        <time>2022-02-06T09:57:11Z</time>
      </trkpt>
      <trkpt lat="46.322827013209462" lon="8.283205591142178">
        <ele>1845.01</ele>
        <time>2022-02-06T09:57:31Z</time>
      </trkpt>
      <trkpt lat="46.322827516123652" lon="8.283206596970558">
        <ele>1844.6600000000001</ele>
        <time>2022-02-06T09:57:52Z</time>
      </trkpt>
      <trkpt lat="46.32283816114068" lon="8.283195532858372">
        <ele>1844.53</ele>
        <time>2022-02-06T09:58:15Z</time>
      </trkpt>
      <trkpt lat="46.322898343205452" lon="8.283178098499775">
        <ele>1845.52</ele>
        <time>2022-02-06T09:58:26Z</time>
      </trkpt>
      <trkpt lat="46.322933798655868" lon="8.283159323036671">
        <ele>1847.54</ele>
        <time>2022-02-06T09:58:38Z</time>
      </trkpt>
      <trkpt lat="46.322959614917636" lon="8.283108612522483">
        <ele>1850.0699999999999</ele>
        <time>2022-02-06T09:58:53Z</time>
      </trkpt>
      <trkpt lat="46.322974367067218" lon="8.283117413520813">
        <ele>1850.27</ele>
        <time>2022-02-06T09:59:06Z</time>
      </trkpt>
      <trkpt lat="46.322945449501276" lon="8.283172566443682">
        <ele>1848.03</ele>
        <time>2022-02-06T09:59:21Z</time>
      </trkpt>
      <trkpt lat="46.322903456166387" lon="8.283214727416635">
        <ele>1846.4100000000001</ele>
        <time>2022-02-06T09:59:33Z</time>
      </trkpt>
      <trkpt lat="46.322894068434834" lon="8.283209782093763">
        <ele>1846.0899999999999</ele>
        <time>2022-02-06T09:59:45Z</time>
      </trkpt>
      <trkpt lat="46.322943270206451" lon="8.283170806244016">
        <ele>1847.25</ele>
        <time>2022-02-06T09:59:56Z</time>
      </trkpt>
      <trkpt lat="46.323003703728318" lon="8.283177511766553">
        <ele>1848.5999999999999</ele>
        <time>2022-02-06T10:00:11Z</time>
      </trkpt>
      <trkpt lat="46.323002949357033" lon="8.283176925033331">
        <ele>1849.1600000000001</ele>
        <time>2022-02-06T10:00:28Z</time>
      </trkpt>
      <trkpt lat="46.32297788746655" lon="8.28312898054719">
        <ele>1849.54</ele>
        <time>2022-02-06T10:00:50Z</time>
      </trkpt>
      <trkpt lat="46.322969421744347" lon="8.283109283074737">
        <ele>1849.51</ele>
        <time>2022-02-06T10:01:05Z</time>
      </trkpt>
      <trkpt lat="46.322974367067218" lon="8.283104756847024">
        <ele>1849.76</ele>
        <time>2022-02-06T10:01:20Z</time>
      </trkpt>
      <trkpt lat="46.322984006255865" lon="8.283119006082416">
        <ele>1850.3699999999999</ele>
        <time>2022-02-06T10:01:33Z</time>
      </trkpt>
      <trkpt lat="46.323006302118301" lon="8.283174578100443">
        <ele>1849.45</ele>
        <time>2022-02-06T10:01:44Z</time>
      </trkpt>
      <trkpt lat="46.322950730100274" lon="8.283168207854033">
        <ele>1848.1500000000001</ele>
        <time>2022-02-06T10:01:59Z</time>
      </trkpt>
      <trkpt lat="46.322917873039842" lon="8.283145744353533">
        <ele>1846.79</ele>
        <time>2022-02-06T10:02:11Z</time>
      </trkpt>
      <trkpt lat="46.322861881926656" lon="8.283153790980578">
        <ele>1845.4300000000001</ele>
        <time>2022-02-06T10:02:21Z</time>
      </trkpt>
      <trkpt lat="46.322855846956372" lon="8.28313727863133">
        <ele>1845.5799999999999</ele>
        <time>2022-02-06T10:02:33Z</time>
      </trkpt>
      <trkpt lat="46.322844363749027" lon="8.283130992203951">
        <ele>1845.6600000000001</ele>
        <time>2022-02-06T10:02:56Z</time>
      </trkpt>
      <trkpt lat="46.322850650176406" lon="8.283123197034001">
        <ele>1845.73</ele>
        <time>2022-02-06T10:03:16Z</time>
      </trkpt>
      <trkpt lat="46.322846040129662" lon="8.283129064366221">
        <ele>1845.8499999999999</ele>
        <time>2022-02-06T10:03:36Z</time>
      </trkpt>
      <trkpt lat="46.32284302264452" lon="8.283141301944852">
        <ele>1845.5</ele>
        <time>2022-02-06T10:03:53Z</time>
      </trkpt>
      <trkpt lat="46.32284939289093" lon="8.283144738525152">
        <ele>1845.3499999999999</ele>
        <time>2022-02-06T10:04:20Z</time>
      </trkpt>
      <trkpt lat="46.322854338213801" lon="8.283148426562548">
        <ele>1845.73</ele>
        <time>2022-02-06T10:04:34Z</time>
      </trkpt>
      <trkpt lat="46.322856014594436" lon="8.283150522038341">
        <ele>1845.71</ele>
        <time>2022-02-06T10:04:57Z</time>
      </trkpt>
      <trkpt lat="46.32285819388926" lon="8.28314415179193">
        <ele>1846.21</ele>
        <time>2022-02-06T10:05:15Z</time>
      </trkpt>
      <trkpt lat="46.322863977402449" lon="8.283141553401947">
        <ele>1846.4400000000001</ele>
        <time>2022-02-06T10:05:36Z</time>
      </trkpt>
      <trkpt lat="46.32285232655704" lon="8.283125208690763">
        <ele>1846.54</ele>
        <time>2022-02-06T10:05:55Z</time>
      </trkpt>
      <trkpt lat="46.322852745652199" lon="8.283161083236337">
        <ele>1846.0599999999999</ele>
        <time>2022-02-06T10:06:18Z</time>
      </trkpt>
      <trkpt lat="46.322836652398109" lon="8.283170722424984">
        <ele>1845.1099999999999</ele>
        <time>2022-02-06T10:06:30Z</time>
      </trkpt>
      <trkpt lat="46.322834054008126" lon="8.283181954175234">
        <ele>1844.8099999999999</ele>
        <time>2022-02-06T10:06:50Z</time>
      </trkpt>
      <trkpt lat="46.322842184454203" lon="8.28317005187273">
        <ele>1844.97</ele>
        <time>2022-02-06T10:07:12Z</time>
      </trkpt>
      <trkpt lat="46.322847213596106" lon="8.283167537301779">
        <ele>1844.0599999999999</ele>
        <time>2022-02-06T10:07:25Z</time>
      </trkpt>
      <trkpt lat="46.322835311293602" lon="8.283171476796269">
        <ele>1844.54</ele>
        <time>2022-02-06T10:07:51Z</time>
      </trkpt>
      <trkpt lat="46.322844782844186" lon="8.283179439604282">
        <ele>1844.78</ele>
        <time>2022-02-06T10:08:06Z</time>
      </trkpt>
      <trkpt lat="46.322839334607124" lon="8.283171812072396">
        <ele>1844.8399999999999</ele>
        <time>2022-02-06T10:08:24Z</time>
      </trkpt>
      <trkpt lat="46.322842016816139" lon="8.283185390755534">
        <ele>1844.6400000000001</ele>
        <time>2022-02-06T10:08:46Z</time>
      </trkpt>
      <trkpt lat="46.322846710681915" lon="8.283186480402947">
        <ele>1844.3299999999999</ele>
        <time>2022-02-06T10:09:02Z</time>
      </trkpt>
      <trkpt lat="46.322843860834837" lon="8.283186815679073">
        <ele>1842.96</ele>
        <time>2022-02-06T10:09:04Z</time>
      </trkpt>
      <trkpt lat="46.322845704853535" lon="8.283190838992596">
        <ele>1844.4200000000001</ele>
        <time>2022-02-06T10:09:10Z</time>
      </trkpt>
      <trkpt lat="46.322845034301281" lon="8.283199388533831">
        <ele>1843.53</ele>
        <time>2022-02-06T10:09:36Z</time>
      </trkpt>
      <trkpt lat="46.322836233302951" lon="8.283203411847353">
        <ele>1843.55</ele>
        <time>2022-02-06T10:10:12Z</time>
      </trkpt>
      <trkpt lat="46.322830617427826" lon="8.283184384927154">
        <ele>1844.22</ele>
        <time>2022-02-06T10:10:31Z</time>
      </trkpt>
      <trkpt lat="46.322837490588427" lon="8.283181870356202">
        <ele>1844.3599999999999</ele>
        <time>2022-02-06T10:10:53Z</time>
      </trkpt>
      <trkpt lat="46.322845537215471" lon="8.283176338300109">
        <ele>1845.0899999999999</ele>
        <time>2022-02-06T10:11:19Z</time>
      </trkpt>
      <trkpt lat="46.322847800329328" lon="8.283171560615301">
        <ele>1845.47</ele>
        <time>2022-02-06T10:11:38Z</time>
      </trkpt>
      <trkpt lat="46.32284888997674" lon="8.283167788758874">
        <ele>1845.9400000000001</ele>
        <time>2022-02-06T10:12:04Z</time>
      </trkpt>
      <trkpt lat="46.322845118120313" lon="8.283173907548189">
        <ele>1845.8599999999999</ele>
        <time>2022-02-06T10:12:27Z</time>
      </trkpt>
      <trkpt lat="46.322854841127992" lon="8.283179523423314">
        <ele>1845.73</ele>
        <time>2022-02-06T10:13:06Z</time>
      </trkpt>
      <trkpt lat="46.322849141433835" lon="8.283188408240676">
        <ele>1845.8099999999999</ele>
        <time>2022-02-06T10:13:36Z</time>
      </trkpt>
      <trkpt lat="46.322836149483919" lon="8.283195197582245">
        <ele>1845.75</ele>
        <time>2022-02-06T10:14:03Z</time>
      </trkpt>
      <trkpt lat="46.322833299636841" lon="8.283188827335835">
        <ele>1845.78</ele>
        <time>2022-02-06T10:14:19Z</time>
      </trkpt>
      <trkpt lat="46.322839502245188" lon="8.28322428278625">
        <ele>1845.1900000000001</ele>
        <time>2022-02-06T10:14:48Z</time>
      </trkpt>
      <trkpt lat="46.322850985452533" lon="8.283222941681743">
        <ele>1844.99</ele>
        <time>2022-02-06T10:15:16Z</time>
      </trkpt>
      <trkpt lat="46.322836736217141" lon="8.283188492059708">
        <ele>1844.72</ele>
        <time>2022-02-06T10:15:29Z</time>
      </trkpt>
      <trkpt lat="46.322822654619813" lon="8.283186983317137">
        <ele>1844.49</ele>
        <time>2022-02-06T10:15:53Z</time>
      </trkpt>
      <trkpt lat="46.32282055914402" lon="8.2831802777946">
        <ele>1844.4300000000001</ele>
        <time>2022-02-06T10:16:20Z</time>
      </trkpt>
      <trkpt lat="46.322825336828828" lon="8.283194527029991">
        <ele>1844.22</ele>
        <time>2022-02-06T10:16:45Z</time>
      </trkpt>
      <trkpt lat="46.322828773409128" lon="8.283212296664715">
        <ele>1844.4300000000001</ele>
        <time>2022-02-06T10:17:00Z</time>
      </trkpt>
      <trkpt lat="46.32282005622983" lon="8.283227048814297">
        <ele>1843.6400000000001</ele>
        <time>2022-02-06T10:17:26Z</time>
      </trkpt>
      <trkpt lat="46.322775296866894" lon="8.283259151503444">
        <ele>1842.52</ele>
        <time>2022-02-06T10:17:35Z</time>
      </trkpt>
      <trkpt lat="46.322750234976411" lon="8.283267449587584">
        <ele>1841.5999999999999</ele>
        <time>2022-02-06T10:17:40Z</time>
      </trkpt>
      <trkpt lat="46.32268569432199" lon="8.283299719914794">
        <ele>1840.9100000000001</ele>
        <time>2022-02-06T10:17:52Z</time>
      </trkpt>
      <trkpt lat="46.322598271071911" lon="8.283328302204609">
        <ele>1840.6800000000001</ele>
        <time>2022-02-06T10:18:03Z</time>
      </trkpt>
      <trkpt lat="46.322523336857557" lon="8.283359399065375">
        <ele>1842.4100000000001</ele>
        <time>2022-02-06T10:18:16Z</time>
      </trkpt>
      <trkpt lat="46.322434740141034" lon="8.283421257510781">
        <ele>1843.75</ele>
        <time>2022-02-06T10:18:30Z</time>
      </trkpt>
      <trkpt lat="46.322341952472925" lon="8.28348470851779">
        <ele>1844.0799999999999</ele>
        <time>2022-02-06T10:18:43Z</time>
      </trkpt>
      <trkpt lat="46.322289481759071" lon="8.28352284617722">
        <ele>1844.3299999999999</ele>
        <time>2022-02-06T10:18:50Z</time>
      </trkpt>
      <trkpt lat="46.322184037417173" lon="8.283570958301425">
        <ele>1846.04</ele>
        <time>2022-02-06T10:19:05Z</time>
      </trkpt>
      <trkpt lat="46.32214623503387" lon="8.283582525327802">
        <ele>1847.01</ele>
        <time>2022-02-06T10:19:17Z</time>
      </trkpt>
      <trkpt lat="46.322132656350732" lon="8.283563498407602">
        <ele>1846.9400000000001</ele>
        <time>2022-02-06T10:19:34Z</time>
      </trkpt>
      <trkpt lat="46.322132488712668" lon="8.283576238900423">
        <ele>1846.74</ele>
        <time>2022-02-06T10:19:37Z</time>
      </trkpt>
      <trkpt lat="46.322063338011503" lon="8.283641450107098">
        <ele>1848.4100000000001</ele>
        <time>2022-02-06T10:19:50Z</time>
      </trkpt>
      <trkpt lat="46.321972562000155" lon="8.283657291904092">
        <ele>1849.3900000000001</ele>
        <time>2022-02-06T10:20:01Z</time>
      </trkpt>
      <trkpt lat="46.32194247096777" lon="8.283665925264359">
        <ele>1849.8099999999999</ele>
        <time>2022-02-06T10:20:14Z</time>
      </trkpt>
      <trkpt lat="46.321925455704331" lon="8.283650586381555">
        <ele>1850.1900000000001</ele>
        <time>2022-02-06T10:20:30Z</time>
      </trkpt>
      <trkpt lat="46.321854628622532" lon="8.283663745969534">
        <ele>1851.77</ele>
        <time>2022-02-06T10:20:43Z</time>
      </trkpt>
      <trkpt lat="46.321773156523705" lon="8.283683778718114">
        <ele>1853.1199999999999</ele>
        <time>2022-02-06T10:20:54Z</time>
      </trkpt>
      <trkpt lat="46.321674417704344" lon="8.283639270812273">
        <ele>1854.6700000000001</ele>
        <time>2022-02-06T10:21:07Z</time>
      </trkpt>
      <trkpt lat="46.321563692763448" lon="8.283615633845329">
        <ele>1856.53</ele>
        <time>2022-02-06T10:21:21Z</time>
      </trkpt>
      <trkpt lat="46.321470821276307" lon="8.283573305234313">
        <ele>1858.22</ele>
        <time>2022-02-06T10:21:36Z</time>
      </trkpt>
      <trkpt lat="46.321409549564123" lon="8.283592164516449">
        <ele>1859.6900000000001</ele>
        <time>2022-02-06T10:21:54Z</time>
      </trkpt>
      <trkpt lat="46.321337381377816" lon="8.283581016585231">
        <ele>1861.23</ele>
        <time>2022-02-06T10:22:08Z</time>
      </trkpt>
      <trkpt lat="46.321300668641925" lon="8.283578082919121">
        <ele>1862.3699999999999</ele>
        <time>2022-02-06T10:22:24Z</time>
      </trkpt>
      <trkpt lat="46.321266805753112" lon="8.283634409308434">
        <ele>1863.6700000000001</ele>
        <time>2022-02-06T10:22:40Z</time>
      </trkpt>
      <trkpt lat="46.321244677528739" lon="8.283678498119116">
        <ele>1865.76</ele>
        <time>2022-02-06T10:22:54Z</time>
      </trkpt>
      <trkpt lat="46.321199834346771" lon="8.283712109550834">
        <ele>1867.1700000000001</ele>
        <time>2022-02-06T10:23:09Z</time>
      </trkpt>
      <trkpt lat="46.321157002821565" lon="8.283733818680048">
        <ele>1867.5699999999999</ele>
        <time>2022-02-06T10:23:21Z</time>
      </trkpt>
      <trkpt lat="46.32111475802958" lon="8.283720910549164">
        <ele>1868.4300000000001</ele>
        <time>2022-02-06T10:23:35Z</time>
      </trkpt>
      <trkpt lat="46.321021215990186" lon="8.283707834780216">
        <ele>1869.8299999999999</ele>
        <time>2022-02-06T10:23:48Z</time>
      </trkpt>
      <trkpt lat="46.32094913162291" lon="8.283690568059683">
        <ele>1870.4200000000001</ele>
        <time>2022-02-06T10:23:59Z</time>
      </trkpt>
      <trkpt lat="46.320916945114732" lon="8.283671457320452">
        <ele>1871.22</ele>
        <time>2022-02-06T10:24:13Z</time>
      </trkpt>
      <trkpt lat="46.320835305377841" lon="8.283637342974544">
        <ele>1873.3499999999999</ele>
        <time>2022-02-06T10:24:27Z</time>
      </trkpt>
      <trkpt lat="46.320861708372831" lon="8.283642623573542">
        <ele>1873.0699999999999</ele>
        <time>2022-02-06T10:24:41Z</time>
      </trkpt>
      <trkpt lat="46.320868246257305" lon="8.28364253975451">
        <ele>1872.9100000000001</ele>
        <time>2022-02-06T10:24:47Z</time>
      </trkpt>
      <trkpt lat="46.320906970649958" lon="8.283642875030637">
        <ele>1872.3099999999999</ele>
        <time>2022-02-06T10:24:51Z</time>
      </trkpt>
      <trkpt lat="46.321003613993526" lon="8.283660644665361">
        <ele>1870.4300000000001</ele>
        <time>2022-02-06T10:25:03Z</time>
      </trkpt>
      <trkpt lat="46.321010487154126" lon="8.283671205863357">
        <ele>1870.75</ele>
        <time>2022-02-06T10:25:21Z</time>
      </trkpt>
      <trkpt lat="46.321014175191522" lon="8.283680928871036">
        <ele>1870.78</ele>
        <time>2022-02-06T10:25:55Z</time>
      </trkpt>
      <trkpt lat="46.321003781631589" lon="8.28364253975451">
        <ele>1870.4400000000001</ele>
        <time>2022-02-06T10:26:06Z</time>
      </trkpt>
      <trkpt lat="46.321003194898367" lon="8.283630218356848">
        <ele>1870.6700000000001</ele>
        <time>2022-02-06T10:26:08Z</time>
      </trkpt>
      <trkpt lat="46.320988526567817" lon="8.283603647723794">
        <ele>1870.0899999999999</ele>
        <time>2022-02-06T10:26:11Z</time>
      </trkpt>
      <trkpt lat="46.320969332009554" lon="8.283599708229303">
        <ele>1870.23</ele>
        <time>2022-02-06T10:26:12Z</time>
      </trkpt>
      <trkpt lat="46.320879813283682" lon="8.283577580004931">
        <ele>1870.02</ele>
        <time>2022-02-06T10:26:21Z</time>
      </trkpt>
      <trkpt lat="46.320833042263985" lon="8.283538101240993">
        <ele>1869.6700000000001</ele>
        <time>2022-02-06T10:26:26Z</time>
      </trkpt>
      <trkpt lat="46.320800520479679" lon="8.283463167026639">
        <ele>1870.8199999999999</ele>
        <time>2022-02-06T10:26:34Z</time>
      </trkpt>
      <trkpt lat="46.320702284574509" lon="8.283423688262701">
        <ele>1873.0799999999999</ele>
        <time>2022-02-06T10:26:45Z</time>
      </trkpt>
      <trkpt lat="46.320595666766167" lon="8.283369541168213">
        <ele>1874.6099999999999</ele>
        <time>2022-02-06T10:26:55Z</time>
      </trkpt>
      <trkpt lat="46.320502627640963" lon="8.283326709643006">
        <ele>1876.1199999999999</ele>
        <time>2022-02-06T10:27:07Z</time>
      </trkpt>
      <trkpt lat="46.320446133613586" lon="8.283292595297098">
        <ele>1876.8900000000001</ele>
        <time>2022-02-06T10:27:13Z</time>
      </trkpt>
      <trkpt lat="46.320429369807243" lon="8.283292427659035">
        <ele>1876.98</ele>
        <time>2022-02-06T10:27:14Z</time>
      </trkpt>
      <trkpt lat="46.320419060066342" lon="8.283287147060037">
        <ele>1877.45</ele>
        <time>2022-02-06T10:27:18Z</time>
      </trkpt>
      <trkpt lat="46.320403553545475" lon="8.283280190080404">
        <ele>1878.05</ele>
        <time>2022-02-06T10:27:23Z</time>
      </trkpt>
      <trkpt lat="46.320307329297066" lon="8.28318321146071">
        <ele>1880.1099999999999</ele>
        <time>2022-02-06T10:27:37Z</time>
      </trkpt>
      <trkpt lat="46.320225270465016" lon="8.283121772110462">
        <ele>1881.79</ele>
        <time>2022-02-06T10:27:48Z</time>
      </trkpt>
      <trkpt lat="46.320156203582883" lon="8.283142643049359">
        <ele>1882.6600000000001</ele>
        <time>2022-02-06T10:28:00Z</time>
      </trkpt>
      <trkpt lat="46.320145977661014" lon="8.283123783767223">
        <ele>1882.53</ele>
        <time>2022-02-06T10:28:13Z</time>
      </trkpt>
      <trkpt lat="46.320099709555507" lon="8.283159406855702">
        <ele>1882.74</ele>
        <time>2022-02-06T10:28:30Z</time>
      </trkpt>
      <trkpt lat="46.320083783939481" lon="8.283167537301779">
        <ele>1882.6900000000001</ele>
        <time>2022-02-06T10:28:32Z</time>
      </trkpt>
      <trkpt lat="46.319945231080055" lon="8.28318958170712">
        <ele>1883.8499999999999</ele>
        <time>2022-02-06T10:28:47Z</time>
      </trkpt>
      <trkpt lat="46.319845234975219" lon="8.283182708546519">
        <ele>1885.25</ele>
        <time>2022-02-06T10:28:58Z</time>
      </trkpt>
      <trkpt lat="46.319713890552521" lon="8.283151276409626">
        <ele>1887.3099999999999</ele>
        <time>2022-02-06T10:29:14Z</time>
      </trkpt>
      <trkpt lat="46.319617750123143" lon="8.283122861757875">
        <ele>1889.49</ele>
        <time>2022-02-06T10:29:28Z</time>
      </trkpt>
      <trkpt lat="46.319552203640342" lon="8.283119676634669">
        <ele>1890.8399999999999</ele>
        <time>2022-02-06T10:29:41Z</time>
      </trkpt>
      <trkpt lat="46.3194749224931" lon="8.283110707998276">
        <ele>1892.9300000000001</ele>
        <time>2022-02-06T10:29:58Z</time>
      </trkpt>
      <trkpt lat="46.319426726549864" lon="8.283110624179244">
        <ele>1894.1600000000001</ele>
        <time>2022-02-06T10:30:12Z</time>
      </trkpt>
      <trkpt lat="46.319353133440018" lon="8.28311582095921">
        <ele>1896.02</ele>
        <time>2022-02-06T10:30:26Z</time>
      </trkpt>
      <trkpt lat="46.319284318014979" lon="8.283114647492766">
        <ele>1897.6800000000001</ele>
        <time>2022-02-06T10:30:41Z</time>
      </trkpt>
      <trkpt lat="46.319203265011311" lon="8.283093273639679">
        <ele>1899.3900000000001</ele>
        <time>2022-02-06T10:30:57Z</time>
      </trkpt>
      <trkpt lat="46.319133276119828" lon="8.283061757683754">
        <ele>1900.75</ele>
        <time>2022-02-06T10:31:12Z</time>
      </trkpt>
      <trkpt lat="46.319083319976926" lon="8.283039042726159">
        <ele>1901.23</ele>
        <time>2022-02-06T10:31:23Z</time>
      </trkpt>
      <trkpt lat="46.319018779322505" lon="8.283019177615643">
        <ele>1902.5</ele>
        <time>2022-02-06T10:31:39Z</time>
      </trkpt>
      <trkpt lat="46.318931439891458" lon="8.282978525385261">
        <ele>1904.3800000000001</ele>
        <time>2022-02-06T10:31:57Z</time>
      </trkpt>
      <trkpt lat="46.318880058825016" lon="8.282981375232339">
        <ele>1905.3499999999999</ele>
        <time>2022-02-06T10:32:13Z</time>
      </trkpt>
      <trkpt lat="46.318815015256405" lon="8.282955558970571">
        <ele>1906.1500000000001</ele>
        <time>2022-02-06T10:32:32Z</time>
      </trkpt>
      <trkpt lat="46.31875860504806" lon="8.282889928668737">
        <ele>1908.25</ele>
        <time>2022-02-06T10:32:47Z</time>
      </trkpt>
      <trkpt lat="46.318700769916177" lon="8.282839553430677">
        <ele>1910.1300000000001</ele>
        <time>2022-02-06T10:33:03Z</time>
      </trkpt>
      <trkpt lat="46.318656010553241" lon="8.282811809331179">
        <ele>1911.76</ele>
        <time>2022-02-06T10:33:15Z</time>
      </trkpt>
      <trkpt lat="46.318602031096816" lon="8.28279621899128">
        <ele>1912.9300000000001</ele>
        <time>2022-02-06T10:33:29Z</time>
      </trkpt>
      <trkpt lat="46.318597085773945" lon="8.282885570079088">
        <ele>1914.1300000000001</ele>
        <time>2022-02-06T10:33:42Z</time>
      </trkpt>
      <trkpt lat="46.318635223433375" lon="8.282942650839686">
        <ele>1915.3299999999999</ele>
        <time>2022-02-06T10:33:55Z</time>
      </trkpt>
      <trkpt lat="46.318655423820019" lon="8.282963521778584">
        <ele>1916.0799999999999</ele>
        <time>2022-02-06T10:34:06Z</time>
      </trkpt>
      <trkpt lat="46.318660620599985" lon="8.282954972237349">
        <ele>1916.05</ele>
        <time>2022-02-06T10:34:22Z</time>
      </trkpt>
      <trkpt lat="46.318672941997647" lon="8.28301121480763">
        <ele>1916.5899999999999</ele>
        <time>2022-02-06T10:34:39Z</time>
      </trkpt>
      <trkpt lat="46.318716444075108" lon="8.28309821896255">
        <ele>1917.6900000000001</ele>
        <time>2022-02-06T10:34:52Z</time>
      </trkpt>
      <trkpt lat="46.318761873990297" lon="8.28318907879293">
        <ele>1918.8499999999999</ele>
        <time>2022-02-06T10:35:06Z</time>
      </trkpt>
      <trkpt lat="46.318808728829026" lon="8.283287482336164">
        <ele>1919.6300000000001</ele>
        <time>2022-02-06T10:35:20Z</time>
      </trkpt>
      <trkpt lat="46.318816104903817" lon="8.283289829269052">
        <ele>1919.5899999999999</ele>
        <time>2022-02-06T10:35:35Z</time>
      </trkpt>
      <trkpt lat="46.318815434351563" lon="8.283281279727817">
        <ele>1919.9300000000001</ele>
        <time>2022-02-06T10:35:56Z</time>
      </trkpt>
      <trkpt lat="46.318816775456071" lon="8.283281866461039">
        <ele>1920.0599999999999</ele>
        <time>2022-02-06T10:36:17Z</time>
      </trkpt>
      <trkpt lat="46.318818535655737" lon="8.283280273899436">
        <ele>1920.1700000000001</ele>
        <time>2022-02-06T10:36:48Z</time>
      </trkpt>
      <trkpt lat="46.318816691637039" lon="8.283282537013292">
        <ele>1919.9200000000001</ele>
        <time>2022-02-06T10:37:13Z</time>
      </trkpt>
      <trkpt lat="46.318820714950562" lon="8.283288823440671">
        <ele>1919.95</ele>
        <time>2022-02-06T10:37:36Z</time>
      </trkpt>
      <trkpt lat="46.318816523998976" lon="8.283292427659035">
        <ele>1919.72</ele>
        <time>2022-02-06T10:37:53Z</time>
      </trkpt>
      <trkpt lat="46.318836892023683" lon="8.283340875059366">
        <ele>1919.9100000000001</ele>
        <time>2022-02-06T10:38:07Z</time>
      </trkpt>
      <trkpt lat="46.318842172622681" lon="8.28335328027606">
        <ele>1920.0999999999999</ele>
        <time>2022-02-06T10:38:25Z</time>
      </trkpt>
      <trkpt lat="46.318842172622681" lon="8.283360069617629">
        <ele>1919.8399999999999</ele>
        <time>2022-02-06T10:38:46Z</time>
      </trkpt>
      <trkpt lat="46.318868072703481" lon="8.283407678827643">
        <ele>1920.45</ele>
        <time>2022-02-06T10:38:58Z</time>
      </trkpt>
      <trkpt lat="46.318885339424014" lon="8.283431483432651">
        <ele>1920.6099999999999</ele>
        <time>2022-02-06T10:39:01Z</time>
      </trkpt>
      <trkpt lat="46.31895499303937" lon="8.283527791500092">
        <ele>1921.8399999999999</ele>
        <time>2022-02-06T10:39:12Z</time>
      </trkpt>
      <trkpt lat="46.319077368825674" lon="8.283552518114448">
        <ele>1922.6500000000001</ele>
        <time>2022-02-06T10:39:26Z</time>
      </trkpt>
      <trkpt lat="46.319150710478425" lon="8.283535921946168">
        <ele>1923.8499999999999</ele>
        <time>2022-02-06T10:39:39Z</time>
      </trkpt>
      <trkpt lat="46.319208797067404" lon="8.283563330769539">
        <ele>1924.0599999999999</ele>
        <time>2022-02-06T10:39:53Z</time>
      </trkpt>
      <trkpt lat="46.319279540330172" lon="8.283702554181218">
        <ele>1926.51</ele>
        <time>2022-02-06T10:40:09Z</time>
      </trkpt>
      <trkpt lat="46.319328574463725" lon="8.283794419839978">
        <ele>1928.01</ele>
        <time>2022-02-06T10:40:23Z</time>
      </trkpt>
      <trkpt lat="46.31935078650713" lon="8.283860888332129">
        <ele>1929.22</ele>
        <time>2022-02-06T10:40:35Z</time>
      </trkpt>
      <trkpt lat="46.319377105683088" lon="8.283954011276364">
        <ele>1931.4400000000001</ele>
        <time>2022-02-06T10:40:49Z</time>
      </trkpt>
      <trkpt lat="46.31940795108676" lon="8.284013271331787">
        <ele>1932.3699999999999</ele>
        <time>2022-02-06T10:41:00Z</time>
      </trkpt>
      <trkpt lat="46.319432090967894" lon="8.284065825864673">
        <ele>1933.51</ele>
        <time>2022-02-06T10:41:12Z</time>
      </trkpt>
      <trkpt lat="46.319452291354537" lon="8.284139838069677">
        <ele>1935.1400000000001</ele>
        <time>2022-02-06T10:41:25Z</time>
      </trkpt>
      <trkpt lat="46.319478191435337" lon="8.284167665988207">
        <ele>1935.9100000000001</ele>
        <time>2022-02-06T10:41:37Z</time>
      </trkpt>
      <trkpt lat="46.319513646885753" lon="8.284232290461659">
        <ele>1937.3599999999999</ele>
        <time>2022-02-06T10:41:49Z</time>
      </trkpt>
      <trkpt lat="46.319532841444016" lon="8.284280067309737">
        <ele>1938.6300000000001</ele>
        <time>2022-02-06T10:42:00Z</time>
      </trkpt>
      <trkpt lat="46.319574834778905" lon="8.284358354285359">
        <ele>1940.71</ele>
        <time>2022-02-06T10:42:13Z</time>
      </trkpt>
      <trkpt lat="46.319608613848686" lon="8.284418703988195">
        <ele>1942.3800000000001</ele>
        <time>2022-02-06T10:42:24Z</time>
      </trkpt>
      <trkpt lat="46.3196268863976" lon="8.284459859132767">
        <ele>1943.5599999999999</ele>
        <time>2022-02-06T10:42:34Z</time>
      </trkpt>
      <trkpt lat="46.319671310484409" lon="8.28452062793076">
        <ele>1946.01</ele>
        <time>2022-02-06T10:42:48Z</time>
      </trkpt>
      <trkpt lat="46.319663934409618" lon="8.284551054239273">
        <ele>1946.48</ele>
        <time>2022-02-06T10:43:07Z</time>
      </trkpt>
      <trkpt lat="46.319661252200603" lon="8.284555580466986">
        <ele>1946.49</ele>
        <time>2022-02-06T10:43:29Z</time>
      </trkpt>
      <trkpt lat="46.319663431495428" lon="8.284555748105049">
        <ele>1946.6500000000001</ele>
        <time>2022-02-06T10:43:44Z</time>
      </trkpt>
      <trkpt lat="46.319640381261706" lon="8.284601848572493">
        <ele>1947.6099999999999</ele>
        <time>2022-02-06T10:43:58Z</time>
      </trkpt>
      <trkpt lat="46.319611044600606" lon="8.284594975411892">
        <ele>1948.8900000000001</ele>
        <time>2022-02-06T10:44:11Z</time>
      </trkpt>
      <trkpt lat="46.319563938304782" lon="8.284565638750792">
        <ele>1949.5599999999999</ele>
        <time>2022-02-06T10:44:24Z</time>
      </trkpt>
      <trkpt lat="46.319528901949525" lon="8.284599166363478">
        <ele>1951.3800000000001</ele>
        <time>2022-02-06T10:44:36Z</time>
      </trkpt>
      <trkpt lat="46.31954281590879" lon="8.284623473882675">
        <ele>1952.46</ele>
        <time>2022-02-06T10:44:49Z</time>
      </trkpt>
      <trkpt lat="46.319569386541843" lon="8.284650715067983">
        <ele>1953.05</ele>
        <time>2022-02-06T10:45:02Z</time>
      </trkpt>
      <trkpt lat="46.31962051615119" lon="8.284724727272987">
        <ele>1955.97</ele>
        <time>2022-02-06T10:45:18Z</time>
      </trkpt>
      <trkpt lat="46.319663682952523" lon="8.284793291240931">
        <ele>1958.0899999999999</ele>
        <time>2022-02-06T10:45:32Z</time>
      </trkpt>
      <trkpt lat="46.319674998521805" lon="8.284870740026236">
        <ele>1960.22</ele>
        <time>2022-02-06T10:45:45Z</time>
      </trkpt>
      <trkpt lat="46.31969234906137" lon="8.28494768589735">
        <ele>1961.6500000000001</ele>
        <time>2022-02-06T10:45:58Z</time>
      </trkpt>
      <trkpt lat="46.319726463407278" lon="8.285015244036913">
        <ele>1963.5599999999999</ele>
        <time>2022-02-06T10:46:11Z</time>
      </trkpt>
      <trkpt lat="46.319741886109114" lon="8.285132590681315">
        <ele>1965.6600000000001</ele>
        <time>2022-02-06T10:46:25Z</time>
      </trkpt>
      <trkpt lat="46.319761835038662" lon="8.285227809101343">
        <ele>1966.2</ele>
        <time>2022-02-06T10:46:38Z</time>
      </trkpt>
      <trkpt lat="46.319778179749846" lon="8.285313053056598">
        <ele>1966.55</ele>
        <time>2022-02-06T10:46:50Z</time>
      </trkpt>
      <trkpt lat="46.319801481440663" lon="8.285405840724707">
        <ele>1966.8499999999999</ele>
        <time>2022-02-06T10:47:01Z</time>
      </trkpt>
      <trkpt lat="46.319837020710111" lon="8.285464597865939">
        <ele>1967.1199999999999</ele>
        <time>2022-02-06T10:47:10Z</time>
      </trkpt>
      <trkpt lat="46.319849342107773" lon="8.285463340580463">
        <ele>1966.8399999999999</ele>
        <time>2022-02-06T10:47:18Z</time>
      </trkpt>
      <trkpt lat="46.319848001003265" lon="8.285464849323034">
        <ele>1966.73</ele>
        <time>2022-02-06T10:47:23Z</time>
      </trkpt>
      <trkpt lat="46.319852443411946" lon="8.285459987819195">
        <ele>1966.72</ele>
        <time>2022-02-06T10:47:25Z</time>
      </trkpt>
      <trkpt lat="46.319876834750175" lon="8.285486726090312">
        <ele>1966.6500000000001</ele>
        <time>2022-02-06T10:47:28Z</time>
      </trkpt>
      <trkpt lat="46.319893095642328" lon="8.285512207075954">
        <ele>1966.6800000000001</ele>
        <time>2022-02-06T10:47:29Z</time>
      </trkpt>
      <trkpt lat="46.319933831691742" lon="8.285552775487304">
        <ele>1967.4000000000001</ele>
        <time>2022-02-06T10:47:34Z</time>
      </trkpt>
      <trkpt lat="46.319954702630639" lon="8.285567024722695">
        <ele>1968.03</ele>
        <time>2022-02-06T10:47:38Z</time>
      </trkpt>
      <trkpt lat="46.319982865825295" lon="8.285573059692979">
        <ele>1969.3</ele>
        <time>2022-02-06T10:47:44Z</time>
      </trkpt>
      <trkpt lat="46.320019830018282" lon="8.285610107704997">
        <ele>1970.01</ele>
        <time>2022-02-06T10:47:54Z</time>
      </trkpt>
      <trkpt lat="46.320066349580884" lon="8.285631146281958">
        <ele>1971.3599999999999</ele>
        <time>2022-02-06T10:48:06Z</time>
      </trkpt>
      <trkpt lat="46.320102056488395" lon="8.285663584247232">
        <ele>1972.4300000000001</ele>
        <time>2022-02-06T10:48:19Z</time>
      </trkpt>
      <trkpt lat="46.320155030116439" lon="8.285714630037546">
        <ele>1973.8199999999999</ele>
        <time>2022-02-06T10:48:34Z</time>
      </trkpt>
      <trkpt lat="46.320181600749493" lon="8.285723933950067">
        <ele>1974.48</ele>
        <time>2022-02-06T10:48:43Z</time>
      </trkpt>
      <trkpt lat="46.320186881348491" lon="8.285711109638214">
        <ele>1974.9100000000001</ele>
        <time>2022-02-06T10:48:52Z</time>
      </trkpt>
      <trkpt lat="46.32018344476819" lon="8.285705745220184">
        <ele>1974.23</ele>
        <time>2022-02-06T10:49:02Z</time>
      </trkpt>
      <trkpt lat="46.320178834721446" lon="8.285736758261919">
        <ele>1974.6700000000001</ele>
        <time>2022-02-06T10:49:21Z</time>
      </trkpt>
      <trkpt lat="46.320187132805586" lon="8.285743966698647">
        <ele>1974.5899999999999</ele>
        <time>2022-02-06T10:49:35Z</time>
      </trkpt>
      <trkpt lat="46.320184199139476" lon="8.285738853737712">
        <ele>1974.5699999999999</ele>
        <time>2022-02-06T10:49:52Z</time>
      </trkpt>
      <trkpt lat="46.320183528587222" lon="8.285725358873606">
        <ele>1974.3299999999999</ele>
        <time>2022-02-06T10:50:17Z</time>
      </trkpt>
      <trkpt lat="46.320182606577873" lon="8.285733824595809">
        <ele>1975.0799999999999</ele>
        <time>2022-02-06T10:50:35Z</time>
      </trkpt>
      <trkpt lat="46.320238178595901" lon="8.285761065781117">
        <ele>1975.4200000000001</ele>
        <time>2022-02-06T10:50:54Z</time>
      </trkpt>
      <trkpt lat="46.320291236042976" lon="8.285785457119346">
        <ele>1976.75</ele>
        <time>2022-02-06T10:51:06Z</time>
      </trkpt>
      <trkpt lat="46.320288050919771" lon="8.285782523453236">
        <ele>1976.78</ele>
        <time>2022-02-06T10:51:29Z</time>
      </trkpt>
      <trkpt lat="46.320355609059334" lon="8.285813117399812">
        <ele>1978.29</ele>
        <time>2022-02-06T10:51:44Z</time>
      </trkpt>
      <trkpt lat="46.320346556603909" lon="8.285876316949725">
        <ele>1979.0599999999999</ele>
        <time>2022-02-06T10:51:57Z</time>
      </trkpt>
      <trkpt lat="46.320268018171191" lon="8.28594789840281">
        <ele>1981.8399999999999</ele>
        <time>2022-02-06T10:52:12Z</time>
      </trkpt>
      <trkpt lat="46.320196688175201" lon="8.285982934758067">
        <ele>1983.5899999999999</ele>
        <time>2022-02-06T10:52:27Z</time>
      </trkpt>
      <trkpt lat="46.320096105337143" lon="8.286005146801472">
        <ele>1985.3599999999999</ele>
        <time>2022-02-06T10:52:45Z</time>
      </trkpt>
      <trkpt lat="46.320036593824625" lon="8.28603339381516">
        <ele>1986.53</ele>
        <time>2022-02-06T10:52:59Z</time>
      </trkpt>
      <trkpt lat="46.320005245506763" lon="8.286060635000467">
        <ele>1987.45</ele>
        <time>2022-02-06T10:53:12Z</time>
      </trkpt>
      <trkpt lat="46.319957301020622" lon="8.286087540909648">
        <ele>1989.24</ele>
        <time>2022-02-06T10:53:29Z</time>
      </trkpt>
      <trkpt lat="46.319963838905096" lon="8.286100029945374">
        <ele>1988.8399999999999</ele>
        <time>2022-02-06T10:54:00Z</time>
      </trkpt>
      <trkpt lat="46.31992838345468" lon="8.286121739074588">
        <ele>1989.54</ele>
        <time>2022-02-06T10:54:27Z</time>
      </trkpt>
      <trkpt lat="46.31989661604166" lon="8.286138167604804">
        <ele>1990.6300000000001</ele>
        <time>2022-02-06T10:54:41Z</time>
      </trkpt>
      <trkpt lat="46.31980718113482" lon="8.286158284172416">
        <ele>1992.8499999999999</ele>
        <time>2022-02-06T10:54:55Z</time>
      </trkpt>
      <trkpt lat="46.319717494770885" lon="8.286207402125001">
        <ele>1994.8699999999999</ele>
        <time>2022-02-06T10:55:08Z</time>
      </trkpt>
      <trkpt lat="46.319687990471721" lon="8.286227518692613">
        <ele>1995.25</ele>
        <time>2022-02-06T10:55:19Z</time>
      </trkpt>
      <trkpt lat="46.31968111731112" lon="8.286233637481928">
        <ele>1995.3900000000001</ele>
        <time>2022-02-06T10:55:35Z</time>
      </trkpt>
      <trkpt lat="46.319668712094426" lon="8.286315612494946">
        <ele>1996.4200000000001</ele>
        <time>2022-02-06T10:55:47Z</time>
      </trkpt>
      <trkpt lat="46.319663431495428" lon="8.2863715197891">
        <ele>1996.6300000000001</ele>
        <time>2022-02-06T10:55:58Z</time>
      </trkpt>
      <trkpt lat="46.319687990471721" lon="8.286411501467228">
        <ele>1997.78</ele>
        <time>2022-02-06T10:56:11Z</time>
      </trkpt>
      <trkpt lat="46.319691510871053" lon="8.286436730995774">
        <ele>1997.3299999999999</ele>
        <time>2022-02-06T10:56:32Z</time>
      </trkpt>
      <trkpt lat="46.319692097604275" lon="8.286500014364719">
        <ele>1997.23</ele>
        <time>2022-02-06T10:56:37Z</time>
      </trkpt>
      <trkpt lat="46.319698970764875" lon="8.286578468978405">
        <ele>1998.5799999999999</ele>
        <time>2022-02-06T10:56:43Z</time>
      </trkpt>
      <trkpt lat="46.319713890552521" lon="8.286665473133326">
        <ele>1999.9400000000001</ele>
        <time>2022-02-06T10:56:54Z</time>
      </trkpt>
      <trkpt lat="46.319724451750517" lon="8.286676285788417">
        <ele>2000.0899999999999</ele>
        <time>2022-02-06T10:57:11Z</time>
      </trkpt>
      <trkpt lat="46.319725876674056" lon="8.286692630499601">
        <ele>2000.22</ele>
        <time>2022-02-06T10:57:25Z</time>
      </trkpt>
      <trkpt lat="46.319722356274724" lon="8.286763206124306">
        <ele>2000.9200000000001</ele>
        <time>2022-02-06T10:57:51Z</time>
      </trkpt>
      <trkpt lat="46.319742221385241" lon="8.286929251626134">
        <ele>2002.46</ele>
        <time>2022-02-06T10:58:06Z</time>
      </trkpt>
      <trkpt lat="46.319759152829647" lon="8.286988344043493">
        <ele>2002.8599999999999</ele>
        <time>2022-02-06T10:58:16Z</time>
      </trkpt>
      <trkpt lat="46.319754961878061" lon="8.286980884149671">
        <ele>2003</ele>
        <time>2022-02-06T10:58:43Z</time>
      </trkpt>
      <trkpt lat="46.319754375144839" lon="8.286976777017117">
        <ele>2002.6099999999999</ele>
        <time>2022-02-06T10:59:10Z</time>
      </trkpt>
      <trkpt lat="46.31975194439292" lon="8.287031343206763">
        <ele>2002.6199999999999</ele>
        <time>2022-02-06T10:59:31Z</time>
      </trkpt>
      <trkpt lat="46.319771138951182" lon="8.287186156958342">
        <ele>2003.46</ele>
        <time>2022-02-06T10:59:44Z</time>
      </trkpt>
      <trkpt lat="46.319788824766874" lon="8.287340216338635">
        <ele>2004.3699999999999</ele>
        <time>2022-02-06T10:59:57Z</time>
      </trkpt>
      <trkpt lat="46.319803912192583" lon="8.28750123269856">
        <ele>2005.8099999999999</ele>
        <time>2022-02-06T11:00:11Z</time>
      </trkpt>
      <trkpt lat="46.319812713190913" lon="8.287601480260491">
        <ele>2006.8</ele>
        <time>2022-02-06T11:00:22Z</time>
      </trkpt>
      <trkpt lat="46.319820089265704" lon="8.287719916552305">
        <ele>2007.79</ele>
        <time>2022-02-06T11:00:36Z</time>
      </trkpt>
      <trkpt lat="46.319826375693083" lon="8.287768699228764">
        <ele>2008.49</ele>
        <time>2022-02-06T11:00:48Z</time>
      </trkpt>
      <trkpt lat="46.319842636585236" lon="8.287841370329261">
        <ele>2009.6400000000001</ele>
        <time>2022-02-06T11:00:59Z</time>
      </trkpt>
      <trkpt lat="46.319859903305769" lon="8.287902725860477">
        <ele>2010.8499999999999</ele>
        <time>2022-02-06T11:01:11Z</time>
      </trkpt>
      <trkpt lat="46.31987364962697" lon="8.287961902096868">
        <ele>2011.9000000000001</ele>
        <time>2022-02-06T11:01:24Z</time>
      </trkpt>
      <trkpt lat="46.319875493645668" lon="8.287985287606716">
        <ele>2012.0899999999999</ele>
        <time>2022-02-06T11:01:37Z</time>
      </trkpt>
      <trkpt lat="46.319891167804599" lon="8.288039602339268">
        <ele>2013.3</ele>
        <time>2022-02-06T11:01:52Z</time>
      </trkpt>
      <trkpt lat="46.319906925782561" lon="8.288091653957963">
        <ele>2015.02</ele>
        <time>2022-02-06T11:02:03Z</time>
      </trkpt>
      <trkpt lat="46.319908685982227" lon="8.28811009414494">
        <ele>2015.52</ele>
        <time>2022-02-06T11:02:16Z</time>
      </trkpt>
      <trkpt lat="46.319914469495416" lon="8.28812375664711">
        <ele>2015.8</ele>
        <time>2022-02-06T11:02:33Z</time>
      </trkpt>
      <trkpt lat="46.319928551092744" lon="8.288183519616723">
        <ele>2016.9100000000001</ele>
        <time>2022-02-06T11:02:44Z</time>
      </trkpt>
      <trkpt lat="46.319969790056348" lon="8.28821511939168">
        <ele>2019.3800000000001</ele>
        <time>2022-02-06T11:02:56Z</time>
      </trkpt>
      <trkpt lat="46.31999384611845" lon="8.288234481588006">
        <ele>2020.6300000000001</ele>
        <time>2022-02-06T11:03:09Z</time>
      </trkpt>
      <trkpt lat="46.319999378174543" lon="8.288332633674145">
        <ele>2019.9000000000001</ele>
        <time>2022-02-06T11:03:24Z</time>
      </trkpt>
      <trkpt lat="46.320017902180552" lon="8.28840957954526">
        <ele>2020.2</ele>
        <time>2022-02-06T11:03:35Z</time>
      </trkpt>
      <trkpt lat="46.320008933544159" lon="8.288403879851103">
        <ele>2019.79</ele>
        <time>2022-02-06T11:03:53Z</time>
      </trkpt>
      <trkpt lat="46.320013543590903" lon="8.288402371108532">
        <ele>2019.6900000000001</ele>
        <time>2022-02-06T11:04:26Z</time>
      </trkpt>
      <trkpt lat="46.320023769512773" lon="8.288384433835745">
        <ele>2019.9000000000001</ele>
        <time>2022-02-06T11:04:39Z</time>
      </trkpt>
      <trkpt lat="46.320037096738815" lon="8.288381919264793">
        <ele>2019.8399999999999</ele>
        <time>2022-02-06T11:04:51Z</time>
      </trkpt>
      <trkpt lat="46.320040449500084" lon="8.288398180156946">
        <ele>2018.9300000000001</ele>
        <time>2022-02-06T11:05:11Z</time>
      </trkpt>
      <trkpt lat="46.320037432014942" lon="8.288383008912206">
        <ele>2019.5599999999999</ele>
        <time>2022-02-06T11:05:27Z</time>
      </trkpt>
      <trkpt lat="46.320049753412604" lon="8.288377979770303">
        <ele>2019.78</ele>
        <time>2022-02-06T11:05:44Z</time>
      </trkpt>
      <trkpt lat="46.320057967677712" lon="8.288377225399017">
        <ele>2019.95</ele>
        <time>2022-02-06T11:06:05Z</time>
      </trkpt>
      <trkpt lat="46.320063751190901" lon="8.288383679464459">
        <ele>2020.0999999999999</ele>
        <time>2022-02-06T11:06:25Z</time>
      </trkpt>
      <trkpt lat="46.320063415914774" lon="8.28839348629117">
        <ele>2020.1700000000001</ele>
        <time>2022-02-06T11:06:46Z</time>
      </trkpt>
      <trkpt lat="46.320082610473037" lon="8.28840522095561">
        <ele>2020.47</ele>
        <time>2022-02-06T11:07:00Z</time>
      </trkpt>
      <trkpt lat="46.320078670978546" lon="8.288410501554608">
        <ele>2020.3199999999999</ele>
        <time>2022-02-06T11:07:12Z</time>
      </trkpt>
      <trkpt lat="46.320070959627628" lon="8.288403628394008">
        <ele>2020.4300000000001</ele>
        <time>2022-02-06T11:07:38Z</time>
      </trkpt>
      <trkpt lat="46.32007691077888" lon="8.28840714879334">
        <ele>2021.0799999999999</ele>
        <time>2022-02-06T11:08:09Z</time>
      </trkpt>
      <trkpt lat="46.320063667371869" lon="8.288380075246096">
        <ele>2021.04</ele>
        <time>2022-02-06T11:08:27Z</time>
      </trkpt>
      <trkpt lat="46.32006224244833" lon="8.288378147408366">
        <ele>2020.8299999999999</ele>
        <time>2022-02-06T11:08:40Z</time>
      </trkpt>
      <trkpt lat="46.320061823353171" lon="8.288380997255445">
        <ele>2020.9200000000001</ele>
        <time>2022-02-06T11:09:00Z</time>
      </trkpt>
      <trkpt lat="46.320065762847662" lon="8.288381164893508">
        <ele>2020.9100000000001</ele>
        <time>2022-02-06T11:09:27Z</time>
      </trkpt>
      <trkpt lat="46.320064086467028" lon="8.288423242047429">
        <ele>2021.1900000000001</ele>
        <time>2022-02-06T11:09:42Z</time>
      </trkpt>
      <trkpt lat="46.320079006254673" lon="8.288483927026391">
        <ele>2021.0699999999999</ele>
        <time>2022-02-06T11:09:48Z</time>
      </trkpt>
      <trkpt lat="46.320088226348162" lon="8.288504546508193">
        <ele>2021.1199999999999</ele>
        <time>2022-02-06T11:09:50Z</time>
      </trkpt>
      <trkpt lat="46.320093926042318" lon="8.288516364991665">
        <ele>2021.21</ele>
        <time>2022-02-06T11:09:51Z</time>
      </trkpt>
      <trkpt lat="46.320135751739144" lon="8.288654750213027">
        <ele>2021.54</ele>
        <time>2022-02-06T11:10:03Z</time>
      </trkpt>
      <trkpt lat="46.320153186097741" lon="8.288777796551585">
        <ele>2021.51</ele>
        <time>2022-02-06T11:10:16Z</time>
      </trkpt>
      <trkpt lat="46.320164417847991" lon="8.288804618641734">
        <ele>2021.4200000000001</ele>
        <time>2022-02-06T11:10:21Z</time>
      </trkpt>
      <trkpt lat="46.320165172219276" lon="8.288819119334221">
        <ele>2021.48</ele>
        <time>2022-02-06T11:10:22Z</time>
      </trkpt>
      <trkpt lat="46.320165088400245" lon="8.288848539814353">
        <ele>2021.4100000000001</ele>
        <time>2022-02-06T11:10:24Z</time>
      </trkpt>
      <trkpt lat="46.320162322372198" lon="8.289043754339218">
        <ele>2021.7</ele>
        <time>2022-02-06T11:10:39Z</time>
      </trkpt>
      <trkpt lat="46.32016483694315" lon="8.28911617398262">
        <ele>2021.6099999999999</ele>
        <time>2022-02-06T11:10:49Z</time>
      </trkpt>
      <trkpt lat="46.320134829729795" lon="8.289224719628692">
        <ele>2022.75</ele>
        <time>2022-02-06T11:11:03Z</time>
      </trkpt>
      <trkpt lat="46.320129632949829" lon="8.289215583354235">
        <ele>2021.75</ele>
        <time>2022-02-06T11:11:17Z</time>
      </trkpt>
      <trkpt lat="46.320127537474036" lon="8.289208961650729">
        <ele>2021.99</ele>
        <time>2022-02-06T11:11:39Z</time>
      </trkpt>
      <trkpt lat="46.320135081186891" lon="8.289221869781613">
        <ele>2022.4300000000001</ele>
        <time>2022-02-06T11:12:24Z</time>
      </trkpt>
      <trkpt lat="46.320138014853001" lon="8.289227318018675">
        <ele>2022.1800000000001</ele>
        <time>2022-02-06T11:12:59Z</time>
      </trkpt>
      <trkpt lat="46.320129968225956" lon="8.289224887266755">
        <ele>2021.3299999999999</ele>
        <time>2022-02-06T11:13:47Z</time>
      </trkpt>
      <trkpt lat="46.320130806416273" lon="8.289224468171597">
        <ele>2021.01</ele>
        <time>2022-02-06T11:14:40Z</time>
      </trkpt>
      <trkpt lat="46.320129800587893" lon="8.289224971085787">
        <ele>2021.77</ele>
        <time>2022-02-06T11:15:21Z</time>
      </trkpt>
      <trkpt lat="46.320131812244654" lon="8.289227988570929">
        <ele>2023</ele>
        <time>2022-02-06T11:15:25Z</time>
      </trkpt>
      <trkpt lat="46.320132985711098" lon="8.289228491485119">
        <ele>2029.0799999999999</ele>
        <time>2022-02-06T11:15:39Z</time>
      </trkpt>
      <trkpt lat="46.320132985711098" lon="8.289227988570929">
        <ele>2025.2</ele>
        <time>2022-02-06T11:15:40Z</time>
      </trkpt>
      <trkpt lat="46.320132315158844" lon="8.28922706656158">
        <ele>2023.1300000000001</ele>
        <time>2022-02-06T11:15:42Z</time>
      </trkpt>
      <trkpt lat="46.320132818073034" lon="8.289226312190294">
        <ele>2021.6300000000001</ele>
        <time>2022-02-06T11:15:48Z</time>
      </trkpt>
      <trkpt lat="46.320146564394236" lon="8.289223294705153">
        <ele>2020.9300000000001</ele>
        <time>2022-02-06T11:16:19Z</time>
      </trkpt>
      <trkpt lat="46.320152096450329" lon="8.289238046854734">
        <ele>2021.8299999999999</ele>
        <time>2022-02-06T11:16:43Z</time>
      </trkpt>
      <trkpt lat="46.320151342079043" lon="8.289247853681445">
        <ele>2022.8699999999999</ele>
        <time>2022-02-06T11:17:31Z</time>
      </trkpt>
      <trkpt lat="46.320146061480045" lon="8.289247769862413">
        <ele>2023.22</ele>
        <time>2022-02-06T11:18:25Z</time>
      </trkpt>
      <trkpt lat="46.320141283795238" lon="8.289252044633031">
        <ele>2023.4300000000001</ele>
        <time>2022-02-06T11:19:12Z</time>
      </trkpt>
      <trkpt lat="46.320137679576874" lon="8.289243662729859">
        <ele>2023.1099999999999</ele>
        <time>2022-02-06T11:19:56Z</time>
      </trkpt>
      <trkpt lat="46.320142708718777" lon="8.289234442636371">
        <ele>2023.6099999999999</ele>
        <time>2022-02-06T11:20:44Z</time>
      </trkpt>
      <trkpt lat="46.320149581879377" lon="8.289217678830028">
        <ele>2024.23</ele>
        <time>2022-02-06T11:21:33Z</time>
      </trkpt>
      <trkpt lat="46.32015067152679" lon="8.289217259734869">
        <ele>2024.0699999999999</ele>
        <time>2022-02-06T11:22:19Z</time>
      </trkpt>
      <trkpt lat="46.320150168612599" lon="8.289212565869093">
        <ele>2024.0899999999999</ele>
        <time>2022-02-06T11:23:12Z</time>
      </trkpt>
      <trkpt lat="46.32014631293714" lon="8.28921340405941">
        <ele>2023.77</ele>
        <time>2022-02-06T11:24:07Z</time>
      </trkpt>
      <trkpt lat="46.320148408412933" lon="8.289209883660078">
        <ele>2023.28</ele>
        <time>2022-02-06T11:24:56Z</time>
      </trkpt>
      <trkpt lat="46.320146145299077" lon="8.289211057126522">
        <ele>2022.55</ele>
        <time>2022-02-06T11:25:47Z</time>
      </trkpt>
      <trkpt lat="46.320145139470696" lon="8.289206530898809">
        <ele>2022.3099999999999</ele>
        <time>2022-02-06T11:26:35Z</time>
      </trkpt>
      <trkpt lat="46.320136003196239" lon="8.289216253906488">
        <ele>2022.3099999999999</ele>
        <time>2022-02-06T11:27:18Z</time>
      </trkpt>
      <trkpt lat="46.320135248824954" lon="8.289212482050061">
        <ele>2022.45</ele>
        <time>2022-02-06T11:28:03Z</time>
      </trkpt>
      <trkpt lat="46.320129297673702" lon="8.289220193400979">
        <ele>2022.22</ele>
        <time>2022-02-06T11:28:49Z</time>
      </trkpt>
      <trkpt lat="46.3201345782727" lon="8.28921583481133">
        <ele>2022.73</ele>
        <time>2022-02-06T11:29:36Z</time>
      </trkpt>
      <trkpt lat="46.320129549130797" lon="8.289207872003317">
        <ele>2022.95</ele>
        <time>2022-02-06T11:30:21Z</time>
      </trkpt>
      <trkpt lat="46.320146061480045" lon="8.289204016327858">
        <ele>2023.0599999999999</ele>
        <time>2022-02-06T11:31:08Z</time>
      </trkpt>
      <trkpt lat="46.320150922983885" lon="8.28921290114522">
        <ele>2022.8199999999999</ele>
        <time>2022-02-06T11:31:48Z</time>
      </trkpt>
      <trkpt lat="46.320144720375538" lon="8.289216756820679">
        <ele>2022.54</ele>
        <time>2022-02-06T11:32:27Z</time>
      </trkpt>
      <trkpt lat="46.320145139470696" lon="8.289217511191964">
        <ele>2022.0599999999999</ele>
        <time>2022-02-06T11:33:16Z</time>
      </trkpt>
      <trkpt lat="46.320142792537808" lon="8.289229078218341">
        <ele>2022.02</ele>
        <time>2022-02-06T11:34:14Z</time>
      </trkpt>
      <trkpt lat="46.320130135864019" lon="8.289217259734869">
        <ele>2022.76</ele>
        <time>2022-02-06T11:35:10Z</time>
      </trkpt>
      <trkpt lat="46.320140864700079" lon="8.289233688265085">
        <ele>2022.6800000000001</ele>
        <time>2022-02-06T11:35:57Z</time>
      </trkpt>
      <trkpt lat="46.320139104500413" lon="8.289245003834367">
        <ele>2022.3800000000001</ele>
        <time>2022-02-06T11:36:44Z</time>
      </trkpt>
      <trkpt lat="46.320140361785889" lon="8.289242573082447">
        <ele>2022.1199999999999</ele>
        <time>2022-02-06T11:37:30Z</time>
      </trkpt>
      <trkpt lat="46.320148492231965" lon="8.289228407666087">
        <ele>2023.77</ele>
        <time>2022-02-06T11:38:06Z</time>
      </trkpt>
      <trkpt lat="46.320156035944819" lon="8.28922807238996">
        <ele>2023.48</ele>
        <time>2022-02-06T11:38:18Z</time>
      </trkpt>
      <trkpt lat="46.320161232724786" lon="8.289229581132531">
        <ele>2023.76</ele>
        <time>2022-02-06T11:38:38Z</time>
      </trkpt>
      <trkpt lat="46.320159807801247" lon="8.289230586960912">
        <ele>2023.5</ele>
        <time>2022-02-06T11:39:03Z</time>
      </trkpt>
      <trkpt lat="46.320160226896405" lon="8.289231089875102">
        <ele>2023.3399999999999</ele>
        <time>2022-02-06T11:39:26Z</time>
      </trkpt>
      <trkpt lat="46.320168357342482" lon="8.289207117632031">
        <ele>2023.74</ele>
        <time>2022-02-06T11:39:38Z</time>
      </trkpt>
      <trkpt lat="46.320176739245653" lon="8.2892329338938">
        <ele>2023.26</ele>
        <time>2022-02-06T11:39:50Z</time>
      </trkpt>
      <trkpt lat="46.320218900218606" lon="8.289267802610993">
        <ele>2023.4100000000001</ele>
        <time>2022-02-06T11:40:00Z</time>
      </trkpt>
      <trkpt lat="46.32023373618722" lon="8.289296384900808">
        <ele>2023.45</ele>
        <time>2022-02-06T11:40:03Z</time>
      </trkpt>
      <trkpt lat="46.320241363719106" lon="8.289305940270424">
        <ele>2023.3099999999999</ele>
        <time>2022-02-06T11:40:04Z</time>
      </trkpt>
      <trkpt lat="46.320333313196898" lon="8.28949729911983">
        <ele>2021.99</ele>
        <time>2022-02-06T11:40:20Z</time>
      </trkpt>
      <trkpt lat="46.320400452241302" lon="8.289717743173242">
        <ele>2019.71</ele>
        <time>2022-02-06T11:40:36Z</time>
      </trkpt>
      <trkpt lat="46.320420149713755" lon="8.289788821712136">
        <ele>2019.3800000000001</ele>
        <time>2022-02-06T11:40:41Z</time>
      </trkpt>
      <trkpt lat="46.320422580465674" lon="8.289804076775909">
        <ele>2019.3299999999999</ele>
        <time>2022-02-06T11:40:42Z</time>
      </trkpt>
      <trkpt lat="46.320426100865006" lon="8.289819415658712">
        <ele>2019.0999999999999</ele>
        <time>2022-02-06T11:40:43Z</time>
      </trkpt>
      <trkpt lat="46.32042970508337" lon="8.289833497256041">
        <ele>2019.0599999999999</ele>
        <time>2022-02-06T11:40:44Z</time>
      </trkpt>
      <trkpt lat="46.320433225482702" lon="8.289848081767559">
        <ele>2019.0999999999999</ele>
        <time>2022-02-06T11:40:45Z</time>
      </trkpt>
      <trkpt lat="46.320456862449646" lon="8.289979929104447">
        <ele>2018.6099999999999</ele>
        <time>2022-02-06T11:40:57Z</time>
      </trkpt>
      <trkpt lat="46.320457700639963" lon="8.289993172511458">
        <ele>2018.46</ele>
        <time>2022-02-06T11:40:58Z</time>
      </trkpt>
      <trkpt lat="46.32046289741993" lon="8.290048828348517">
        <ele>2018.1700000000001</ele>
        <time>2022-02-06T11:41:02Z</time>
      </trkpt>
      <trkpt lat="46.320491395890713" lon="8.290194422006607">
        <ele>2016.98</ele>
        <time>2022-02-06T11:41:13Z</time>
      </trkpt>
      <trkpt lat="46.320503549650311" lon="8.29026198014617">
        <ele>2016.6600000000001</ele>
        <time>2022-02-06T11:41:18Z</time>
      </trkpt>
      <trkpt lat="46.320507572963834" lon="8.290274804458022">
        <ele>2016.5699999999999</ele>
        <time>2022-02-06T11:41:19Z</time>
      </trkpt>
      <trkpt lat="46.320508578792214" lon="8.290290143340826">
        <ele>2016.27</ele>
        <time>2022-02-06T11:41:20Z</time>
      </trkpt>
      <trkpt lat="46.320544620975852" lon="8.290470940992236">
        <ele>2013.1199999999999</ele>
        <time>2022-02-06T11:41:33Z</time>
      </trkpt>
      <trkpt lat="46.320581752806902" lon="8.290655175223947">
        <ele>2011.52</ele>
        <time>2022-02-06T11:41:47Z</time>
      </trkpt>
      <trkpt lat="46.320655178278685" lon="8.290795236825943">
        <ele>2011.05</ele>
        <time>2022-02-06T11:42:00Z</time>
      </trkpt>
      <trkpt lat="46.320726172998548" lon="8.290948374196887">
        <ele>2010.4200000000001</ele>
        <time>2022-02-06T11:42:13Z</time>
      </trkpt>
      <trkpt lat="46.320823905989528" lon="8.291163370013237">
        <ele>2010.6300000000001</ele>
        <time>2022-02-06T11:42:31Z</time>
      </trkpt>
      <trkpt lat="46.320908814668655" lon="8.291336288675666">
        <ele>2010.9400000000001</ele>
        <time>2022-02-06T11:42:47Z</time>
      </trkpt>
      <trkpt lat="46.320976875722408" lon="8.291466711089015">
        <ele>2010.6300000000001</ele>
        <time>2022-02-06T11:43:00Z</time>
      </trkpt>
      <trkpt lat="46.321018114686012" lon="8.291536783799529">
        <ele>2010.97</ele>
        <time>2022-02-06T11:43:09Z</time>
      </trkpt>
      <trkpt lat="46.321108723059297" lon="8.291711965575814">
        <ele>2010.8</ele>
        <time>2022-02-06T11:43:24Z</time>
      </trkpt>
      <trkpt lat="46.321191368624568" lon="8.291868288069964">
        <ele>2010.95</ele>
        <time>2022-02-06T11:43:38Z</time>
      </trkpt>
      <trkpt lat="46.321268398314714" lon="8.292029304429889">
        <ele>2011.1900000000001</ele>
        <time>2022-02-06T11:43:52Z</time>
      </trkpt>
      <trkpt lat="46.321351798251271" lon="8.292186632752419">
        <ele>2010.98</ele>
        <time>2022-02-06T11:44:06Z</time>
      </trkpt>
      <trkpt lat="46.321456823498011" lon="8.292365502566099">
        <ele>2011.3900000000001</ele>
        <time>2022-02-06T11:44:23Z</time>
      </trkpt>
      <trkpt lat="46.32153837941587" lon="8.292496260255575">
        <ele>2011.79</ele>
        <time>2022-02-06T11:44:36Z</time>
      </trkpt>
      <trkpt lat="46.321614654734731" lon="8.292622156441212">
        <ele>2012.28</ele>
        <time>2022-02-06T11:44:50Z</time>
      </trkpt>
      <trkpt lat="46.321634352207184" lon="8.292684685438871">
        <ele>2012.98</ele>
        <time>2022-02-06T11:45:03Z</time>
      </trkpt>
      <trkpt lat="46.321646673604846" lon="8.292704550549388">
        <ele>2012.96</ele>
        <time>2022-02-06T11:45:15Z</time>
      </trkpt>
      <trkpt lat="46.321742227301002" lon="8.292853580787778">
        <ele>2013.97</ele>
        <time>2022-02-06T11:45:30Z</time>
      </trkpt>
      <trkpt lat="46.321804085746408" lon="8.292953912168741">
        <ele>2015</ele>
        <time>2022-02-06T11:45:40Z</time>
      </trkpt>
      <trkpt lat="46.321883043274283" lon="8.293102188035846">
        <ele>2016.0599999999999</ele>
        <time>2022-02-06T11:45:54Z</time>
      </trkpt>
      <trkpt lat="46.321944817900658" lon="8.293175110593438">
        <ele>2016.8499999999999</ele>
        <time>2022-02-06T11:46:06Z</time>
      </trkpt>
      <trkpt lat="46.322000725194812" lon="8.293246356770396">
        <ele>2017.1300000000001</ele>
        <time>2022-02-06T11:46:18Z</time>
      </trkpt>
      <trkpt lat="46.322046909481287" lon="8.293304778635502">
        <ele>2017.3599999999999</ele>
        <time>2022-02-06T11:46:29Z</time>
      </trkpt>
      <trkpt lat="46.322083622217178" lon="8.293363116681576">
        <ele>2017.48</ele>
        <time>2022-02-06T11:46:38Z</time>
      </trkpt>
      <trkpt lat="46.322129471227527" lon="8.293430088087916">
        <ele>2018.01</ele>
        <time>2022-02-06T11:46:49Z</time>
      </trkpt>
      <trkpt lat="46.322170123457909" lon="8.293481888249517">
        <ele>2019.05</ele>
        <time>2022-02-06T11:47:02Z</time>
      </trkpt>
      <trkpt lat="46.322234664112329" lon="8.293543327599764">
        <ele>2020.79</ele>
        <time>2022-02-06T11:47:15Z</time>
      </trkpt>
      <trkpt lat="46.32227623835206" lon="8.293584985658526">
        <ele>2020.8800000000001</ele>
        <time>2022-02-06T11:47:27Z</time>
      </trkpt>
      <trkpt lat="46.322293505072594" lon="8.293606108054519">
        <ele>2021.75</ele>
        <time>2022-02-06T11:47:40Z</time>
      </trkpt>
      <trkpt lat="46.322354441508651" lon="8.293648939579725">
        <ele>2022.3800000000001</ele>
        <time>2022-02-06T11:47:56Z</time>
      </trkpt>
      <trkpt lat="46.322420239448547" lon="8.293714486062527">
        <ele>2024.0799999999999</ele>
        <time>2022-02-06T11:48:10Z</time>
      </trkpt>
      <trkpt lat="46.322455946356058" lon="8.293760335072875">
        <ele>2024.7</ele>
        <time>2022-02-06T11:48:24Z</time>
      </trkpt>
      <trkpt lat="46.322502214461565" lon="8.293844405561686">
        <ele>2026.5799999999999</ele>
        <time>2022-02-06T11:48:38Z</time>
      </trkpt>
      <trkpt lat="46.322555774822831" lon="8.293900480493903">
        <ele>2028.4300000000001</ele>
        <time>2022-02-06T11:48:51Z</time>
      </trkpt>
      <trkpt lat="46.322581423446536" lon="8.293947922065854">
        <ele>2029.8299999999999</ele>
        <time>2022-02-06T11:49:02Z</time>
      </trkpt>
      <trkpt lat="46.322615621611476" lon="8.294011875987053">
        <ele>2031.03</ele>
        <time>2022-02-06T11:49:14Z</time>
      </trkpt>
      <trkpt lat="46.322616711258888" lon="8.294022185727954">
        <ele>2031.28</ele>
        <time>2022-02-06T11:49:25Z</time>
      </trkpt>
      <trkpt lat="46.322610257193446" lon="8.294029142707586">
        <ele>2031.52</ele>
        <time>2022-02-06T11:49:46Z</time>
      </trkpt>
      <trkpt lat="46.322634229436517" lon="8.29407817684114">
        <ele>2032.23</ele>
        <time>2022-02-06T11:50:05Z</time>
      </trkpt>
      <trkpt lat="46.322677228599787" lon="8.29416518099606">
        <ele>2034.03</ele>
        <time>2022-02-06T11:50:22Z</time>
      </trkpt>
      <trkpt lat="46.322677480056882" lon="8.294157469645143">
        <ele>2033.8299999999999</ele>
        <time>2022-02-06T11:50:44Z</time>
      </trkpt>
      <trkpt lat="46.322676474228501" lon="8.294163504615426">
        <ele>2034.1600000000001</ele>
        <time>2022-02-06T11:50:57Z</time>
      </trkpt>
      <trkpt lat="46.322709247469902" lon="8.294229973107576">
        <ele>2035.6600000000001</ele>
        <time>2022-02-06T11:51:11Z</time>
      </trkpt>
      <trkpt lat="46.322729615494609" lon="8.294253526255488">
        <ele>2036.49</ele>
        <time>2022-02-06T11:51:28Z</time>
      </trkpt>
      <trkpt lat="46.322780828922987" lon="8.294344637542963">
        <ele>2038.6500000000001</ele>
        <time>2022-02-06T11:51:41Z</time>
      </trkpt>
      <trkpt lat="46.322819218039513" lon="8.294447399675846">
        <ele>2040.71</ele>
        <time>2022-02-06T11:51:54Z</time>
      </trkpt>
      <trkpt lat="46.322865234687924" lon="8.294523088261485">
        <ele>2042.79</ele>
        <time>2022-02-06T11:52:07Z</time>
      </trkpt>
      <trkpt lat="46.322901360690594" lon="8.294619647786021">
        <ele>2043.96</ele>
        <time>2022-02-06T11:52:18Z</time>
      </trkpt>
      <trkpt lat="46.322930697351694" lon="8.294718386605382">
        <ele>2046.01</ele>
        <time>2022-02-06T11:52:31Z</time>
      </trkpt>
      <trkpt lat="46.322949221357703" lon="8.294772282242775">
        <ele>2047.0699999999999</ele>
        <time>2022-02-06T11:52:42Z</time>
      </trkpt>
      <trkpt lat="46.322949305176735" lon="8.294769013300538">
        <ele>2047</ele>
        <time>2022-02-06T11:52:58Z</time>
      </trkpt>
      <trkpt lat="46.322943437844515" lon="8.29477152787149">
        <ele>2046.53</ele>
        <time>2022-02-06T11:53:18Z</time>
      </trkpt>
      <trkpt lat="46.322972271591425" lon="8.294830871745944">
        <ele>2047.6700000000001</ele>
        <time>2022-02-06T11:53:35Z</time>
      </trkpt>
      <trkpt lat="46.323020132258534" lon="8.294820478186011">
        <ele>2049.1300000000001</ele>
        <time>2022-02-06T11:53:46Z</time>
      </trkpt>
      <trkpt lat="46.323086014017463" lon="8.294810503721237">
        <ele>2050.5700000000002</ele>
        <time>2022-02-06T11:53:58Z</time>
      </trkpt>
      <trkpt lat="46.323145693168044" lon="8.294818801805377">
        <ele>2052.48</ele>
        <time>2022-02-06T11:54:10Z</time>
      </trkpt>
      <trkpt lat="46.323192967101932" lon="8.294827183708549">
        <ele>2054.3000000000002</ele>
        <time>2022-02-06T11:54:21Z</time>
      </trkpt>
      <trkpt lat="46.323202857747674" lon="8.294816622510552">
        <ele>2054.8099999999999</ele>
        <time>2022-02-06T11:54:35Z</time>
      </trkpt>
      <trkpt lat="46.323202773928642" lon="8.294819807633758">
        <ele>2055.1399999999999</ele>
        <time>2022-02-06T11:54:51Z</time>
      </trkpt>
      <trkpt lat="46.323202438652515" lon="8.294819807633758">
        <ele>2055.52</ele>
        <time>2022-02-06T11:55:09Z</time>
      </trkpt>
      <trkpt lat="46.323242923244834" lon="8.294792314991355">
        <ele>2056.98</ele>
        <time>2022-02-06T11:55:28Z</time>
      </trkpt>
      <trkpt lat="46.323309559375048" lon="8.294912427663803">
        <ele>2059.25</ele>
        <time>2022-02-06T11:55:40Z</time>
      </trkpt>
      <trkpt lat="46.323424391448498" lon="8.295053159818053">
        <ele>2061.0700000000002</ele>
        <time>2022-02-06T11:55:56Z</time>
      </trkpt>
      <trkpt lat="46.323470491915941" lon="8.295106803998351">
        <ele>2061.4499999999998</ele>
        <time>2022-02-06T11:56:10Z</time>
      </trkpt>
      <trkpt lat="46.323567554354668" lon="8.295233622193337">
        <ele>2062.3000000000002</ele>
        <time>2022-02-06T11:56:24Z</time>
      </trkpt>
      <trkpt lat="46.323670987039804" lon="8.295362535864115">
        <ele>2062.04</ele>
        <time>2022-02-06T11:56:38Z</time>
      </trkpt>
      <trkpt lat="46.323735862970352" lon="8.295462364330888">
        <ele>2062.6399999999999</ele>
        <time>2022-02-06T11:56:49Z</time>
      </trkpt>
      <trkpt lat="46.323808114975691" lon="8.295600162819028">
        <ele>2061.6500000000001</ele>
        <time>2022-02-06T11:57:02Z</time>
      </trkpt>
      <trkpt lat="46.323879947885871" lon="8.295671660453081">
        <ele>2062.1799999999998</ele>
        <time>2022-02-06T11:57:13Z</time>
      </trkpt>
      <trkpt lat="46.323893945664167" lon="8.295686831697822">
        <ele>2062.4899999999998</ele>
        <time>2022-02-06T11:57:26Z</time>
      </trkpt>
      <trkpt lat="46.323896627873182" lon="8.295680545270443">
        <ele>2062.21</ele>
        <time>2022-02-06T11:57:44Z</time>
      </trkpt>
      <trkpt lat="46.323894448578358" lon="8.295679036527872">
        <ele>2061.6799999999998</ele>
        <time>2022-02-06T11:58:08Z</time>
      </trkpt>
      <trkpt lat="46.323890760540962" lon="8.295683981850743">
        <ele>2061.3200000000002</ele>
        <time>2022-02-06T11:58:27Z</time>
      </trkpt>
      <trkpt lat="46.323888748884201" lon="8.295684233307838">
        <ele>2060.7199999999998</ele>
        <time>2022-02-06T11:58:52Z</time>
      </trkpt>
      <trkpt lat="46.323889419436455" lon="8.295682305470109">
        <ele>2060.4400000000001</ele>
        <time>2022-02-06T11:59:13Z</time>
      </trkpt>
      <trkpt lat="46.323894532397389" lon="8.295692782849073">
        <ele>2060.7199999999998</ele>
        <time>2022-02-06T11:59:32Z</time>
      </trkpt>
      <trkpt lat="46.32388036698103" lon="8.295720024034381">
        <ele>2061.1900000000001</ele>
        <time>2022-02-06T11:59:55Z</time>
      </trkpt>
      <trkpt lat="46.32392629981041" lon="8.295738296583295">
        <ele>2061.3099999999999</ele>
        <time>2022-02-06T12:00:11Z</time>
      </trkpt>
      <trkpt lat="46.323942560702562" lon="8.295746762305498">
        <ele>2061.52</ele>
        <time>2022-02-06T12:00:13Z</time>
      </trkpt>
      <trkpt lat="46.324041970074177" lon="8.295793198049069">
        <ele>2061.9200000000001</ele>
        <time>2022-02-06T12:00:24Z</time>
      </trkpt>
      <trkpt lat="46.32413106970489" lon="8.295754138380289">
        <ele>2059.3899999999999</ele>
        <time>2022-02-06T12:00:39Z</time>
      </trkpt>
      <trkpt lat="46.324215140193701" lon="8.295759167522192">
        <ele>2056.25</ele>
        <time>2022-02-06T12:00:48Z</time>
      </trkpt>
      <trkpt lat="46.324224025011063" lon="8.295762604102492">
        <ele>2056.3400000000001</ele>
        <time>2022-02-06T12:00:49Z</time>
      </trkpt>
      <trkpt lat="46.324300551787019" lon="8.295771321281791">
        <ele>2054.4699999999998</ele>
        <time>2022-02-06T12:01:02Z</time>
      </trkpt>
      <trkpt lat="46.324344053864479" lon="8.295780289918184">
        <ele>2052.9299999999998</ele>
        <time>2022-02-06T12:01:14Z</time>
      </trkpt>
      <trkpt lat="46.324384286999702" lon="8.295797472819686">
        <ele>2053.77</ele>
        <time>2022-02-06T12:01:24Z</time>
      </trkpt>
      <trkpt lat="46.324430555105209" lon="8.295794036239386">
        <ele>2050.71</ele>
        <time>2022-02-06T12:01:32Z</time>
      </trkpt>
      <trkpt lat="46.324493000283837" lon="8.295794203877449">
        <ele>2048.96</ele>
        <time>2022-02-06T12:01:44Z</time>
      </trkpt>
      <trkpt lat="46.324562486261129" lon="8.295783810317516">
        <ele>2047.26</ele>
        <time>2022-02-06T12:01:55Z</time>
      </trkpt>
      <trkpt lat="46.324634905904531" lon="8.295746929943562">
        <ele>2045.8399999999999</ele>
        <time>2022-02-06T12:02:07Z</time>
      </trkpt>
      <trkpt lat="46.324643287807703" lon="8.295734943822026">
        <ele>2045.8399999999999</ele>
        <time>2022-02-06T12:02:19Z</time>
      </trkpt>
      <trkpt lat="46.324784522876143" lon="8.295654729008675">
        <ele>2045.0699999999999</ele>
        <time>2022-02-06T12:02:34Z</time>
      </trkpt>
      <trkpt lat="46.32485032081604" lon="8.295609969645739">
        <ele>2044</ele>
        <time>2022-02-06T12:02:46Z</time>
      </trkpt>
      <trkpt lat="46.324848895892501" lon="8.295597899705172">
        <ele>2043.74</ele>
        <time>2022-02-06T12:03:09Z</time>
      </trkpt>
      <trkpt lat="46.32484789006412" lon="8.295616088435054">
        <ele>2043.8599999999999</ele>
        <time>2022-02-06T12:03:22Z</time>
      </trkpt>
      <trkpt lat="46.324854344129562" lon="8.295616423711181">
        <ele>2043.5599999999999</ele>
        <time>2022-02-06T12:03:38Z</time>
      </trkpt>
      <trkpt lat="46.324858870357275" lon="8.295598654076457">
        <ele>2043.21</ele>
        <time>2022-02-06T12:03:58Z</time>
      </trkpt>
      <trkpt lat="46.324867168441415" lon="8.295594127848744">
        <ele>2043.3399999999999</ele>
        <time>2022-02-06T12:04:23Z</time>
      </trkpt>
      <trkpt lat="46.324853170663118" lon="8.295596390962601">
        <ele>2043.4200000000001</ele>
        <time>2022-02-06T12:04:36Z</time>
      </trkpt>
      <trkpt lat="46.324860127642751" lon="8.29561592079699">
        <ele>2043.3699999999999</ele>
        <time>2022-02-06T12:04:52Z</time>
      </trkpt>
      <trkpt lat="46.325001446530223" lon="8.295626230537891">
        <ele>2043.75</ele>
        <time>2022-02-06T12:05:07Z</time>
      </trkpt>
      <trkpt lat="46.325113931670785" lon="8.295615753158927">
        <ele>2042.76</ele>
        <time>2022-02-06T12:05:18Z</time>
      </trkpt>
      <trkpt lat="46.325313840061426" lon="8.295635199174285">
        <ele>2041.25</ele>
        <time>2022-02-06T12:05:34Z</time>
      </trkpt>
      <trkpt lat="46.325466809794307" lon="8.295635785907507">
        <ele>2039.3299999999999</ele>
        <time>2022-02-06T12:05:48Z</time>
      </trkpt>
      <trkpt lat="46.325558088719845" lon="8.295643497258425">
        <ele>2036.98</ele>
        <time>2022-02-06T12:06:01Z</time>
      </trkpt>
      <trkpt lat="46.325649283826351" lon="8.295646095648408">
        <ele>2035.79</ele>
        <time>2022-02-06T12:06:14Z</time>
      </trkpt>
      <trkpt lat="46.325652301311493" lon="8.295648526400328">
        <ele>2035.6600000000001</ele>
        <time>2022-02-06T12:06:44Z</time>
      </trkpt>
      <trkpt lat="46.325665628537536" lon="8.295650538057089">
        <ele>2035.4400000000001</ele>
        <time>2022-02-06T12:06:46Z</time>
      </trkpt>
      <trkpt lat="46.325684487819672" lon="8.295652968809009">
        <ele>2035.3299999999999</ele>
        <time>2022-02-06T12:06:48Z</time>
      </trkpt>
      <trkpt lat="46.325804349035025" lon="8.295655567198992">
        <ele>2034.79</ele>
        <time>2022-02-06T12:07:01Z</time>
      </trkpt>
      <trkpt lat="46.325925886631012" lon="8.295695129781961">
        <ele>2033.5</ele>
        <time>2022-02-06T12:07:15Z</time>
      </trkpt>
      <trkpt lat="46.326028816401958" lon="8.295740727335215">
        <ele>2032.23</ele>
        <time>2022-02-06T12:07:28Z</time>
      </trkpt>
      <trkpt lat="46.326071312651038" lon="8.295694207772613">
        <ele>2030.79</ele>
        <time>2022-02-06T12:07:42Z</time>
      </trkpt>
      <trkpt lat="46.326083717867732" lon="8.295688088983297">
        <ele>2029.74</ele>
        <time>2022-02-06T12:07:53Z</time>
      </trkpt>
      <trkpt lat="46.326102241873741" lon="8.295708037912846">
        <ele>2029.96</ele>
        <time>2022-02-06T12:08:04Z</time>
      </trkpt>
      <trkpt lat="46.326126214116812" lon="8.295712815597653">
        <ele>2029.71</ele>
        <time>2022-02-06T12:08:06Z</time>
      </trkpt>
      <trkpt lat="46.326272813603282" lon="8.295722287148237">
        <ele>2027.5599999999999</ele>
        <time>2022-02-06T12:08:23Z</time>
      </trkpt>
      <trkpt lat="46.326323859393597" lon="8.295700326561928">
        <ele>2026.73</ele>
        <time>2022-02-06T12:08:33Z</time>
      </trkpt>
      <trkpt lat="46.326418491080403" lon="8.29565548337996">
        <ele>2023.6800000000001</ele>
        <time>2022-02-06T12:08:46Z</time>
      </trkpt>
      <trkpt lat="46.326469453051686" lon="8.295606784522533">
        <ele>2022.53</ele>
        <time>2022-02-06T12:08:55Z</time>
      </trkpt>
      <trkpt lat="46.326492168009281" lon="8.295578034594655">
        <ele>2021.9300000000001</ele>
        <time>2022-02-06T12:08:58Z</time>
      </trkpt>
      <trkpt lat="46.326657710596919" lon="8.295529503375292">
        <ele>2020.0699999999999</ele>
        <time>2022-02-06T12:09:14Z</time>
      </trkpt>
      <trkpt lat="46.326813697814941" lon="8.295590355992317">
        <ele>2019.4000000000001</ele>
        <time>2022-02-06T12:09:29Z</time>
      </trkpt>
      <trkpt lat="46.326921489089727" lon="8.295651040971279">
        <ele>2019.24</ele>
        <time>2022-02-06T12:09:42Z</time>
      </trkpt>
      <trkpt lat="46.327039925381541" lon="8.295692782849073">
        <ele>2018.8299999999999</ele>
        <time>2022-02-06T12:09:57Z</time>
      </trkpt>
      <trkpt lat="46.327130449935794" lon="8.295731171965599">
        <ele>2018.9100000000001</ele>
        <time>2022-02-06T12:10:09Z</time>
      </trkpt>
      <trkpt lat="46.327228769659996" lon="8.295772075653076">
        <ele>2018.76</ele>
        <time>2022-02-06T12:10:23Z</time>
      </trkpt>
      <trkpt lat="46.327325580641627" lon="8.295800406485796">
        <ele>2018.3299999999999</ele>
        <time>2022-02-06T12:10:35Z</time>
      </trkpt>
      <trkpt lat="46.327439406886697" lon="8.295848937705159">
        <ele>2017.98</ele>
        <time>2022-02-06T12:10:49Z</time>
      </trkpt>
      <trkpt lat="46.327525405213237" lon="8.295884560793638">
        <ele>2017.5999999999999</ele>
        <time>2022-02-06T12:11:00Z</time>
      </trkpt>
      <trkpt lat="46.32761157117784" lon="8.295909287407994">
        <ele>2017.6900000000001</ele>
        <time>2022-02-06T12:11:12Z</time>
      </trkpt>
      <trkpt lat="46.327700922265649" lon="8.295936780050397">
        <ele>2017.3699999999999</ele>
        <time>2022-02-06T12:11:25Z</time>
      </trkpt>
      <trkpt lat="46.327784992754459" lon="8.295978521928191">
        <ele>2017.05</ele>
        <time>2022-02-06T12:11:37Z</time>
      </trkpt>
      <trkpt lat="46.327893370762467" lon="8.296024538576603">
        <ele>2017.3699999999999</ele>
        <time>2022-02-06T12:11:51Z</time>
      </trkpt>
      <trkpt lat="46.327989930287004" lon="8.29605077393353">
        <ele>2017.3599999999999</ele>
        <time>2022-02-06T12:12:04Z</time>
      </trkpt>
      <trkpt lat="46.328094368800521" lon="8.296075835824013">
        <ele>2017.76</ele>
        <time>2022-02-06T12:12:18Z</time>
      </trkpt>
      <trkpt lat="46.328195035457611" lon="8.296091593801975">
        <ele>2017.73</ele>
        <time>2022-02-06T12:12:31Z</time>
      </trkpt>
      <trkpt lat="46.328299641609192" lon="8.296093856915832">
        <ele>2018.03</ele>
        <time>2022-02-06T12:12:44Z</time>
      </trkpt>
      <trkpt lat="46.328416652977467" lon="8.296076422557235">
        <ele>2018.1199999999999</ele>
        <time>2022-02-06T12:12:59Z</time>
      </trkpt>
      <trkpt lat="46.328527042642236" lon="8.296060496941209">
        <ele>2018.6900000000001</ele>
        <time>2022-02-06T12:13:13Z</time>
      </trkpt>
      <trkpt lat="46.328624859452248" lon="8.29604440368712">
        <ele>2018.99</ele>
        <time>2022-02-06T12:13:25Z</time>
      </trkpt>
      <trkpt lat="46.32872317917645" lon="8.296017162501812">
        <ele>2019.0899999999999</ele>
        <time>2022-02-06T12:13:38Z</time>
      </trkpt>
      <trkpt lat="46.328827869147062" lon="8.29597894102335">
        <ele>2018.8900000000001</ele>
        <time>2022-02-06T12:13:52Z</time>
      </trkpt>
      <trkpt lat="46.328843543305993" lon="8.295986149460077">
        <ele>2019.1800000000001</ele>
        <time>2022-02-06T12:14:03Z</time>
      </trkpt>
      <trkpt lat="46.328876651823521" lon="8.29595941118896">
        <ele>2019</ele>
        <time>2022-02-06T12:14:09Z</time>
      </trkpt>
      <trkpt lat="46.328995507210493" lon="8.295954382047057">
        <ele>2019.24</ele>
        <time>2022-02-06T12:14:23Z</time>
      </trkpt>
      <trkpt lat="46.3290452118963" lon="8.295981455594301">
        <ele>2020.5899999999999</ele>
        <time>2022-02-06T12:14:36Z</time>
      </trkpt>
      <trkpt lat="46.329025933519006" lon="8.295978354290128">
        <ele>2020.6500000000001</ele>
        <time>2022-02-06T12:14:56Z</time>
      </trkpt>
      <trkpt lat="46.329020736739039" lon="8.295990088954568">
        <ele>2019.6900000000001</ele>
        <time>2022-02-06T12:15:10Z</time>
      </trkpt>
      <trkpt lat="46.329014785587788" lon="8.295999644324184">
        <ele>2019.97</ele>
        <time>2022-02-06T12:15:34Z</time>
      </trkpt>
      <trkpt lat="46.329018641263247" lon="8.295999309048057">
        <ele>2020.6400000000001</ele>
        <time>2022-02-06T12:16:04Z</time>
      </trkpt>
      <trkpt lat="46.329018892720342" lon="8.295988831669092">
        <ele>2019.6800000000001</ele>
        <time>2022-02-06T12:16:23Z</time>
      </trkpt>
      <trkpt lat="46.329020904377103" lon="8.295994950458407">
        <ele>2019.77</ele>
        <time>2022-02-06T12:17:04Z</time>
      </trkpt>
      <trkpt lat="46.329021407291293" lon="8.295998387038708">
        <ele>2020.49</ele>
        <time>2022-02-06T12:17:46Z</time>
      </trkpt>
      <trkpt lat="46.329020904377103" lon="8.295998303219676">
        <ele>2021.21</ele>
        <time>2022-02-06T12:18:31Z</time>
      </trkpt>
      <trkpt lat="46.329021491110325" lon="8.296011378988624">
        <ele>2020.8699999999999</ele>
        <time>2022-02-06T12:19:06Z</time>
      </trkpt>
      <trkpt lat="46.329015707597136" lon="8.296013474464417">
        <ele>2020.8399999999999</ele>
        <time>2022-02-06T12:19:31Z</time>
      </trkpt>
      <trkpt lat="46.329017216339707" lon="8.295994363725185">
        <ele>2021.04</ele>
        <time>2022-02-06T12:20:02Z</time>
      </trkpt>
      <trkpt lat="46.329009672626853" lon="8.295980952680111">
        <ele>2020.5999999999999</ele>
        <time>2022-02-06T12:20:41Z</time>
      </trkpt>
      <trkpt lat="46.329011935740709" lon="8.295975839719176">
        <ele>2020.51</ele>
        <time>2022-02-06T12:21:31Z</time>
      </trkpt>
      <trkpt lat="46.329009840264916" lon="8.295973995700479">
        <ele>2019.51</ele>
        <time>2022-02-06T12:22:23Z</time>
      </trkpt>
      <trkpt lat="46.329018222168088" lon="8.295980365946889">
        <ele>2020.0899999999999</ele>
        <time>2022-02-06T12:23:10Z</time>
      </trkpt>
      <trkpt lat="46.329004559665918" lon="8.29599117860198">
        <ele>2020.9000000000001</ele>
        <time>2022-02-06T12:23:49Z</time>
      </trkpt>
      <trkpt lat="46.329012773931026" lon="8.295992352068424">
        <ele>2020.4300000000001</ele>
        <time>2022-02-06T12:24:25Z</time>
      </trkpt>
      <trkpt lat="46.329017551615834" lon="8.295981204137206">
        <ele>2019.4200000000001</ele>
        <time>2022-02-06T12:25:07Z</time>
      </trkpt>
      <trkpt lat="46.329018892720342" lon="8.295984556898475">
        <ele>2018.78</ele>
        <time>2022-02-06T12:25:47Z</time>
      </trkpt>
      <trkpt lat="46.329020904377103" lon="8.295983886346221">
        <ele>2019.01</ele>
        <time>2022-02-06T12:26:31Z</time>
      </trkpt>
      <trkpt lat="46.329027777537704" lon="8.295980785042048">
        <ele>2019.26</ele>
        <time>2022-02-06T12:27:11Z</time>
      </trkpt>
      <trkpt lat="46.329022916033864" lon="8.295980198308826">
        <ele>2020.51</ele>
        <time>2022-02-06T12:27:59Z</time>
      </trkpt>
      <trkpt lat="46.329020401462913" lon="8.295990591868758">
        <ele>2021.1500000000001</ele>
        <time>2022-02-06T12:28:45Z</time>
      </trkpt>
      <trkpt lat="46.329023586586118" lon="8.295989250764251">
        <ele>2021.23</ele>
        <time>2022-02-06T12:29:39Z</time>
      </trkpt>
      <trkpt lat="46.329026017338037" lon="8.295981623232365">
        <ele>2021.5799999999999</ele>
        <time>2022-02-06T12:30:33Z</time>
      </trkpt>
      <trkpt lat="46.329030878841877" lon="8.295991681516171">
        <ele>2022.8199999999999</ele>
        <time>2022-02-06T12:31:30Z</time>
      </trkpt>
      <trkpt lat="46.329024089500308" lon="8.295992771163583">
        <ele>2021.5599999999999</ele>
        <time>2022-02-06T12:32:33Z</time>
      </trkpt>
      <trkpt lat="46.329019060358405" lon="8.295996123924851">
        <ele>2020.25</ele>
        <time>2022-02-06T12:33:31Z</time>
      </trkpt>
      <trkpt lat="46.329020066186786" lon="8.295992603525519">
        <ele>2020.24</ele>
        <time>2022-02-06T12:34:21Z</time>
      </trkpt>
      <trkpt lat="46.32901394739747" lon="8.295996123924851">
        <ele>2020.71</ele>
        <time>2022-02-06T12:35:07Z</time>
      </trkpt>
      <trkpt lat="46.329012019559741" lon="8.295995621010661">
        <ele>2021.04</ele>
        <time>2022-02-06T12:35:59Z</time>
      </trkpt>
      <trkpt lat="46.329017216339707" lon="8.296001991257072">
        <ele>2021.5599999999999</ele>
        <time>2022-02-06T12:36:45Z</time>
      </trkpt>
      <trkpt lat="46.329018389806151" lon="8.29601020552218">
        <ele>2021.28</ele>
        <time>2022-02-06T12:37:31Z</time>
      </trkpt>
      <trkpt lat="46.32901880890131" lon="8.296016408130527">
        <ele>2020.9000000000001</ele>
        <time>2022-02-06T12:38:11Z</time>
      </trkpt>
      <trkpt lat="46.329016461968422" lon="8.296004924923182">
        <ele>2020.8399999999999</ele>
        <time>2022-02-06T12:38:51Z</time>
      </trkpt>
      <trkpt lat="46.329022329300642" lon="8.295995788648725">
        <ele>2021.71</ele>
        <time>2022-02-06T12:39:30Z</time>
      </trkpt>
      <trkpt lat="46.329020066186786" lon="8.295986903831363">
        <ele>2021.51</ele>
        <time>2022-02-06T12:40:10Z</time>
      </trkpt>
      <trkpt lat="46.329023418948054" lon="8.29597701318562">
        <ele>2020.51</ele>
        <time>2022-02-06T12:40:52Z</time>
      </trkpt>
      <trkpt lat="46.329032555222511" lon="8.29597357660532">
        <ele>2020.1700000000001</ele>
        <time>2022-02-06T12:41:36Z</time>
      </trkpt>
      <trkpt lat="46.329036997631192" lon="8.295951783657074">
        <ele>2019.76</ele>
        <time>2022-02-06T12:42:20Z</time>
      </trkpt>
      <trkpt lat="46.329039931297302" lon="8.295963937416673">
        <ele>2020.9400000000001</ele>
        <time>2022-02-06T12:43:08Z</time>
      </trkpt>
      <trkpt lat="46.329030962660909" lon="8.295979863032699">
        <ele>2021.0899999999999</ele>
        <time>2022-02-06T12:43:53Z</time>
      </trkpt>
      <trkpt lat="46.329026604071259" lon="8.295979779213667">
        <ele>2020.1199999999999</ele>
        <time>2022-02-06T12:44:39Z</time>
      </trkpt>
      <trkpt lat="46.329027023166418" lon="8.295993944630027">
        <ele>2021.8399999999999</ele>
        <time>2022-02-06T12:45:31Z</time>
      </trkpt>
      <trkpt lat="46.3290193118155" lon="8.296004673466086">
        <ele>2023.0999999999999</ele>
        <time>2022-02-06T12:46:24Z</time>
      </trkpt>
      <trkpt lat="46.329015037044883" lon="8.296015318483114">
        <ele>2022.3599999999999</ele>
        <time>2022-02-06T12:47:19Z</time>
      </trkpt>
      <trkpt lat="46.329019563272595" lon="8.296010456979275">
        <ele>2020.9400000000001</ele>
        <time>2022-02-06T12:48:11Z</time>
      </trkpt>
      <trkpt lat="46.329022664576769" lon="8.296010624617338">
        <ele>2021.1800000000001</ele>
        <time>2022-02-06T12:49:03Z</time>
      </trkpt>
      <trkpt lat="46.329022496938705" lon="8.296017749235034">
        <ele>2021.2</ele>
        <time>2022-02-06T12:49:58Z</time>
      </trkpt>
      <trkpt lat="46.329025430604815" lon="8.296013390645385">
        <ele>2019.8399999999999</ele>
        <time>2022-02-06T12:50:49Z</time>
      </trkpt>
      <trkpt lat="46.329035488888621" lon="8.296005176380277">
        <ele>2019.72</ele>
        <time>2022-02-06T12:51:09Z</time>
      </trkpt>
      <trkpt lat="46.329022077843547" lon="8.296008361503482">
        <ele>2019.5599999999999</ele>
        <time>2022-02-06T12:51:22Z</time>
      </trkpt>
      <trkpt lat="46.329036494717002" lon="8.29600777477026">
        <ele>2020.3</ele>
        <time>2022-02-06T12:51:58Z</time>
      </trkpt>
      <trkpt lat="46.329027023166418" lon="8.29601313918829">
        <ele>2020.8499999999999</ele>
        <time>2022-02-06T12:52:10Z</time>
      </trkpt>
      <trkpt lat="46.329031381756067" lon="8.296009954065085">
        <ele>2021.76</ele>
        <time>2022-02-06T12:52:29Z</time>
      </trkpt>
      <trkpt lat="46.329020066186786" lon="8.296004170551896">
        <ele>2021.77</ele>
        <time>2022-02-06T12:52:42Z</time>
      </trkpt>
      <trkpt lat="46.329033561050892" lon="8.295997213572264">
        <ele>2021.5699999999999</ele>
        <time>2022-02-06T12:52:54Z</time>
      </trkpt>
      <trkpt lat="46.329026017338037" lon="8.29599897377193">
        <ele>2021.54</ele>
        <time>2022-02-06T12:53:02Z</time>
      </trkpt>
      <trkpt lat="46.329043032601476" lon="8.295993441715837">
        <ele>2020.9200000000001</ele>
        <time>2022-02-06T12:53:25Z</time>
      </trkpt>
      <trkpt lat="46.32905007340014" lon="8.295989837497473">
        <ele>2020.8099999999999</ele>
        <time>2022-02-06T12:53:46Z</time>
      </trkpt>
      <trkpt lat="46.329055018723011" lon="8.295986317098141">
        <ele>2021.01</ele>
        <time>2022-02-06T12:53:58Z</time>
      </trkpt>
      <trkpt lat="46.329052085056901" lon="8.295986400917172">
        <ele>2021.01</ele>
        <time>2022-02-06T12:54:05Z</time>
      </trkpt>
      <trkpt lat="46.329037835821509" lon="8.295990843325853">
        <ele>2020.9300000000001</ele>
        <time>2022-02-06T12:54:18Z</time>
      </trkpt>
      <trkpt lat="46.329040266573429" lon="8.295989083126187">
        <ele>2020.72</ele>
        <time>2022-02-06T12:54:25Z</time>
      </trkpt>
      <trkpt lat="46.329029286280274" lon="8.296001069247723">
        <ele>2020.4200000000001</ele>
        <time>2022-02-06T12:54:38Z</time>
      </trkpt>
      <trkpt lat="46.329033812507987" lon="8.295995621010661">
        <ele>2019.9000000000001</ele>
        <time>2022-02-06T12:54:57Z</time>
      </trkpt>
      <trkpt lat="46.329030962660909" lon="8.295997381210327">
        <ele>2019.6400000000001</ele>
        <time>2022-02-06T12:55:09Z</time>
      </trkpt>
      <trkpt lat="46.329020401462913" lon="8.295999141409993">
        <ele>2019.2</ele>
        <time>2022-02-06T12:55:46Z</time>
      </trkpt>
      <trkpt lat="46.329030124470592" lon="8.295999057590962">
        <ele>2019.5</ele>
        <time>2022-02-06T12:55:54Z</time>
      </trkpt>
      <trkpt lat="46.329019227996469" lon="8.29599897377193">
        <ele>2019.5699999999999</ele>
        <time>2022-02-06T12:56:06Z</time>
      </trkpt>
      <trkpt lat="46.329028867185116" lon="8.296000147238374">
        <ele>2019.79</ele>
        <time>2022-02-06T12:56:14Z</time>
      </trkpt>
      <trkpt lat="46.329032303765416" lon="8.29600291326642">
        <ele>2021.54</ele>
        <time>2022-02-06T12:57:07Z</time>
      </trkpt>
      <trkpt lat="46.329034315422177" lon="8.295986903831363">
        <ele>2022.3099999999999</ele>
        <time>2022-02-06T12:57:56Z</time>
      </trkpt>
      <trkpt lat="46.329040350392461" lon="8.295975839719176">
        <ele>2022.8199999999999</ele>
        <time>2022-02-06T12:58:41Z</time>
      </trkpt>
      <trkpt lat="46.32905007340014" lon="8.295964859426022">
        <ele>2022.03</ele>
        <time>2022-02-06T12:59:26Z</time>
      </trkpt>
      <trkpt lat="46.329047391191125" lon="8.295975252985954">
        <ele>2020.5999999999999</ele>
        <time>2022-02-06T13:00:03Z</time>
      </trkpt>
      <trkpt lat="46.329046469181776" lon="8.295987825840712">
        <ele>2020.3299999999999</ele>
        <time>2022-02-06T13:00:18Z</time>
      </trkpt>
      <trkpt lat="46.329048229381442" lon="8.295969301834703">
        <ele>2020.0599999999999</ele>
        <time>2022-02-06T13:00:57Z</time>
      </trkpt>
      <trkpt lat="46.329048397019506" lon="8.295975001528859">
        <ele>2019.8699999999999</ele>
        <time>2022-02-06T13:01:13Z</time>
      </trkpt>
      <trkpt lat="46.329048313200474" lon="8.295964607968926">
        <ele>2019.97</ele>
        <time>2022-02-06T13:01:22Z</time>
      </trkpt>
      <trkpt lat="46.329052839428186" lon="8.29597600735724">
        <ele>2020.3499999999999</ele>
        <time>2022-02-06T13:01:34Z</time>
      </trkpt>
      <trkpt lat="46.329054515808821" lon="8.29597651027143">
        <ele>2020.8699999999999</ele>
        <time>2022-02-06T13:01:45Z</time>
      </trkpt>
      <trkpt lat="46.32905644364655" lon="8.295973325148225">
        <ele>2021.1300000000001</ele>
        <time>2022-02-06T13:01:54Z</time>
      </trkpt>
      <trkpt lat="46.329059042036533" lon="8.295973408967257">
        <ele>2021.3</ele>
        <time>2022-02-06T13:02:06Z</time>
      </trkpt>
      <trkpt lat="46.329057784751058" lon="8.295965865254402">
        <ele>2022.1199999999999</ele>
        <time>2022-02-06T13:02:15Z</time>
      </trkpt>
      <trkpt lat="46.329058539122343" lon="8.295969301834703">
        <ele>2023.24</ele>
        <time>2022-02-06T13:02:27Z</time>
      </trkpt>
      <trkpt lat="46.329058120027184" lon="8.295967541635037">
        <ele>2023.22</ele>
        <time>2022-02-06T13:02:40Z</time>
      </trkpt>
      <trkpt lat="46.329055521637201" lon="8.295966116711497">
        <ele>2022.9200000000001</ele>
        <time>2022-02-06T13:02:52Z</time>
      </trkpt>
      <trkpt lat="46.329048983752728" lon="8.295972989872098">
        <ele>2022.98</ele>
        <time>2022-02-06T13:03:02Z</time>
      </trkpt>
      <trkpt lat="46.32904814556241" lon="8.295964021235704">
        <ele>2022.79</ele>
        <time>2022-02-06T13:03:13Z</time>
      </trkpt>
      <trkpt lat="46.329051246866584" lon="8.295973995700479">
        <ele>2022.6099999999999</ele>
        <time>2022-02-06T13:03:22Z</time>
      </trkpt>
      <trkpt lat="46.32904957048595" lon="8.295977683737874">
        <ele>2022.6199999999999</ele>
        <time>2022-02-06T13:03:33Z</time>
      </trkpt>
      <trkpt lat="46.329053677618504" lon="8.295971984043717">
        <ele>2021.95</ele>
        <time>2022-02-06T13:04:07Z</time>
      </trkpt>
      <trkpt lat="46.329046804457903" lon="8.295979695394635">
        <ele>2022.05</ele>
        <time>2022-02-06T13:04:17Z</time>
      </trkpt>
      <trkpt lat="46.329047726467252" lon="8.29597994685173">
        <ele>2021.8699999999999</ele>
        <time>2022-02-06T13:04:35Z</time>
      </trkpt>
      <trkpt lat="46.329048397019506" lon="8.295976174995303">
        <ele>2021.8699999999999</ele>
        <time>2022-02-06T13:04:45Z</time>
      </trkpt>
      <trkpt lat="46.329043619334698" lon="8.295980785042048">
        <ele>2021.55</ele>
        <time>2022-02-06T13:04:59Z</time>
      </trkpt>
      <trkpt lat="46.329045379534364" lon="8.295976258814335">
        <ele>2021.6400000000001</ele>
        <time>2022-02-06T13:05:09Z</time>
      </trkpt>
      <trkpt lat="46.329042110592127" lon="8.295983551070094">
        <ele>2020.8599999999999</ele>
        <time>2022-02-06T13:05:21Z</time>
      </trkpt>
      <trkpt lat="46.329040937125683" lon="8.295977683737874">
        <ele>2020.8800000000001</ele>
        <time>2022-02-06T13:05:32Z</time>
      </trkpt>
      <trkpt lat="46.329039260745049" lon="8.295969553291798">
        <ele>2020.3499999999999</ele>
        <time>2022-02-06T13:05:42Z</time>
      </trkpt>
      <trkpt lat="46.329039679840207" lon="8.295971564948559">
        <ele>2019.9000000000001</ele>
        <time>2022-02-06T13:05:54Z</time>
      </trkpt>
      <trkpt lat="46.329033141955733" lon="8.295976929366589">
        <ele>2019.8099999999999</ele>
        <time>2022-02-06T13:06:06Z</time>
      </trkpt>
      <trkpt lat="46.329030795022845" lon="8.295973157510161">
        <ele>2019.3399999999999</ele>
        <time>2022-02-06T13:06:15Z</time>
      </trkpt>
      <trkpt lat="46.329034902155399" lon="8.295970559120178">
        <ele>2019.24</ele>
        <time>2022-02-06T13:06:29Z</time>
      </trkpt>
      <trkpt lat="46.329026436433196" lon="8.295977264642716">
        <ele>2019.0899999999999</ele>
        <time>2022-02-06T13:06:40Z</time>
      </trkpt>
      <trkpt lat="46.329026771709323" lon="8.295979527756572">
        <ele>2018.78</ele>
        <time>2022-02-06T13:06:52Z</time>
      </trkpt>
      <trkpt lat="46.329030292108655" lon="8.29597651027143">
        <ele>2018.8699999999999</ele>
        <time>2022-02-06T13:07:06Z</time>
      </trkpt>
      <trkpt lat="46.329033728688955" lon="8.295986652374268">
        <ele>2018.75</ele>
        <time>2022-02-06T13:07:16Z</time>
      </trkpt>
      <trkpt lat="46.329027861356735" lon="8.29598824493587">
        <ele>2018.8299999999999</ele>
        <time>2022-02-06T13:07:27Z</time>
      </trkpt>
      <trkpt lat="46.329030375927687" lon="8.295990424230695">
        <ele>2019.25</ele>
        <time>2022-02-06T13:07:39Z</time>
      </trkpt>
      <trkpt lat="46.329033225774765" lon="8.295986652374268">
        <ele>2019.28</ele>
        <time>2022-02-06T13:07:53Z</time>
      </trkpt>
      <trkpt lat="46.329029453918338" lon="8.295980533584952">
        <ele>2019.24</ele>
        <time>2022-02-06T13:08:11Z</time>
      </trkpt>
      <trkpt lat="46.329024340957403" lon="8.295982042327523">
        <ele>2019.28</ele>
        <time>2022-02-06T13:08:22Z</time>
      </trkpt>
      <trkpt lat="46.329027358442545" lon="8.295981204137206">
        <ele>2019.1800000000001</ele>
        <time>2022-02-06T13:08:33Z</time>
      </trkpt>
      <trkpt lat="46.329023502767086" lon="8.295988077297807">
        <ele>2019.4100000000001</ele>
        <time>2022-02-06T13:08:46Z</time>
      </trkpt>
      <trkpt lat="46.329025765880942" lon="8.295992268249393">
        <ele>2019.55</ele>
        <time>2022-02-06T13:08:58Z</time>
      </trkpt>
      <trkpt lat="46.329029453918338" lon="8.295997548848391">
        <ele>2007.5599999999999</ele>
        <time>2022-02-06T13:09:11Z</time>
      </trkpt>
      <trkpt lat="46.329029286280274" lon="8.295997632667422">
        <ele>2014.8099999999999</ele>
        <time>2022-02-06T13:09:12Z</time>
      </trkpt>
      <trkpt lat="46.329029286280274" lon="8.295997716486454">
        <ele>2018.2</ele>
        <time>2022-02-06T13:09:13Z</time>
      </trkpt>
      <trkpt lat="46.329023754224181" lon="8.295999309048057">
        <ele>2021.21</ele>
        <time>2022-02-06T13:09:20Z</time>
      </trkpt>
      <trkpt lat="46.329022077843547" lon="8.295994615182281">
        <ele>2028.0599999999999</ele>
        <time>2022-02-06T13:09:22Z</time>
      </trkpt>
      <trkpt lat="46.329021994024515" lon="8.295993022620678">
        <ele>2028.0599999999999</ele>
        <time>2022-02-06T13:09:23Z</time>
      </trkpt>
      <trkpt lat="46.329021323472261" lon="8.295991765335202">
        <ele>2022.8</ele>
        <time>2022-02-06T13:09:24Z</time>
      </trkpt>
      <trkpt lat="46.329019814729691" lon="8.295989250764251">
        <ele>2021.27</ele>
        <time>2022-02-06T13:09:27Z</time>
      </trkpt>
      <trkpt lat="46.329038171097636" lon="8.296003332361579">
        <ele>2022.6600000000001</ele>
        <time>2022-02-06T13:09:42Z</time>
      </trkpt>
      <trkpt lat="46.329031297937036" lon="8.295997632667422">
        <ele>2021.51</ele>
        <time>2022-02-06T13:09:55Z</time>
      </trkpt>
      <trkpt lat="46.329026352614164" lon="8.296002829447389">
        <ele>2021.5699999999999</ele>
        <time>2022-02-06T13:09:56Z</time>
      </trkpt>
      <trkpt lat="46.329030627384782" lon="8.296005092561245">
        <ele>2021.8099999999999</ele>
        <time>2022-02-06T13:10:03Z</time>
      </trkpt>
      <trkpt lat="46.329029118642211" lon="8.295987322926521">
        <ele>2022.1099999999999</ele>
        <time>2022-02-06T13:10:15Z</time>
      </trkpt>
      <trkpt lat="46.329031297937036" lon="8.295980952680111">
        <ele>2021.6199999999999</ele>
        <time>2022-02-06T13:10:31Z</time>
      </trkpt>
      <trkpt lat="46.329035740345716" lon="8.295975839719176">
        <ele>2021.0599999999999</ele>
        <time>2022-02-06T13:10:46Z</time>
      </trkpt>
      <trkpt lat="46.329038254916668" lon="8.295969218015671">
        <ele>2020.74</ele>
        <time>2022-02-06T13:11:06Z</time>
      </trkpt>
      <trkpt lat="46.329035488888621" lon="8.295957902446389">
        <ele>2020.4300000000001</ele>
        <time>2022-02-06T13:11:19Z</time>
      </trkpt>
      <trkpt lat="46.329036159440875" lon="8.295926554128528">
        <ele>2019.8299999999999</ele>
        <time>2022-02-06T13:11:30Z</time>
      </trkpt>
      <trkpt lat="46.328980503603816" lon="8.295910460874438">
        <ele>2019.2</ele>
        <time>2022-02-06T13:11:41Z</time>
      </trkpt>
      <trkpt lat="46.328964158892632" lon="8.295911382883787">
        <ele>2019.22</ele>
        <time>2022-02-06T13:12:00Z</time>
      </trkpt>
      <trkpt lat="46.328955693170428" lon="8.295903336256743">
        <ele>2019.3299999999999</ele>
        <time>2022-02-06T13:12:13Z</time>
      </trkpt>
      <trkpt lat="46.328956363722682" lon="8.295898977667093">
        <ele>2019.47</ele>
        <time>2022-02-06T13:12:29Z</time>
      </trkpt>
      <trkpt lat="46.328989807516336" lon="8.295918591320515">
        <ele>2019.77</ele>
        <time>2022-02-06T13:12:45Z</time>
      </trkpt>
      <trkpt lat="46.329002715647221" lon="8.295933594927192">
        <ele>2019.9000000000001</ele>
        <time>2022-02-06T13:12:57Z</time>
      </trkpt>
      <trkpt lat="46.329000536352396" lon="8.295936528593302">
        <ele>2020.1500000000001</ele>
        <time>2022-02-06T13:13:18Z</time>
      </trkpt>
      <trkpt lat="46.328996010124683" lon="8.29594130627811">
        <ele>2019.9200000000001</ele>
        <time>2022-02-06T13:13:26Z</time>
      </trkpt>
      <trkpt lat="46.328999362885952" lon="8.295931750908494">
        <ele>2019.5799999999999</ele>
        <time>2022-02-06T13:13:40Z</time>
      </trkpt>
      <trkpt lat="46.328996764495969" lon="8.295927559956908">
        <ele>2020.28</ele>
        <time>2022-02-06T13:14:07Z</time>
      </trkpt>
      <trkpt lat="46.328989136964083" lon="8.295892188325524">
        <ele>2019.8699999999999</ele>
        <time>2022-02-06T13:14:17Z</time>
      </trkpt>
      <trkpt lat="46.328977067023516" lon="8.295914903283119">
        <ele>2019.9400000000001</ele>
        <time>2022-02-06T13:14:29Z</time>
      </trkpt>
      <trkpt lat="46.328951083123684" lon="8.295935522764921">
        <ele>2019.8800000000001</ele>
        <time>2022-02-06T13:14:32Z</time>
      </trkpt>
      <trkpt lat="46.328817056491971" lon="8.295980952680111">
        <ele>2020.6800000000001</ele>
        <time>2022-02-06T13:14:46Z</time>
      </trkpt>
      <trkpt lat="46.32881018333137" lon="8.295984389260411">
        <ele>2018.6900000000001</ele>
        <time>2022-02-06T13:14:51Z</time>
      </trkpt>
      <trkpt lat="46.328781098127365" lon="8.295991346240044">
        <ele>2020.1300000000001</ele>
        <time>2022-02-06T13:14:54Z</time>
      </trkpt>
      <trkpt lat="46.328757125884295" lon="8.296002997085452">
        <ele>2019.3</ele>
        <time>2022-02-06T13:15:07Z</time>
      </trkpt>
      <trkpt lat="46.328756706789136" lon="8.296013055369258">
        <ele>2018.8</ele>
        <time>2022-02-06T13:15:14Z</time>
      </trkpt>
      <trkpt lat="46.328728795051575" lon="8.296017749235034">
        <ele>2020.1199999999999</ele>
        <time>2022-02-06T13:15:17Z</time>
      </trkpt>
      <trkpt lat="46.328683281317353" lon="8.296042308211327">
        <ele>2018.3</ele>
        <time>2022-02-06T13:15:26Z</time>
      </trkpt>
      <trkpt lat="46.328677497804165" lon="8.29604834318161">
        <ele>2017.9400000000001</ele>
        <time>2022-02-06T13:15:42Z</time>
      </trkpt>
      <trkpt lat="46.328647993505001" lon="8.296052031219006">
        <ele>2019.53</ele>
        <time>2022-02-06T13:15:45Z</time>
      </trkpt>
      <trkpt lat="46.328629469498992" lon="8.296048510819674">
        <ele>2019.25</ele>
        <time>2022-02-06T13:15:55Z</time>
      </trkpt>
      <trkpt lat="46.328587979078293" lon="8.296067118644714">
        <ele>2019.78</ele>
        <time>2022-02-06T13:16:12Z</time>
      </trkpt>
      <trkpt lat="46.328492173925042" lon="8.296081786975265">
        <ele>2018.8800000000001</ele>
        <time>2022-02-06T13:16:25Z</time>
      </trkpt>
      <trkpt lat="46.328478679060936" lon="8.296080697327852">
        <ele>2019.5799999999999</ele>
        <time>2022-02-06T13:16:27Z</time>
      </trkpt>
      <trkpt lat="46.328415144234896" lon="8.296086480841041">
        <ele>2019.9300000000001</ele>
        <time>2022-02-06T13:16:38Z</time>
      </trkpt>
      <trkpt lat="46.328305341303349" lon="8.296098047867417">
        <ele>2020.3099999999999</ele>
        <time>2022-02-06T13:16:50Z</time>
      </trkpt>
      <trkpt lat="46.328278100118041" lon="8.296097293496132">
        <ele>2020.1700000000001</ele>
        <time>2022-02-06T13:16:53Z</time>
      </trkpt>
      <trkpt lat="46.328133763745427" lon="8.29607617110014">
        <ele>2020.3599999999999</ele>
        <time>2022-02-06T13:17:08Z</time>
      </trkpt>
      <trkpt lat="46.328004179522395" lon="8.296054881066084">
        <ele>2020.03</ele>
        <time>2022-02-06T13:17:21Z</time>
      </trkpt>
      <trkpt lat="46.327820364385843" lon="8.296005595475435">
        <ele>2020.3299999999999</ele>
        <time>2022-02-06T13:17:39Z</time>
      </trkpt>
      <trkpt lat="46.327676698565483" lon="8.295935103669763">
        <ele>2020.5899999999999</ele>
        <time>2022-02-06T13:17:53Z</time>
      </trkpt>
      <trkpt lat="46.327515095472336" lon="8.295874670147896">
        <ele>2020.1300000000001</ele>
        <time>2022-02-06T13:18:08Z</time>
      </trkpt>
      <trkpt lat="46.327372770756483" lon="8.295819265767932">
        <ele>2019.1800000000001</ele>
        <time>2022-02-06T13:18:22Z</time>
      </trkpt>
      <trkpt lat="46.327224327251315" lon="8.295774171128869">
        <ele>2018.4100000000001</ele>
        <time>2022-02-06T13:18:36Z</time>
      </trkpt>
      <trkpt lat="46.32704671472311" lon="8.295701332390308">
        <ele>2018.1400000000001</ele>
        <time>2022-02-06T13:18:53Z</time>
      </trkpt>
      <trkpt lat="46.326967673376203" lon="8.295676857233048">
        <ele>2018.05</ele>
        <time>2022-02-06T13:19:01Z</time>
      </trkpt>
      <trkpt lat="46.32691235281527" lon="8.295658081769943">
        <ele>2018.1400000000001</ele>
        <time>2022-02-06T13:19:12Z</time>
      </trkpt>
      <trkpt lat="46.326882010325789" lon="8.295638049021363">
        <ele>2018.23</ele>
        <time>2022-02-06T13:19:19Z</time>
      </trkpt>
      <trkpt lat="46.326829204335809" lon="8.295605862513185">
        <ele>2018.6600000000001</ele>
        <time>2022-02-06T13:19:24Z</time>
      </trkpt>
      <trkpt lat="46.326737506315112" lon="8.295564288273454">
        <ele>2019.3399999999999</ele>
        <time>2022-02-06T13:19:34Z</time>
      </trkpt>
      <trkpt lat="46.326706493273377" lon="8.295554397627711">
        <ele>2019.6600000000001</ele>
        <time>2022-02-06T13:19:37Z</time>
      </trkpt>
      <trkpt lat="46.32661622017622" lon="8.295543249696493">
        <ele>2020.8900000000001</ele>
        <time>2022-02-06T13:19:46Z</time>
      </trkpt>
      <trkpt lat="46.326568694785237" lon="8.295541489496827">
        <ele>2021.2</ele>
        <time>2022-02-06T13:19:51Z</time>
      </trkpt>
      <trkpt lat="46.326534161344171" lon="8.295570490881801">
        <ele>2021.73</ele>
        <time>2022-02-06T13:19:56Z</time>
      </trkpt>
      <trkpt lat="46.326501220464706" lon="8.295600917190313">
        <ele>2022.0699999999999</ele>
        <time>2022-02-06T13:20:00Z</time>
      </trkpt>
      <trkpt lat="46.326437015086412" lon="8.295675851404667">
        <ele>2023.98</ele>
        <time>2022-02-06T13:20:12Z</time>
      </trkpt>
      <trkpt lat="46.326382951810956" lon="8.295701248571277">
        <ele>2025.76</ele>
        <time>2022-02-06T13:20:24Z</time>
      </trkpt>
      <trkpt lat="46.326326709240675" lon="8.295719018206">
        <ele>2026.8900000000001</ele>
        <time>2022-02-06T13:20:36Z</time>
      </trkpt>
      <trkpt lat="46.326284799724817" lon="8.295735949650407">
        <ele>2027.9400000000001</ele>
        <time>2022-02-06T13:20:52Z</time>
      </trkpt>
      <trkpt lat="46.32619989104569" lon="8.295733267441392">
        <ele>2029.0799999999999</ele>
        <time>2022-02-06T13:21:05Z</time>
      </trkpt>
      <trkpt lat="46.326136020943522" lon="8.295720694586635">
        <ele>2029.74</ele>
        <time>2022-02-06T13:21:16Z</time>
      </trkpt>
      <trkpt lat="46.326066199690104" lon="8.295732093974948">
        <ele>2031.8599999999999</ele>
        <time>2022-02-06T13:21:31Z</time>
      </trkpt>
      <trkpt lat="46.326015405356884" lon="8.295751791447401">
        <ele>2033.4000000000001</ele>
        <time>2022-02-06T13:21:42Z</time>
      </trkpt>
      <trkpt lat="46.325924545526505" lon="8.295693956315517">
        <ele>2034.3299999999999</ele>
        <time>2022-02-06T13:21:56Z</time>
      </trkpt>
      <trkpt lat="46.325833518058062" lon="8.295664368197322">
        <ele>2035.73</ele>
        <time>2022-02-06T13:22:11Z</time>
      </trkpt>
      <trkpt lat="46.325732935220003" lon="8.295668894425035">
        <ele>2036.3399999999999</ele>
        <time>2022-02-06T13:22:25Z</time>
      </trkpt>
      <trkpt lat="46.325656911358237" lon="8.295646598562598">
        <ele>2036.8399999999999</ele>
        <time>2022-02-06T13:22:38Z</time>
      </trkpt>
      <trkpt lat="46.325553813949227" lon="8.295638468116522">
        <ele>2037.8900000000001</ele>
        <time>2022-02-06T13:22:55Z</time>
      </trkpt>
      <trkpt lat="46.325499834492803" lon="8.295635869726539">
        <ele>2038.9400000000001</ele>
        <time>2022-02-06T13:23:07Z</time>
      </trkpt>
      <trkpt lat="46.325443591922522" lon="8.295640647411346">
        <ele>2039.97</ele>
        <time>2022-02-06T13:23:18Z</time>
      </trkpt>
      <trkpt lat="46.32536924444139" lon="8.295642742887139">
        <ele>2041.3900000000001</ele>
        <time>2022-02-06T13:23:30Z</time>
      </trkpt>
      <trkpt lat="46.325286347419024" lon="8.295638635754585">
        <ele>2041.8099999999999</ele>
        <time>2022-02-06T13:23:42Z</time>
      </trkpt>
      <trkpt lat="46.325202276930213" lon="8.295630505308509">
        <ele>2042.6800000000001</ele>
        <time>2022-02-06T13:23:54Z</time>
      </trkpt>
      <trkpt lat="46.325132371857762" lon="8.295625308528543">
        <ele>2043.5999999999999</ele>
        <time>2022-02-06T13:24:06Z</time>
      </trkpt>
      <trkpt lat="46.325083337724209" lon="8.295620363205671">
        <ele>2043.48</ele>
        <time>2022-02-06T13:24:20Z</time>
      </trkpt>
      <trkpt lat="46.324986191466451" lon="8.29561734572053">
        <ele>2043.73</ele>
        <time>2022-02-06T13:24:33Z</time>
      </trkpt>
      <trkpt lat="46.324883764609694" lon="8.295619692653418">
        <ele>2044.1900000000001</ele>
        <time>2022-02-06T13:24:46Z</time>
      </trkpt>
      <trkpt lat="46.324791898950934" lon="8.295642407611013">
        <ele>2044.5899999999999</ele>
        <time>2022-02-06T13:25:00Z</time>
      </trkpt>
      <trkpt lat="46.324734147638083" lon="8.295670067891479">
        <ele>2045.1199999999999</ele>
        <time>2022-02-06T13:25:14Z</time>
      </trkpt>
      <trkpt lat="46.324683353304863" lon="8.295722538605332">
        <ele>2044.98</ele>
        <time>2022-02-06T13:25:25Z</time>
      </trkpt>
      <trkpt lat="46.32467002607882" lon="8.295746510848403">
        <ele>2045.1199999999999</ele>
        <time>2022-02-06T13:25:38Z</time>
      </trkpt>
      <trkpt lat="46.324620572850108" lon="8.295780457556248">
        <ele>2046.77</ele>
        <time>2022-02-06T13:25:59Z</time>
      </trkpt>
      <trkpt lat="46.32459475658834" lon="8.295797305181623">
        <ele>2046.75</ele>
        <time>2022-02-06T13:26:13Z</time>
      </trkpt>
      <trkpt lat="46.324502723291516" lon="8.295821528881788">
        <ele>2049.8000000000002</ele>
        <time>2022-02-06T13:26:27Z</time>
      </trkpt>
      <trkpt lat="46.32447506301105" lon="8.295820439234376">
        <ele>2050.98</ele>
        <time>2022-02-06T13:26:38Z</time>
      </trkpt>
      <trkpt lat="46.324401218444109" lon="8.295834017917514">
        <ele>2053.1700000000001</ele>
        <time>2022-02-06T13:26:53Z</time>
      </trkpt>
      <trkpt lat="46.324353693053126" lon="8.295816499739885">
        <ele>2056.2199999999998</ele>
        <time>2022-02-06T13:27:05Z</time>
      </trkpt>
      <trkpt lat="46.324288817122579" lon="8.295789510011673">
        <ele>2058.6500000000001</ele>
        <time>2022-02-06T13:27:19Z</time>
      </trkpt>
      <trkpt lat="46.324223270639777" lon="8.295775512233377">
        <ele>2061.3099999999999</ele>
        <time>2022-02-06T13:27:34Z</time>
      </trkpt>
      <trkpt lat="46.324163423851132" lon="8.29575564712286">
        <ele>2061.21</ele>
        <time>2022-02-06T13:27:47Z</time>
      </trkpt>
      <trkpt lat="46.323950942605734" lon="8.29576344229281">
        <ele>2079.2800000000002</ele>
        <time>2022-02-06T13:31:50Z</time>
      </trkpt>
      <trkpt lat="46.323898304253817" lon="8.295691190287471">
        <ele>2075.9299999999998</ele>
        <time>2022-02-06T13:31:53Z</time>
      </trkpt>
      <trkpt lat="46.32388916797936" lon="8.29568138346076">
        <ele>2075.9299999999998</ele>
        <time>2022-02-06T13:31:54Z</time>
      </trkpt>
      <trkpt lat="46.32391506806016" lon="8.295681215822697">
        <ele>2073.7199999999998</ele>
        <time>2022-02-06T13:31:58Z</time>
      </trkpt>
      <trkpt lat="46.323820687830448" lon="8.29560661688447">
        <ele>2070.3400000000001</ele>
        <time>2022-02-06T13:32:02Z</time>
      </trkpt>
      <trkpt lat="46.323813647031784" lon="8.295598821714521">
        <ele>2070.8600000000001</ele>
        <time>2022-02-06T13:32:03Z</time>
      </trkpt>
      <trkpt lat="46.323787495493889" lon="8.295549871399999">
        <ele>2067.5700000000002</ele>
        <time>2022-02-06T13:32:07Z</time>
      </trkpt>
      <trkpt lat="46.323759164661169" lon="8.295490443706513">
        <ele>2065.6700000000001</ele>
        <time>2022-02-06T13:32:12Z</time>
      </trkpt>
      <trkpt lat="46.323727983981371" lon="8.295442331582308">
        <ele>2063.8299999999999</ele>
        <time>2022-02-06T13:32:16Z</time>
      </trkpt>
      <trkpt lat="46.323706526309252" lon="8.295409809798002">
        <ele>2061.6799999999998</ele>
        <time>2022-02-06T13:32:19Z</time>
      </trkpt>
      <trkpt lat="46.323651121929288" lon="8.295356668531895">
        <ele>2057.9499999999998</ele>
        <time>2022-02-06T13:32:31Z</time>
      </trkpt>
      <trkpt lat="46.323636705055833" lon="8.295347951352596">
        <ele>2055.7399999999998</ele>
        <time>2022-02-06T13:32:40Z</time>
      </trkpt>
      <trkpt lat="46.323561267927289" lon="8.295250134542584">
        <ele>2055.6199999999999</ele>
        <time>2022-02-06T13:32:50Z</time>
      </trkpt>
      <trkpt lat="46.323478035628796" lon="8.295143013820052">
        <ele>2052.1100000000001</ele>
        <time>2022-02-06T13:33:00Z</time>
      </trkpt>
      <trkpt lat="46.32332481443882" lon="8.294946877285838">
        <ele>2049.0300000000002</ele>
        <time>2022-02-06T13:33:16Z</time>
      </trkpt>
      <trkpt lat="46.323249544948339" lon="8.294833805412054">
        <ele>2046.01</ele>
        <time>2022-02-06T13:33:25Z</time>
      </trkpt>
      <trkpt lat="46.323219453915954" lon="8.294788459315896">
        <ele>2044.8900000000001</ele>
        <time>2022-02-06T13:33:29Z</time>
      </trkpt>
      <trkpt lat="46.323133036494255" lon="8.294790890067816">
        <ele>2041.4100000000001</ele>
        <time>2022-02-06T13:33:39Z</time>
      </trkpt>
      <trkpt lat="46.323128091171384" lon="8.294797008857131">
        <ele>2041.2</ele>
        <time>2022-02-06T13:33:40Z</time>
      </trkpt>
      <trkpt lat="46.323079895228148" lon="8.294827686622739">
        <ele>2038.9400000000001</ele>
        <time>2022-02-06T13:33:50Z</time>
      </trkpt>
      <trkpt lat="46.323004961013794" lon="8.294842271134257">
        <ele>2036.73</ele>
        <time>2022-02-06T13:34:01Z</time>
      </trkpt>
      <trkpt lat="46.322976965457201" lon="8.294863058254123">
        <ele>2035.9200000000001</ele>
        <time>2022-02-06T13:34:16Z</time>
      </trkpt>
      <trkpt lat="46.322906808927655" lon="8.294742358848453">
        <ele>2034.23</ele>
        <time>2022-02-06T13:34:30Z</time>
      </trkpt>
      <trkpt lat="46.32286942563951" lon="8.294641356915236">
        <ele>2032.8699999999999</ele>
        <time>2022-02-06T13:34:42Z</time>
      </trkpt>
      <trkpt lat="46.322846878319979" lon="8.294580671936274">
        <ele>2031.9400000000001</ele>
        <time>2022-02-06T13:34:53Z</time>
      </trkpt>
      <trkpt lat="46.322790887206793" lon="8.294481011107564">
        <ele>2030.5899999999999</ele>
        <time>2022-02-06T13:35:05Z</time>
      </trkpt>
      <trkpt lat="46.32272819057107" lon="8.294349666684866">
        <ele>2028.23</ele>
        <time>2022-02-06T13:35:19Z</time>
      </trkpt>
      <trkpt lat="46.322692483663559" lon="8.294269451871514">
        <ele>2026.96</ele>
        <time>2022-02-06T13:35:29Z</time>
      </trkpt>
      <trkpt lat="46.322660129517317" lon="8.294177921488881">
        <ele>2025.4300000000001</ele>
        <time>2022-02-06T13:35:41Z</time>
      </trkpt>
      <trkpt lat="46.322587877511978" lon="8.294038278982043">
        <ele>2022.1300000000001</ele>
        <time>2022-02-06T13:35:55Z</time>
      </trkpt>
      <trkpt lat="46.32251956500113" lon="8.293932667002082">
        <ele>2018.8900000000001</ele>
        <time>2022-02-06T13:36:10Z</time>
      </trkpt>
      <trkpt lat="46.32246290333569" lon="8.293829569593072">
        <ele>2017.05</ele>
        <time>2022-02-06T13:36:23Z</time>
      </trkpt>
      <trkpt lat="46.322391405701637" lon="8.293724125251174">
        <ele>2015.3099999999999</ele>
        <time>2022-02-06T13:36:37Z</time>
      </trkpt>
      <trkpt lat="46.322327284142375" lon="8.293666541576386">
        <ele>2014.46</ele>
        <time>2022-02-06T13:36:50Z</time>
      </trkpt>
      <trkpt lat="46.322264419868588" lon="8.293599151074886">
        <ele>2012.3599999999999</ele>
        <time>2022-02-06T13:37:02Z</time>
      </trkpt>
      <trkpt lat="46.322175823152065" lon="8.293514912948012">
        <ele>2010.22</ele>
        <time>2022-02-06T13:37:16Z</time>
      </trkpt>
      <trkpt lat="46.322133410722017" lon="8.293480547145009">
        <ele>2009.96</ele>
        <time>2022-02-06T13:37:26Z</time>
      </trkpt>
      <trkpt lat="46.322064846754074" lon="8.293384741991758">
        <ele>2008.1300000000001</ele>
        <time>2022-02-06T13:37:42Z</time>
      </trkpt>
      <trkpt lat="46.322059566155076" lon="8.293376946821809">
        <ele>2008.1099999999999</ele>
        <time>2022-02-06T13:37:44Z</time>
      </trkpt>
      <trkpt lat="46.322007765993476" lon="8.293299162760377">
        <ele>2007.03</ele>
        <time>2022-02-06T13:37:51Z</time>
      </trkpt>
      <trkpt lat="46.321880863979459" lon="8.29312389716506">
        <ele>2004.0799999999999</ele>
        <time>2022-02-06T13:38:06Z</time>
      </trkpt>
      <trkpt lat="46.321743065491319" lon="8.292893143370748">
        <ele>2001.28</ele>
        <time>2022-02-06T13:38:23Z</time>
      </trkpt>
      <trkpt lat="46.321602333337069" lon="8.29266993328929">
        <ele>1999.49</ele>
        <time>2022-02-06T13:38:40Z</time>
      </trkpt>
      <trkpt lat="46.321496050804853" lon="8.292497182264924">
        <ele>1998.55</ele>
        <time>2022-02-06T13:38:56Z</time>
      </trkpt>
      <trkpt lat="46.321392366662621" lon="8.292344296351075">
        <ele>1998.1400000000001</ele>
        <time>2022-02-06T13:39:11Z</time>
      </trkpt>
      <trkpt lat="46.321302009746432" lon="8.292205408215523">
        <ele>1998</ele>
        <time>2022-02-06T13:39:25Z</time>
      </trkpt>
      <trkpt lat="46.321195475757122" lon="8.292012037709355">
        <ele>1998.02</ele>
        <time>2022-02-06T13:39:43Z</time>
      </trkpt>
      <trkpt lat="46.321123810485005" lon="8.291854960843921">
        <ele>1998.51</ele>
        <time>2022-02-06T13:39:57Z</time>
      </trkpt>
      <trkpt lat="46.321037309244275" lon="8.29167366027832">
        <ele>1999.04</ele>
        <time>2022-02-06T13:40:13Z</time>
      </trkpt>
      <trkpt lat="46.320939240977168" lon="8.291473751887679">
        <ele>1999.77</ele>
        <time>2022-02-06T13:40:30Z</time>
      </trkpt>
      <trkpt lat="46.320862881839275" lon="8.291309298947454">
        <ele>2001.0599999999999</ele>
        <time>2022-02-06T13:40:45Z</time>
      </trkpt>
      <trkpt lat="46.320790797472" lon="8.291159346699715">
        <ele>2001.9200000000001</ele>
        <time>2022-02-06T13:40:59Z</time>
      </trkpt>
      <trkpt lat="46.320709157735109" lon="8.290981650352478">
        <ele>2002.51</ele>
        <time>2022-02-06T13:41:14Z</time>
      </trkpt>
      <trkpt lat="46.320627853274345" lon="8.290814934298396">
        <ele>2002.8800000000001</ele>
        <time>2022-02-06T13:41:29Z</time>
      </trkpt>
      <trkpt lat="46.320564150810242" lon="8.290670933201909">
        <ele>2003.04</ele>
        <time>2022-02-06T13:41:42Z</time>
      </trkpt>
      <trkpt lat="46.320524336770177" lon="8.290530117228627">
        <ele>2004.1800000000001</ele>
        <time>2022-02-06T13:41:56Z</time>
      </trkpt>
      <trkpt lat="46.320498939603567" lon="8.290384439751506">
        <ele>2006.4100000000001</ele>
        <time>2022-02-06T13:42:11Z</time>
      </trkpt>
      <trkpt lat="46.320477146655321" lon="8.290282431989908">
        <ele>2008.02</ele>
        <time>2022-02-06T13:42:24Z</time>
      </trkpt>
      <trkpt lat="46.320445546880364" lon="8.290132479742169">
        <ele>2008.77</ele>
        <time>2022-02-06T13:42:41Z</time>
      </trkpt>
      <trkpt lat="46.320433728396893" lon="8.290043883025646">
        <ele>2008.6500000000001</ele>
        <time>2022-02-06T13:42:53Z</time>
      </trkpt>
      <trkpt lat="46.320419730618596" lon="8.289909102022648">
        <ele>2009.22</ele>
        <time>2022-02-06T13:43:06Z</time>
      </trkpt>
      <trkpt lat="46.320392237976193" lon="8.289781613275409">
        <ele>2010.9200000000001</ele>
        <time>2022-02-06T13:43:19Z</time>
      </trkpt>
      <trkpt lat="46.320359213277698" lon="8.289661668241024">
        <ele>2010.6500000000001</ele>
        <time>2022-02-06T13:43:31Z</time>
      </trkpt>
      <trkpt lat="46.320324679836631" lon="8.289563432335854">
        <ele>2010.9200000000001</ele>
        <time>2022-02-06T13:43:42Z</time>
      </trkpt>
      <trkpt lat="46.320274639874697" lon="8.289423789829016">
        <ele>2011.8099999999999</ele>
        <time>2022-02-06T13:43:59Z</time>
      </trkpt>
      <trkpt lat="46.320242872461677" lon="8.289347346872091">
        <ele>2012.6500000000001</ele>
        <time>2022-02-06T13:44:11Z</time>
      </trkpt>
      <trkpt lat="46.320208003744483" lon="8.289221534505487">
        <ele>2012.1099999999999</ele>
        <time>2022-02-06T13:44:25Z</time>
      </trkpt>
      <trkpt lat="46.320208422839642" lon="8.289215415716171">
        <ele>2010.8</ele>
        <time>2022-02-06T13:44:39Z</time>
      </trkpt>
      <trkpt lat="46.320210183039308" lon="8.289213152602315">
        <ele>2009</ele>
        <time>2022-02-06T13:44:42Z</time>
      </trkpt>
      <trkpt lat="46.320210350677371" lon="8.289216421544552">
        <ele>2010.1300000000001</ele>
        <time>2022-02-06T13:44:53Z</time>
      </trkpt>
      <trkpt lat="46.320214625447989" lon="8.289223294705153">
        <ele>2010.5699999999999</ele>
        <time>2022-02-06T13:45:35Z</time>
      </trkpt>
      <trkpt lat="46.320217223837972" lon="8.289221283048391">
        <ele>2012.1300000000001</ele>
        <time>2022-02-06T13:45:49Z</time>
      </trkpt>
      <trkpt lat="46.320221666246653" lon="8.289211057126522">
        <ele>2014.0999999999999</ele>
        <time>2022-02-06T13:46:02Z</time>
      </trkpt>
      <trkpt lat="46.320216134190559" lon="8.28922463580966">
        <ele>2014.8199999999999</ele>
        <time>2022-02-06T13:46:24Z</time>
      </trkpt>
      <trkpt lat="46.320210350677371" lon="8.289222540333867">
        <ele>2014.5799999999999</ele>
        <time>2022-02-06T13:46:35Z</time>
      </trkpt>
      <trkpt lat="46.32021370343864" lon="8.289225557819009">
        <ele>2013.8499999999999</ele>
        <time>2022-02-06T13:46:59Z</time>
      </trkpt>
      <trkpt lat="46.320213284343481" lon="8.289226060733199">
        <ele>2013.25</ele>
        <time>2022-02-06T13:47:18Z</time>
      </trkpt>
      <trkpt lat="46.320212949067354" lon="8.289229413494468">
        <ele>2013.9300000000001</ele>
        <time>2022-02-06T13:47:37Z</time>
      </trkpt>
      <trkpt lat="46.320207500830293" lon="8.289224551990628">
        <ele>2015.45</ele>
        <time>2022-02-06T13:48:07Z</time>
      </trkpt>
      <trkpt lat="46.320200795307755" lon="8.289226563647389">
        <ele>2014.26</ele>
        <time>2022-02-06T13:48:32Z</time>
      </trkpt>
      <trkpt lat="46.320190988481045" lon="8.28918163664639">
        <ele>2012.8699999999999</ele>
        <time>2022-02-06T13:48:49Z</time>
      </trkpt>
      <trkpt lat="46.320191491395235" lon="8.289183145388961">
        <ele>2012.04</ele>
        <time>2022-02-06T13:49:07Z</time>
      </trkpt>
      <trkpt lat="46.32020004093647" lon="8.289192533120513">
        <ele>2011.8599999999999</ele>
        <time>2022-02-06T13:49:19Z</time>
      </trkpt>
      <trkpt lat="46.32020297460258" lon="8.289190521463752">
        <ele>2015.5699999999999</ele>
        <time>2022-02-06T13:49:31Z</time>
      </trkpt>
      <trkpt lat="46.320203226059675" lon="8.289191108196974">
        <ele>2015.5699999999999</ele>
        <time>2022-02-06T13:49:32Z</time>
      </trkpt>
      <trkpt lat="46.320189647376537" lon="8.289119359105825">
        <ele>2014.2</ele>
        <time>2022-02-06T13:49:47Z</time>
      </trkpt>
      <trkpt lat="46.32017070427537" lon="8.289048615843058">
        <ele>2014.0799999999999</ele>
        <time>2022-02-06T13:49:57Z</time>
      </trkpt>
      <trkpt lat="46.320159388706088" lon="8.288930431008339">
        <ele>2011.3399999999999</ele>
        <time>2022-02-06T13:50:10Z</time>
      </trkpt>
      <trkpt lat="46.320160310715437" lon="8.288849713280797">
        <ele>2011.3900000000001</ele>
        <time>2022-02-06T13:50:16Z</time>
      </trkpt>
      <trkpt lat="46.320143295451999" lon="8.288667825981975">
        <ele>2014.0599999999999</ele>
        <time>2022-02-06T13:50:30Z</time>
      </trkpt>
      <trkpt lat="46.320121083408594" lon="8.28858450986445">
        <ele>2014.0999999999999</ele>
        <time>2022-02-06T13:50:37Z</time>
      </trkpt>
      <trkpt lat="46.320046149194241" lon="8.288436736911535">
        <ele>2013.3199999999999</ele>
        <time>2022-02-06T13:50:51Z</time>
      </trkpt>
      <trkpt lat="46.319964928552508" lon="8.288345374166966">
        <ele>2013.3099999999999</ele>
        <time>2022-02-06T13:51:05Z</time>
      </trkpt>
      <trkpt lat="46.319941291585565" lon="8.288279576227069">
        <ele>2012.1400000000001</ele>
        <time>2022-02-06T13:51:18Z</time>
      </trkpt>
      <trkpt lat="46.319937855005264" lon="8.288240684196353">
        <ele>2009.0699999999999</ele>
        <time>2022-02-06T13:51:24Z</time>
      </trkpt>
      <trkpt lat="46.319923019036651" lon="8.288195757195354">
        <ele>2007.4400000000001</ele>
        <time>2022-02-06T13:51:35Z</time>
      </trkpt>
      <trkpt lat="46.319902148097754" lon="8.288130462169647">
        <ele>2008.76</ele>
        <time>2022-02-06T13:51:44Z</time>
      </trkpt>
      <trkpt lat="46.319888653233647" lon="8.288087630644441">
        <ele>2006.47</ele>
        <time>2022-02-06T13:51:56Z</time>
      </trkpt>
      <trkpt lat="46.319875242188573" lon="8.288028538227081">
        <ele>2007.53</ele>
        <time>2022-02-06T13:52:08Z</time>
      </trkpt>
      <trkpt lat="46.319857640191913" lon="8.287958549335599">
        <ele>2006.26</ele>
        <time>2022-02-06T13:52:17Z</time>
      </trkpt>
      <trkpt lat="46.319820675998926" lon="8.287871712818742">
        <ele>2005.5</ele>
        <time>2022-02-06T13:52:28Z</time>
      </trkpt>
      <trkpt lat="46.3197788503021" lon="8.287758640944958">
        <ele>2004.1700000000001</ele>
        <time>2022-02-06T13:52:41Z</time>
      </trkpt>
      <trkpt lat="46.319778012111783" lon="8.287700973451138">
        <ele>2003.1199999999999</ele>
        <time>2022-02-06T13:52:45Z</time>
      </trkpt>
      <trkpt lat="46.319793770089746" lon="8.287568623200059">
        <ele>2000.24</ele>
        <time>2022-02-06T13:52:52Z</time>
      </trkpt>
      <trkpt lat="46.319799050688744" lon="8.287536101415753">
        <ele>1999.8699999999999</ele>
        <time>2022-02-06T13:52:54Z</time>
      </trkpt>
      <trkpt lat="46.319784969091415" lon="8.287391513586044">
        <ele>1997.49</ele>
        <time>2022-02-06T13:53:07Z</time>
      </trkpt>
      <trkpt lat="46.319777257740498" lon="8.287215074524283">
        <ele>1995.76</ele>
        <time>2022-02-06T13:53:19Z</time>
      </trkpt>
      <trkpt lat="46.319753872230649" lon="8.287067469209433">
        <ele>1994.4300000000001</ele>
        <time>2022-02-06T13:53:32Z</time>
      </trkpt>
      <trkpt lat="46.319737024605274" lon="8.286863788962364">
        <ele>1992.0799999999999</ele>
        <time>2022-02-06T13:53:48Z</time>
      </trkpt>
      <trkpt lat="46.319719254970551" lon="8.28668424859643">
        <ele>1989.78</ele>
        <time>2022-02-06T13:54:03Z</time>
      </trkpt>
      <trkpt lat="46.319713806733489" lon="8.28655231744051">
        <ele>1988.3099999999999</ele>
        <time>2022-02-06T13:54:15Z</time>
      </trkpt>
      <trkpt lat="46.319713303819299" lon="8.286486016586423">
        <ele>1990.3</ele>
        <time>2022-02-06T13:54:30Z</time>
      </trkpt>
      <trkpt lat="46.31971045397222" lon="8.286455003544688">
        <ele>1990.3900000000001</ele>
        <time>2022-02-06T13:54:32Z</time>
      </trkpt>
      <trkpt lat="46.319685894995928" lon="8.28629189170897">
        <ele>1989.8800000000001</ele>
        <time>2022-02-06T13:54:46Z</time>
      </trkpt>
      <trkpt lat="46.319710202515125" lon="8.286217879503965">
        <ele>1988.71</ele>
        <time>2022-02-06T13:54:58Z</time>
      </trkpt>
      <trkpt lat="46.319793686270714" lon="8.286144705489278">
        <ele>1988.0899999999999</ele>
        <time>2022-02-06T13:55:09Z</time>
      </trkpt>
      <trkpt lat="46.319904578849673" lon="8.286122744902968">
        <ele>1987.1199999999999</ele>
        <time>2022-02-06T13:55:23Z</time>
      </trkpt>
      <trkpt lat="46.319972723722458" lon="8.286087289452553">
        <ele>1985.53</ele>
        <time>2022-02-06T13:55:35Z</time>
      </trkpt>
      <trkpt lat="46.320062074810266" lon="8.28603683039546">
        <ele>1983.46</ele>
        <time>2022-02-06T13:55:49Z</time>
      </trkpt>
      <trkpt lat="46.320141619071364" lon="8.286000620573759">
        <ele>1981.55</ele>
        <time>2022-02-06T13:56:01Z</time>
      </trkpt>
      <trkpt lat="46.320245387032628" lon="8.285981006920338">
        <ele>1978.4200000000001</ele>
        <time>2022-02-06T13:56:14Z</time>
      </trkpt>
      <trkpt lat="46.320325685665011" lon="8.285936750471592">
        <ele>1975.3</ele>
        <time>2022-02-06T13:56:26Z</time>
      </trkpt>
      <trkpt lat="46.320389974862337" lon="8.285878915339708">
        <ele>1972.6199999999999</ele>
        <time>2022-02-06T13:56:38Z</time>
      </trkpt>
      <trkpt lat="46.320375222712755" lon="8.285812027752399">
        <ele>1970.96</ele>
        <time>2022-02-06T13:56:50Z</time>
      </trkpt>
      <trkpt lat="46.32034027017653" lon="8.285813704133034">
        <ele>1970.03</ele>
        <time>2022-02-06T13:56:54Z</time>
      </trkpt>
      <trkpt lat="46.320217978209257" lon="8.285757461562753">
        <ele>1967.52</ele>
        <time>2022-02-06T13:57:06Z</time>
      </trkpt>
      <trkpt lat="46.320121753960848" lon="8.285671379417181">
        <ele>1965.52</ele>
        <time>2022-02-06T13:57:20Z</time>
      </trkpt>
      <trkpt lat="46.320030726492405" lon="8.2855892367661">
        <ele>1962.28</ele>
        <time>2022-02-06T13:57:34Z</time>
      </trkpt>
      <trkpt lat="46.319937771186233" lon="8.285538190975785">
        <ele>1959.1199999999999</ele>
        <time>2022-02-06T13:57:47Z</time>
      </trkpt>
      <trkpt lat="46.319815646857023" lon="8.285447163507342">
        <ele>1957.71</ele>
        <time>2022-02-06T13:58:03Z</time>
      </trkpt>
      <trkpt lat="46.319774156436324" lon="8.285283129662275">
        <ele>1958.5799999999999</ele>
        <time>2022-02-06T13:58:16Z</time>
      </trkpt>
      <trkpt lat="46.319746831431985" lon="8.285122783854604">
        <ele>1956.8</ele>
        <time>2022-02-06T13:58:29Z</time>
      </trkpt>
      <trkpt lat="46.319733588024974" lon="8.285031002014875">
        <ele>1955.1700000000001</ele>
        <time>2022-02-06T13:58:40Z</time>
      </trkpt>
      <trkpt lat="46.319718081504107" lon="8.284946847707033">
        <ele>1953.5899999999999</ele>
        <time>2022-02-06T13:58:51Z</time>
      </trkpt>
      <trkpt lat="46.319690505042672" lon="8.284845594316721">
        <ele>1950.9300000000001</ele>
        <time>2022-02-06T13:59:04Z</time>
      </trkpt>
      <trkpt lat="46.319684218615294" lon="8.284806786105037">
        <ele>1949.8900000000001</ele>
        <time>2022-02-06T13:59:15Z</time>
      </trkpt>
      <trkpt lat="46.319642812013626" lon="8.284727325662971">
        <ele>1947.8</ele>
        <time>2022-02-06T13:59:27Z</time>
      </trkpt>
      <trkpt lat="46.319614732638001" lon="8.284691032022238">
        <ele>1946.5</ele>
        <time>2022-02-06T13:59:36Z</time>
      </trkpt>
      <trkpt lat="46.319547593593597" lon="8.284587850794196">
        <ele>1944.3800000000001</ele>
        <time>2022-02-06T13:59:49Z</time>
      </trkpt>
      <trkpt lat="46.319584138691425" lon="8.28455918468535">
        <ele>1942.3800000000001</ele>
        <time>2022-02-06T14:00:00Z</time>
      </trkpt>
      <trkpt lat="46.319669969379902" lon="8.284518364816904">
        <ele>1939.6700000000001</ele>
        <time>2022-02-06T14:00:15Z</time>
      </trkpt>
      <trkpt lat="46.319631161168218" lon="8.284439239650965">
        <ele>1936.54</ele>
        <time>2022-02-06T14:00:25Z</time>
      </trkpt>
      <trkpt lat="46.319599058479071" lon="8.284384505823255">
        <ele>1933.4400000000001</ele>
        <time>2022-02-06T14:00:33Z</time>
      </trkpt>
      <trkpt lat="46.319571565836668" lon="8.284346116706729">
        <ele>1930.8800000000001</ele>
        <time>2022-02-06T14:00:39Z</time>
      </trkpt>
      <trkpt lat="46.31951448507607" lon="8.284241342917085">
        <ele>1927.6800000000001</ele>
        <time>2022-02-06T14:00:51Z</time>
      </trkpt>
      <trkpt lat="46.31946612149477" lon="8.284153584390879">
        <ele>1924.47</ele>
        <time>2022-02-06T14:01:02Z</time>
      </trkpt>
      <trkpt lat="46.319419099017978" lon="8.284036321565509">
        <ele>1921.6900000000001</ele>
        <time>2022-02-06T14:01:14Z</time>
      </trkpt>
      <trkpt lat="46.319407867267728" lon="8.284008828923106">
        <ele>1920.46</ele>
        <time>2022-02-06T14:01:17Z</time>
      </trkpt>
      <trkpt lat="46.31936939433217" lon="8.283856948837638">
        <ele>1919.1199999999999</ele>
        <time>2022-02-06T14:01:32Z</time>
      </trkpt>
      <trkpt lat="46.319366125389934" lon="8.283848650753498">
        <ele>1919.04</ele>
        <time>2022-02-06T14:01:33Z</time>
      </trkpt>
      <trkpt lat="46.319302674382925" lon="8.283740440383554">
        <ele>1917.2</ele>
        <time>2022-02-06T14:01:45Z</time>
      </trkpt>
      <trkpt lat="46.319239810109138" lon="8.283590069040656">
        <ele>1915.1400000000001</ele>
        <time>2022-02-06T14:01:58Z</time>
      </trkpt>
      <trkpt lat="46.319162361323833" lon="8.283552015200257">
        <ele>1915.5799999999999</ele>
        <time>2022-02-06T14:02:07Z</time>
      </trkpt>
      <trkpt lat="46.319062281399965" lon="8.283567605540156">
        <ele>1914.6500000000001</ele>
        <time>2022-02-06T14:02:19Z</time>
      </trkpt>
      <trkpt lat="46.318984078243375" lon="8.283567102625966">
        <ele>1914.27</ele>
        <time>2022-02-06T14:02:30Z</time>
      </trkpt>
      <trkpt lat="46.318977372720838" lon="8.283561738207936">
        <ele>1914.1099999999999</ele>
        <time>2022-02-06T14:02:31Z</time>
      </trkpt>
      <trkpt lat="46.318886177614331" lon="8.283437434583902">
        <ele>1914.6500000000001</ele>
        <time>2022-02-06T14:02:45Z</time>
      </trkpt>
      <trkpt lat="46.318809734657407" lon="8.283312879502773">
        <ele>1914.1400000000001</ele>
        <time>2022-02-06T14:02:57Z</time>
      </trkpt>
      <trkpt lat="46.318747121840715" lon="8.283154964447022">
        <ele>1913.3499999999999</ele>
        <time>2022-02-06T14:03:10Z</time>
      </trkpt>
      <trkpt lat="46.318672355264425" lon="8.283001994714141">
        <ele>1911.99</ele>
        <time>2022-02-06T14:03:23Z</time>
      </trkpt>
      <trkpt lat="46.318601360544562" lon="8.28285925090313">
        <ele>1909.6600000000001</ele>
        <time>2022-02-06T14:03:36Z</time>
      </trkpt>
      <trkpt lat="46.318598929792643" lon="8.282834272831678">
        <ele>1909.21</ele>
        <time>2022-02-06T14:03:38Z</time>
      </trkpt>
      <trkpt lat="46.318627260625362" lon="8.282792363315821">
        <ele>1908.3299999999999</ele>
        <time>2022-02-06T14:03:42Z</time>
      </trkpt>
      <trkpt lat="46.318663302809" lon="8.282784819602966">
        <ele>1907.1800000000001</ele>
        <time>2022-02-06T14:03:45Z</time>
      </trkpt>
      <trkpt lat="46.318706888705492" lon="8.282795129343867">
        <ele>1905.1300000000001</ele>
        <time>2022-02-06T14:03:50Z</time>
      </trkpt>
      <trkpt lat="46.318786516785622" lon="8.282856233417988">
        <ele>1900.8900000000001</ele>
        <time>2022-02-06T14:03:59Z</time>
      </trkpt>
      <trkpt lat="46.31888123229146" lon="8.282920690253377">
        <ele>1897.8900000000001</ele>
        <time>2022-02-06T14:04:08Z</time>
      </trkpt>
      <trkpt lat="46.319002099335194" lon="8.282962432131171">
        <ele>1895.78</ele>
        <time>2022-02-06T14:04:18Z</time>
      </trkpt>
      <trkpt lat="46.319153979420662" lon="8.283022781834006">
        <ele>1892.8</ele>
        <time>2022-02-06T14:04:31Z</time>
      </trkpt>
      <trkpt lat="46.319264285266399" lon="8.283079694956541">
        <ele>1891.0899999999999</ele>
        <time>2022-02-06T14:04:43Z</time>
      </trkpt>
      <trkpt lat="46.319332346320152" lon="8.283084640279412">
        <ele>1889.0599999999999</ele>
        <time>2022-02-06T14:04:57Z</time>
      </trkpt>
      <trkpt lat="46.319338129833341" lon="8.283081874251366">
        <ele>1888.8499999999999</ele>
        <time>2022-02-06T14:05:13Z</time>
      </trkpt>
      <trkpt lat="46.319333771243691" lon="8.283090675249696">
        <ele>1888.8</ele>
        <time>2022-02-06T14:05:38Z</time>
      </trkpt>
      <trkpt lat="46.31932832300663" lon="8.283080784603953">
        <ele>1888.3699999999999</ele>
        <time>2022-02-06T14:05:58Z</time>
      </trkpt>
      <trkpt lat="46.31935372017324" lon="8.283057231456041">
        <ele>1885.1099999999999</ele>
        <time>2022-02-06T14:06:15Z</time>
      </trkpt>
      <trkpt lat="46.319452542811632" lon="8.283052369952202">
        <ele>1882.1300000000001</ele>
        <time>2022-02-06T14:06:27Z</time>
      </trkpt>
      <trkpt lat="46.319564608857036" lon="8.283065529540181">
        <ele>1881.3800000000001</ele>
        <time>2022-02-06T14:06:41Z</time>
      </trkpt>
      <trkpt lat="46.319687990471721" lon="8.283068044111133">
        <ele>1882.03</ele>
        <time>2022-02-06T14:06:56Z</time>
      </trkpt>
      <trkpt lat="46.319794775918126" lon="8.283103834837675">
        <ele>1878.97</ele>
        <time>2022-02-06T14:07:08Z</time>
      </trkpt>
      <trkpt lat="46.319926120340824" lon="8.283125208690763">
        <ele>1876.4000000000001</ele>
        <time>2022-02-06T14:07:21Z</time>
      </trkpt>
      <trkpt lat="46.320053860545158" lon="8.283130489289761">
        <ele>1875.8499999999999</ele>
        <time>2022-02-06T14:07:35Z</time>
      </trkpt>
      <trkpt lat="46.320141032338142" lon="8.283099057152867">
        <ele>1873.28</ele>
        <time>2022-02-06T14:07:46Z</time>
      </trkpt>
      <trkpt lat="46.32023666985333" lon="8.283055974170566">
        <ele>1871.97</ele>
        <time>2022-02-06T14:07:58Z</time>
      </trkpt>
      <trkpt lat="46.320314034819603" lon="8.283123197034001">
        <ele>1870.49</ele>
        <time>2022-02-06T14:08:10Z</time>
      </trkpt>
      <trkpt lat="46.32042677141726" lon="8.283211374655366">
        <ele>1868.6099999999999</ele>
        <time>2022-02-06T14:08:24Z</time>
      </trkpt>
      <trkpt lat="46.320544704794884" lon="8.28327021561563">
        <ele>1867.5</ele>
        <time>2022-02-06T14:08:37Z</time>
      </trkpt>
      <trkpt lat="46.320667415857315" lon="8.283332660794258">
        <ele>1866.78</ele>
        <time>2022-02-06T14:08:51Z</time>
      </trkpt>
      <trkpt lat="46.320789121091366" lon="8.283379599452019">
        <ele>1863.79</ele>
        <time>2022-02-06T14:09:05Z</time>
      </trkpt>
      <trkpt lat="46.320815188810229" lon="8.283413965255022">
        <ele>1862.3900000000001</ele>
        <time>2022-02-06T14:09:10Z</time>
      </trkpt>
      <trkpt lat="46.320859948173165" lon="8.283472638577223">
        <ele>1862.3399999999999</ele>
        <time>2022-02-06T14:09:20Z</time>
      </trkpt>
      <trkpt lat="46.32090269587934" lon="8.283474063500762">
        <ele>1863.02</ele>
        <time>2022-02-06T14:09:25Z</time>
      </trkpt>
      <trkpt lat="46.320951897650957" lon="8.283493760973215">
        <ele>1863.6700000000001</ele>
        <time>2022-02-06T14:09:32Z</time>
      </trkpt>
      <trkpt lat="46.321034794673324" lon="8.283608928322792">
        <ele>1863.0699999999999</ele>
        <time>2022-02-06T14:09:46Z</time>
      </trkpt>
      <trkpt lat="46.321074943989515" lon="8.283628039062023">
        <ele>1862.0899999999999</ele>
        <time>2022-02-06T14:09:51Z</time>
      </trkpt>
      <trkpt lat="46.3211689889431" lon="8.283659806475043">
        <ele>1860.54</ele>
        <time>2022-02-06T14:10:04Z</time>
      </trkpt>
      <trkpt lat="46.321271834895015" lon="8.283620243892074">
        <ele>1858.78</ele>
        <time>2022-02-06T14:10:16Z</time>
      </trkpt>
      <trkpt lat="46.321349535137415" lon="8.283586129546166">
        <ele>1856.6500000000001</ele>
        <time>2022-02-06T14:10:28Z</time>
      </trkpt>
      <trkpt lat="46.32139915600419" lon="8.28354774042964">
        <ele>1854.3099999999999</ele>
        <time>2022-02-06T14:10:39Z</time>
      </trkpt>
      <trkpt lat="46.321471743285656" lon="8.283549668267369">
        <ele>1853.02</ele>
        <time>2022-02-06T14:10:50Z</time>
      </trkpt>
      <trkpt lat="46.321555394679308" lon="8.283522929996252">
        <ele>1849.76</ele>
        <time>2022-02-06T14:11:01Z</time>
      </trkpt>
      <trkpt lat="46.321604512631893" lon="8.283524522557855">
        <ele>1848.75</ele>
        <time>2022-02-06T14:11:07Z</time>
      </trkpt>
      <trkpt lat="46.32170015014708" lon="8.283569365739822">
        <ele>1846.6500000000001</ele>
        <time>2022-02-06T14:11:20Z</time>
      </trkpt>
      <trkpt lat="46.321801822632551" lon="8.283616555854678">
        <ele>1844.0899999999999</ele>
        <time>2022-02-06T14:11:33Z</time>
      </trkpt>
      <trkpt lat="46.321875331923366" lon="8.283628206700087">
        <ele>1843.1900000000001</ele>
        <time>2022-02-06T14:11:44Z</time>
      </trkpt>
      <trkpt lat="46.321965772658587" lon="8.2836361695081">
        <ele>1841.46</ele>
        <time>2022-02-06T14:11:54Z</time>
      </trkpt>
      <trkpt lat="46.322070127353072" lon="8.283640444278717">
        <ele>1839.8900000000001</ele>
        <time>2022-02-06T14:12:06Z</time>
      </trkpt>
      <trkpt lat="46.322117317467928" lon="8.283600378781557">
        <ele>1839.6700000000001</ele>
        <time>2022-02-06T14:12:12Z</time>
      </trkpt>
      <trkpt lat="46.322269951924682" lon="8.283502226695418">
        <ele>1836.5599999999999</ele>
        <time>2022-02-06T14:12:29Z</time>
      </trkpt>
      <trkpt lat="46.32240523584187" lon="8.28341530635953">
        <ele>1834.25</ele>
        <time>2022-02-06T14:12:44Z</time>
      </trkpt>
      <trkpt lat="46.322517385706306" lon="8.283336516469717">
        <ele>1833.54</ele>
        <time>2022-02-06T14:12:58Z</time>
      </trkpt>
      <trkpt lat="46.322643114253879" lon="8.28327608294785">
        <ele>1831.73</ele>
        <time>2022-02-06T14:13:12Z</time>
      </trkpt>
      <trkpt lat="46.322677731513977" lon="8.283259151503444">
        <ele>1832.8599999999999</ele>
        <time>2022-02-06T14:13:21Z</time>
      </trkpt>
      <trkpt lat="46.322683179751039" lon="8.283245153725147">
        <ele>1834.3199999999999</ele>
        <time>2022-02-06T14:13:39Z</time>
      </trkpt>
      <trkpt lat="46.322701787576079" lon="8.283253535628319">
        <ele>1833.77</ele>
        <time>2022-02-06T14:14:03Z</time>
      </trkpt>
      <trkpt lat="46.322743445634842" lon="8.283227384090424">
        <ele>1832.5999999999999</ele>
        <time>2022-02-06T14:14:14Z</time>
      </trkpt>
      <trkpt lat="46.32273162715137" lon="8.283092603087425">
        <ele>1831.9100000000001</ele>
        <time>2022-02-06T14:14:26Z</time>
      </trkpt>
      <trkpt lat="46.32269985973835" lon="8.282958744093776">
        <ele>1832.52</ele>
        <time>2022-02-06T14:14:39Z</time>
      </trkpt>
      <trkpt lat="46.322676474228501" lon="8.28283678740263">
        <ele>1833.04</ele>
        <time>2022-02-06T14:14:51Z</time>
      </trkpt>
      <trkpt lat="46.322647053748369" lon="8.282727487385273">
        <ele>1834.3699999999999</ele>
        <time>2022-02-06T14:15:04Z</time>
      </trkpt>
      <trkpt lat="46.322612939402461" lon="8.282606620341539">
        <ele>1836.3299999999999</ele>
        <time>2022-02-06T14:15:18Z</time>
      </trkpt>
      <trkpt lat="46.322577735409141" lon="8.282517604529858">
        <ele>1837.8499999999999</ele>
        <time>2022-02-06T14:15:30Z</time>
      </trkpt>
      <trkpt lat="46.322550410404801" lon="8.282493548467755">
        <ele>1837.1199999999999</ele>
        <time>2022-02-06T14:15:34Z</time>
      </trkpt>
      <trkpt lat="46.322486624121666" lon="8.28245566226542">
        <ele>1836.46</ele>
        <time>2022-02-06T14:15:46Z</time>
      </trkpt>
      <trkpt lat="46.322449911385775" lon="8.282425990328193">
        <ele>1836.3399999999999</ele>
        <time>2022-02-06T14:15:59Z</time>
      </trkpt>
      <trkpt lat="46.322418563067913" lon="8.282380057498813">
        <ele>1835.9200000000001</ele>
        <time>2022-02-06T14:16:09Z</time>
      </trkpt>
      <trkpt lat="46.322412192821503" lon="8.282357007265091">
        <ele>1835.6500000000001</ele>
        <time>2022-02-06T14:16:11Z</time>
      </trkpt>
      <trkpt lat="46.322371289134026" lon="8.282253071665764">
        <ele>1834.1099999999999</ele>
        <time>2022-02-06T14:16:19Z</time>
      </trkpt>
      <trkpt lat="46.322313537821174" lon="8.28215466812253">
        <ele>1833.6600000000001</ele>
        <time>2022-02-06T14:16:28Z</time>
      </trkpt>
      <trkpt lat="46.32219610735774" lon="8.28199683688581">
        <ele>1831.8099999999999</ele>
        <time>2022-02-06T14:16:44Z</time>
      </trkpt>
      <trkpt lat="46.322148079052567" lon="8.281833976507187">
        <ele>1830.8599999999999</ele>
        <time>2022-02-06T14:16:57Z</time>
      </trkpt>
      <trkpt lat="46.322127375751734" lon="8.28166801482439">
        <ele>1830.46</ele>
        <time>2022-02-06T14:17:10Z</time>
      </trkpt>
      <trkpt lat="46.322102062404156" lon="8.281576903536916">
        <ele>1830.54</ele>
        <time>2022-02-06T14:17:21Z</time>
      </trkpt>
      <trkpt lat="46.322039952501655" lon="8.281380431726575">
        <ele>1829.6600000000001</ele>
        <time>2022-02-06T14:17:36Z</time>
      </trkpt>
      <trkpt lat="46.322001228109002" lon="8.281238777562976">
        <ele>1828.8099999999999</ele>
        <time>2022-02-06T14:17:49Z</time>
      </trkpt>
      <trkpt lat="46.321972562000155" lon="8.281128723174334">
        <ele>1828.8900000000001</ele>
        <time>2022-02-06T14:18:01Z</time>
      </trkpt>
      <trkpt lat="46.321978010237217" lon="8.281048340722919">
        <ele>1829.6300000000001</ele>
        <time>2022-02-06T14:18:12Z</time>
      </trkpt>
      <trkpt lat="46.321998629719019" lon="8.28094432130456">
        <ele>1830.3800000000001</ele>
        <time>2022-02-06T14:18:24Z</time>
      </trkpt>
      <trkpt lat="46.322011789306998" lon="8.280879277735949">
        <ele>1830.25</ele>
        <time>2022-02-06T14:18:37Z</time>
      </trkpt>
      <trkpt lat="46.322018494829535" lon="8.280826220288873">
        <ele>1829.8900000000001</ele>
        <time>2022-02-06T14:18:48Z</time>
      </trkpt>
      <trkpt lat="46.322001647204161" lon="8.280814820900559">
        <ele>1830.0599999999999</ele>
        <time>2022-02-06T14:19:03Z</time>
      </trkpt>
      <trkpt lat="46.321984129026532" lon="8.280699318274856">
        <ele>1829.71</ele>
        <time>2022-02-06T14:19:14Z</time>
      </trkpt>
      <trkpt lat="46.321967700496316" lon="8.280636789277196">
        <ele>1828.53</ele>
        <time>2022-02-06T14:19:25Z</time>
      </trkpt>
      <trkpt lat="46.321938531473279" lon="8.280537631362677">
        <ele>1825.51</ele>
        <time>2022-02-06T14:19:35Z</time>
      </trkpt>
      <trkpt lat="46.321949511766434" lon="8.28042640350759">
        <ele>1823.01</ele>
        <time>2022-02-06T14:19:47Z</time>
      </trkpt>
      <trkpt lat="46.321962587535381" lon="8.280363036319614">
        <ele>1821.29</ele>
        <time>2022-02-06T14:20:01Z</time>
      </trkpt>
      <trkpt lat="46.321958396583796" lon="8.280325485393405">
        <ele>1818.9200000000001</ele>
        <time>2022-02-06T14:20:12Z</time>
      </trkpt>
      <trkpt lat="46.321963258087635" lon="8.280295813456178">
        <ele>1818.9300000000001</ele>
        <time>2022-02-06T14:20:32Z</time>
      </trkpt>
      <trkpt lat="46.321920845657587" lon="8.280196655541658">
        <ele>1816.5799999999999</ele>
        <time>2022-02-06T14:20:44Z</time>
      </trkpt>
      <trkpt lat="46.321904668584466" lon="8.280180646106601">
        <ele>1817.1199999999999</ele>
        <time>2022-02-06T14:20:58Z</time>
      </trkpt>
      <trkpt lat="46.321906680241227" lon="8.2801478728652">
        <ele>1817.8299999999999</ele>
        <time>2022-02-06T14:21:07Z</time>
      </trkpt>
      <trkpt lat="46.321907937526703" lon="8.280053492635489">
        <ele>1815.51</ele>
        <time>2022-02-06T14:21:18Z</time>
      </trkpt>
      <trkpt lat="46.321909865364432" lon="8.280052402988076">
        <ele>1815.03</ele>
        <time>2022-02-06T14:21:35Z</time>
      </trkpt>
      <trkpt lat="46.321908859536052" lon="8.280040500685573">
        <ele>1814.99</ele>
        <time>2022-02-06T14:21:55Z</time>
      </trkpt>
      <trkpt lat="46.321889916434884" lon="8.280037567019463">
        <ele>1814.1300000000001</ele>
        <time>2022-02-06T14:22:10Z</time>
      </trkpt>
      <trkpt lat="46.32184624671936" lon="8.279994819313288">
        <ele>1811.1099999999999</ele>
        <time>2022-02-06T14:22:17Z</time>
      </trkpt>
      <trkpt lat="46.321827135980129" lon="8.279958190396428">
        <ele>1810.0999999999999</ele>
        <time>2022-02-06T14:22:29Z</time>
      </trkpt>
      <trkpt lat="46.321831662207842" lon="8.279948970302939">
        <ele>1813.1199999999999</ele>
        <time>2022-02-06T14:22:44Z</time>
      </trkpt>
      <trkpt lat="46.321800230070949" lon="8.279917370527983">
        <ele>1811.0699999999999</ele>
        <time>2022-02-06T14:22:58Z</time>
      </trkpt>
      <trkpt lat="46.321761840954423" lon="8.279837239533663">
        <ele>1808.28</ele>
        <time>2022-02-06T14:23:10Z</time>
      </trkpt>
      <trkpt lat="46.321736108511686" lon="8.279771860688925">
        <ele>1805.99</ele>
        <time>2022-02-06T14:23:21Z</time>
      </trkpt>
      <trkpt lat="46.32172211073339" lon="8.27967831864953">
        <ele>1804.0899999999999</ele>
        <time>2022-02-06T14:23:31Z</time>
      </trkpt>
      <trkpt lat="46.321727223694324" lon="8.279629116877914">
        <ele>1802.6600000000001</ele>
        <time>2022-02-06T14:23:43Z</time>
      </trkpt>
      <trkpt lat="46.321667293086648" lon="8.279561810195446">
        <ele>1800.9400000000001</ele>
        <time>2022-02-06T14:23:55Z</time>
      </trkpt>
      <trkpt lat="46.321655390784144" lon="8.27948042191565">
        <ele>1799.1400000000001</ele>
        <time>2022-02-06T14:24:07Z</time>
      </trkpt>
      <trkpt lat="46.321667963638902" lon="8.279420407488942">
        <ele>1798.02</ele>
        <time>2022-02-06T14:24:19Z</time>
      </trkpt>
      <trkpt lat="46.321705849841237" lon="8.279347065836191">
        <ele>1796.5</ele>
        <time>2022-02-06T14:24:31Z</time>
      </trkpt>
      <trkpt lat="46.321734264492989" lon="8.279294259846211">
        <ele>1793.4400000000001</ele>
        <time>2022-02-06T14:24:43Z</time>
      </trkpt>
      <trkpt lat="46.321715572848916" lon="8.279256457462907">
        <ele>1791.1800000000001</ele>
        <time>2022-02-06T14:24:55Z</time>
      </trkpt>
      <trkpt lat="46.321703586727381" lon="8.279196191579104">
        <ele>1788.75</ele>
        <time>2022-02-06T14:25:05Z</time>
      </trkpt>
      <trkpt lat="46.321742562577128" lon="8.279138440266252">
        <ele>1785.45</ele>
        <time>2022-02-06T14:25:13Z</time>
      </trkpt>
      <trkpt lat="46.321770055219531" lon="8.279078174382448">
        <ele>1783.5899999999999</ele>
        <time>2022-02-06T14:25:23Z</time>
      </trkpt>
      <trkpt lat="46.321739880368114" lon="8.279010783880949">
        <ele>1782.1600000000001</ele>
        <time>2022-02-06T14:25:33Z</time>
      </trkpt>
      <trkpt lat="46.321736108511686" lon="8.278974741697311">
        <ele>1781.27</ele>
        <time>2022-02-06T14:25:44Z</time>
      </trkpt>
      <trkpt lat="46.321740299463272" lon="8.278968203812838">
        <ele>1780.96</ele>
        <time>2022-02-06T14:26:01Z</time>
      </trkpt>
      <trkpt lat="46.321722781285644" lon="8.278951356187463">
        <ele>1779.9300000000001</ele>
        <time>2022-02-06T14:26:11Z</time>
      </trkpt>
      <trkpt lat="46.321694366633892" lon="8.278908943757415">
        <ele>1778.28</ele>
        <time>2022-02-06T14:26:22Z</time>
      </trkpt>
      <trkpt lat="46.321685649454594" lon="8.278816407546401">
        <ele>1775.21</ele>
        <time>2022-02-06T14:26:33Z</time>
      </trkpt>
      <trkpt lat="46.32169327698648" lon="8.278722194954753">
        <ele>1771.96</ele>
        <time>2022-02-06T14:26:42Z</time>
      </trkpt>
      <trkpt lat="46.321704173460603" lon="8.278651367872953">
        <ele>1769.53</ele>
        <time>2022-02-06T14:26:52Z</time>
      </trkpt>
      <trkpt lat="46.321701072156429" lon="8.278613314032555">
        <ele>1768.6300000000001</ele>
        <time>2022-02-06T14:27:02Z</time>
      </trkpt>
      <trkpt lat="46.321700988337398" lon="8.278605435043573">
        <ele>1770.04</ele>
        <time>2022-02-06T14:27:25Z</time>
      </trkpt>
      <trkpt lat="46.321690678596497" lon="8.278502337634563">
        <ele>1769.6400000000001</ele>
        <time>2022-02-06T14:27:35Z</time>
      </trkpt>
      <trkpt lat="46.321658408269286" lon="8.278347356244922">
        <ele>1766.78</ele>
        <time>2022-02-06T14:27:44Z</time>
      </trkpt>
      <trkpt lat="46.321635106578469" lon="8.278196649625897">
        <ele>1763.6300000000001</ele>
        <time>2022-02-06T14:27:55Z</time>
      </trkpt>
      <trkpt lat="46.321592526510358" lon="8.278032029047608">
        <ele>1760.51</ele>
        <time>2022-02-06T14:28:07Z</time>
      </trkpt>
      <trkpt lat="46.321563022211194" lon="8.277846872806549">
        <ele>1759.1400000000001</ele>
        <time>2022-02-06T14:28:22Z</time>
      </trkpt>
      <trkpt lat="46.32157014682889" lon="8.277852823957801">
        <ele>1758.6900000000001</ele>
        <time>2022-02-06T14:28:35Z</time>
      </trkpt>
      <trkpt lat="46.321578109636903" lon="8.277851734310389">
        <ele>1759.97</ele>
        <time>2022-02-06T14:28:49Z</time>
      </trkpt>
      <trkpt lat="46.321580540388823" lon="8.27786355279386">
        <ele>1761.71</ele>
        <time>2022-02-06T14:29:05Z</time>
      </trkpt>
      <trkpt lat="46.321587413549423" lon="8.27786891721189">
        <ele>1760.9300000000001</ele>
        <time>2022-02-06T14:29:18Z</time>
      </trkpt>
      <trkpt lat="46.321571236476302" lon="8.277859445661306">
        <ele>1761.77</ele>
        <time>2022-02-06T14:29:39Z</time>
      </trkpt>
      <trkpt lat="46.321573080495" lon="8.277857853099704">
        <ele>1762.4300000000001</ele>
        <time>2022-02-06T14:29:55Z</time>
      </trkpt>
      <trkpt lat="46.321578780189157" lon="8.277867659926415">
        <ele>1762.2</ele>
        <time>2022-02-06T14:30:13Z</time>
      </trkpt>
      <trkpt lat="46.321574924513698" lon="8.277875371277332">
        <ele>1761.1900000000001</ele>
        <time>2022-02-06T14:30:31Z</time>
      </trkpt>
      <trkpt lat="46.321571487933397" lon="8.277864893898368">
        <ele>1759.3599999999999</ele>
        <time>2022-02-06T14:30:59Z</time>
      </trkpt>
      <trkpt lat="46.321570817381144" lon="8.2778649777174">
        <ele>1758.27</ele>
        <time>2022-02-06T14:31:15Z</time>
      </trkpt>
      <trkpt lat="46.32156478241086" lon="8.27787428162992">
        <ele>1758.1800000000001</ele>
        <time>2022-02-06T14:31:31Z</time>
      </trkpt>
      <trkpt lat="46.321565955877304" lon="8.27788065187633">
        <ele>1759.0999999999999</ele>
        <time>2022-02-06T14:31:47Z</time>
      </trkpt>
      <trkpt lat="46.32156478241086" lon="8.277881825342774">
        <ele>1755.8599999999999</ele>
        <time>2022-02-06T14:31:51Z</time>
      </trkpt>
      <trkpt lat="46.321562770754099" lon="8.277879226952791">
        <ele>1760.24</ele>
        <time>2022-02-06T14:31:52Z</time>
      </trkpt>
      <trkpt lat="46.321559920907021" lon="8.277871683239937">
        <ele>1762.6500000000001</ele>
        <time>2022-02-06T14:31:54Z</time>
      </trkpt>
      <trkpt lat="46.321515999734402" lon="8.277777805924416">
        <ele>1760.5699999999999</ele>
        <time>2022-02-06T14:32:05Z</time>
      </trkpt>
      <trkpt lat="46.321513820439577" lon="8.277769591659308">
        <ele>1759.02</ele>
        <time>2022-02-06T14:32:10Z</time>
      </trkpt>
      <trkpt lat="46.321509210392833" lon="8.27777948230505">
        <ele>1756.75</ele>
        <time>2022-02-06T14:32:18Z</time>
      </trkpt>
      <trkpt lat="46.32150761783123" lon="8.277782667428255">
        <ele>1760.1900000000001</ele>
        <time>2022-02-06T14:32:20Z</time>
      </trkpt>
      <trkpt lat="46.321507953107357" lon="8.27778534963727">
        <ele>1761.4400000000001</ele>
        <time>2022-02-06T14:32:22Z</time>
      </trkpt>
      <trkpt lat="46.32149588316679" lon="8.277781996876001">
        <ele>1759.22</ele>
        <time>2022-02-06T14:32:26Z</time>
      </trkpt>
      <trkpt lat="46.321459924802184" lon="8.277642857283354">
        <ele>1759.54</ele>
        <time>2022-02-06T14:32:37Z</time>
      </trkpt>
      <trkpt lat="46.321450872346759" lon="8.27746482565999">
        <ele>1757.49</ele>
        <time>2022-02-06T14:32:51Z</time>
      </trkpt>
      <trkpt lat="46.321410974487662" lon="8.277361895889044">
        <ele>1755.1800000000001</ele>
        <time>2022-02-06T14:33:04Z</time>
      </trkpt>
      <trkpt lat="46.321370573714375" lon="8.277207333594561">
        <ele>1751.98</ele>
        <time>2022-02-06T14:33:17Z</time>
      </trkpt>
      <trkpt lat="46.32135272026062" lon="8.277093842625618">
        <ele>1750.52</ele>
        <time>2022-02-06T14:33:29Z</time>
      </trkpt>
      <trkpt lat="46.321326987817883" lon="8.277021842077375">
        <ele>1747.73</ele>
        <time>2022-02-06T14:33:41Z</time>
      </trkpt>
      <trkpt lat="46.321280216798186" lon="8.276891252025962">
        <ele>1744.8299999999999</ele>
        <time>2022-02-06T14:33:55Z</time>
      </trkpt>
      <trkpt lat="46.32124618627131" lon="8.27676803804934">
        <ele>1743</ele>
        <time>2022-02-06T14:34:08Z</time>
      </trkpt>
      <trkpt lat="46.32122858427465" lon="8.276564357802272">
        <ele>1740.28</ele>
        <time>2022-02-06T14:34:22Z</time>
      </trkpt>
      <trkpt lat="46.321206791326404" lon="8.276409627869725">
        <ele>1739.4400000000001</ele>
        <time>2022-02-06T14:34:34Z</time>
      </trkpt>
      <trkpt lat="46.321182399988174" lon="8.276315247640014">
        <ele>1741.8399999999999</ele>
        <time>2022-02-06T14:34:42Z</time>
      </trkpt>
      <trkpt lat="46.321158427745104" lon="8.276135288178921">
        <ele>1744.74</ele>
        <time>2022-02-06T14:34:56Z</time>
      </trkpt>
      <trkpt lat="46.3210912887007" lon="8.276016097515822">
        <ele>1746.9300000000001</ele>
        <time>2022-02-06T14:35:07Z</time>
      </trkpt>
      <trkpt lat="46.321046194061637" lon="8.275859607383609">
        <ele>1748.3499999999999</ele>
        <time>2022-02-06T14:35:19Z</time>
      </trkpt>
      <trkpt lat="46.321006463840604" lon="8.275720467790961">
        <ele>1749.28</ele>
        <time>2022-02-06T14:35:31Z</time>
      </trkpt>
      <trkpt lat="46.320949969813228" lon="8.275616616010666">
        <ele>1750.6900000000001</ele>
        <time>2022-02-06T14:35:43Z</time>
      </trkpt>
      <trkpt lat="46.320865731686354" lon="8.275525253266096">
        <ele>1751.1199999999999</ele>
        <time>2022-02-06T14:35:56Z</time>
      </trkpt>
      <trkpt lat="46.320810159668326" lon="8.275438416749239">
        <ele>1751.5</ele>
        <time>2022-02-06T14:36:07Z</time>
      </trkpt>
      <trkpt lat="46.320751402527094" lon="8.275331547483802">
        <ele>1749.1099999999999</ele>
        <time>2022-02-06T14:36:19Z</time>
      </trkpt>
      <trkpt lat="46.320727597922087" lon="8.275286536663771">
        <ele>1748.5</ele>
        <time>2022-02-06T14:36:24Z</time>
      </trkpt>
      <trkpt lat="46.320683006197214" lon="8.275234401226044">
        <ele>1744.45</ele>
        <time>2022-02-06T14:36:29Z</time>
      </trkpt>
      <trkpt lat="46.320653418079019" lon="8.275186875835061">
        <ele>1740.3299999999999</ele>
        <time>2022-02-06T14:36:33Z</time>
      </trkpt>
      <trkpt lat="46.320639001205564" lon="8.275169441476464">
        <ele>1738.9300000000001</ele>
        <time>2022-02-06T14:36:35Z</time>
      </trkpt>
      <trkpt lat="46.320595750585198" lon="8.275113115087152">
        <ele>1740.5899999999999</ele>
        <time>2022-02-06T14:36:44Z</time>
      </trkpt>
      <trkpt lat="46.320501370355487" lon="8.274977831169963">
        <ele>1741.48</ele>
        <time>2022-02-06T14:36:57Z</time>
      </trkpt>
      <trkpt lat="46.3204644061625" lon="8.274798626080155">
        <ele>1740.1500000000001</ele>
        <time>2022-02-06T14:37:10Z</time>
      </trkpt>
      <trkpt lat="46.320411432534456" lon="8.27459217980504">
        <ele>1743.26</ele>
        <time>2022-02-06T14:37:24Z</time>
      </trkpt>
      <trkpt lat="46.320330211892724" lon="8.274447759613395">
        <ele>1745.05</ele>
        <time>2022-02-06T14:37:37Z</time>
      </trkpt>
      <trkpt lat="46.32021957077086" lon="8.27430535107851">
        <ele>1743.8800000000001</ele>
        <time>2022-02-06T14:37:51Z</time>
      </trkpt>
      <trkpt lat="46.320169111713767" lon="8.274224800989032">
        <ele>1745.0599999999999</ele>
        <time>2022-02-06T14:38:02Z</time>
      </trkpt>
      <trkpt lat="46.320144636556506" lon="8.274202840402722">
        <ele>1744.6300000000001</ele>
        <time>2022-02-06T14:38:13Z</time>
      </trkpt>
      <trkpt lat="46.32012041285634" lon="8.274196721613407">
        <ele>1744.1199999999999</ele>
        <time>2022-02-06T14:38:24Z</time>
      </trkpt>
      <trkpt lat="46.320083867758512" lon="8.274159757420421">
        <ele>1742.53</ele>
        <time>2022-02-06T14:38:36Z</time>
      </trkpt>
      <trkpt lat="46.320041287690401" lon="8.274094127118588">
        <ele>1741.1199999999999</ele>
        <time>2022-02-06T14:38:49Z</time>
      </trkpt>
      <trkpt lat="46.320013795047998" lon="8.274077028036118">
        <ele>1739.99</ele>
        <time>2022-02-06T14:39:02Z</time>
      </trkpt>
      <trkpt lat="46.319975573569536" lon="8.274005111306906">
        <ele>1739.1199999999999</ele>
        <time>2022-02-06T14:39:09Z</time>
      </trkpt>
      <trkpt lat="46.319940453395247" lon="8.273961190134287">
        <ele>1737.48</ele>
        <time>2022-02-06T14:39:13Z</time>
      </trkpt>
      <trkpt lat="46.319892089813948" lon="8.273850381374359">
        <ele>1736.1099999999999</ele>
        <time>2022-02-06T14:39:25Z</time>
      </trkpt>
      <trkpt lat="46.319864513352513" lon="8.273756839334965">
        <ele>1735.0999999999999</ele>
        <time>2022-02-06T14:39:36Z</time>
      </trkpt>
      <trkpt lat="46.319846659898758" lon="8.273695819079876">
        <ele>1733.76</ele>
        <time>2022-02-06T14:39:43Z</time>
      </trkpt>
      <trkpt lat="46.31981547921896" lon="8.273653574287891">
        <ele>1733.04</ele>
        <time>2022-02-06T14:39:54Z</time>
      </trkpt>
      <trkpt lat="46.319792093709111" lon="8.273598337545991">
        <ele>1731.48</ele>
        <time>2022-02-06T14:40:06Z</time>
      </trkpt>
      <trkpt lat="46.319748172536492" lon="8.273524828255177">
        <ele>1728.3299999999999</ele>
        <time>2022-02-06T14:40:16Z</time>
      </trkpt>
      <trkpt lat="46.319706430658698" lon="8.273447044193745">
        <ele>1726.6300000000001</ele>
        <time>2022-02-06T14:40:27Z</time>
      </trkpt>
      <trkpt lat="46.319701736792922" lon="8.273371607065201">
        <ele>1724.1300000000001</ele>
        <time>2022-02-06T14:40:37Z</time>
      </trkpt>
      <trkpt lat="46.319650439545512" lon="8.273297511041164">
        <ele>1720.8399999999999</ele>
        <time>2022-02-06T14:40:49Z</time>
      </trkpt>
      <trkpt lat="46.319628395140171" lon="8.273267755284905">
        <ele>1718.9300000000001</ele>
        <time>2022-02-06T14:40:58Z</time>
      </trkpt>
      <trkpt lat="46.319610290229321" lon="8.273270186036825">
        <ele>1717.1199999999999</ele>
        <time>2022-02-06T14:41:03Z</time>
      </trkpt>
      <trkpt lat="46.319585647433996" lon="8.273258283734322">
        <ele>1715.8900000000001</ele>
        <time>2022-02-06T14:41:06Z</time>
      </trkpt>
      <trkpt lat="46.319575672969222" lon="8.273141691461206">
        <ele>1713.8299999999999</ele>
        <time>2022-02-06T14:41:17Z</time>
      </trkpt>
      <trkpt lat="46.319575086236" lon="8.273119395598769">
        <ele>1713.95</ele>
        <time>2022-02-06T14:41:25Z</time>
      </trkpt>
      <trkpt lat="46.319522028788924" lon="8.272943710908294">
        <ele>1712.3299999999999</ele>
        <time>2022-02-06T14:41:40Z</time>
      </trkpt>
      <trkpt lat="46.319492692127824" lon="8.272788980975747">
        <ele>1711.25</ele>
        <time>2022-02-06T14:41:53Z</time>
      </trkpt>
      <trkpt lat="46.319472575560212" lon="8.272623354569078">
        <ele>1711.78</ele>
        <time>2022-02-06T14:42:06Z</time>
      </trkpt>
      <trkpt lat="46.319411722943187" lon="8.272461332380772">
        <ele>1711.9200000000001</ele>
        <time>2022-02-06T14:42:19Z</time>
      </trkpt>
      <trkpt lat="46.31934005767107" lon="8.272313056513667">
        <ele>1713.01</ele>
        <time>2022-02-06T14:42:32Z</time>
      </trkpt>
      <trkpt lat="46.319335531443357" lon="8.27230048365891">
        <ele>1713.26</ele>
        <time>2022-02-06T14:42:33Z</time>
      </trkpt>
      <trkpt lat="46.319243749603629" lon="8.272140556946397">
        <ele>1712.1900000000001</ele>
        <time>2022-02-06T14:42:49Z</time>
      </trkpt>
      <trkpt lat="46.319183567538857" lon="8.272028490900993">
        <ele>1712.3099999999999</ele>
        <time>2022-02-06T14:43:01Z</time>
      </trkpt>
      <trkpt lat="46.319130007177591" lon="8.271869067102671">
        <ele>1710.53</ele>
        <time>2022-02-06T14:43:15Z</time>
      </trkpt>
      <trkpt lat="46.319099077954888" lon="8.271755492314696">
        <ele>1708.53</ele>
        <time>2022-02-06T14:43:27Z</time>
      </trkpt>
      <trkpt lat="46.319081392139196" lon="8.271621130406857">
        <ele>1705.8599999999999</ele>
        <time>2022-02-06T14:43:38Z</time>
      </trkpt>
      <trkpt lat="46.319045182317495" lon="8.271463550627232">
        <ele>1703.6199999999999</ele>
        <time>2022-02-06T14:43:49Z</time>
      </trkpt>
      <trkpt lat="46.31901073269546" lon="8.271367158740759">
        <ele>1703.8699999999999</ele>
        <time>2022-02-06T14:43:57Z</time>
      </trkpt>
      <trkpt lat="46.318955076858401" lon="8.271284261718392">
        <ele>1704.0899999999999</ele>
        <time>2022-02-06T14:44:06Z</time>
      </trkpt>
      <trkpt lat="46.318944096565247" lon="8.271259786561132">
        <ele>1704.25</ele>
        <time>2022-02-06T14:44:08Z</time>
      </trkpt>
      <trkpt lat="46.318897074088454" lon="8.27122550457716">
        <ele>1704.0799999999999</ele>
        <time>2022-02-06T14:44:12Z</time>
      </trkpt>
      <trkpt lat="46.318900929763913" lon="8.271187283098698">
        <ele>1704.0599999999999</ele>
        <time>2022-02-06T14:44:15Z</time>
      </trkpt>
      <trkpt lat="46.318891709670424" lon="8.271052753552795">
        <ele>1703.74</ele>
        <time>2022-02-06T14:44:24Z</time>
      </trkpt>
      <trkpt lat="46.318866647779942" lon="8.270965917035937">
        <ele>1703.23</ele>
        <time>2022-02-06T14:44:30Z</time>
      </trkpt>
      <trkpt lat="46.31885189563036" lon="8.270903639495373">
        <ele>1702.8099999999999</ele>
        <time>2022-02-06T14:44:35Z</time>
      </trkpt>
      <trkpt lat="46.318819206207991" lon="8.270803308114409">
        <ele>1701.1500000000001</ele>
        <time>2022-02-06T14:44:43Z</time>
      </trkpt>
      <trkpt lat="46.318759191781282" lon="8.270593676716089">
        <ele>1699.22</ele>
        <time>2022-02-06T14:44:57Z</time>
      </trkpt>
      <trkpt lat="46.318756928667426" lon="8.27058345079422">
        <ele>1699.1099999999999</ele>
        <time>2022-02-06T14:44:58Z</time>
      </trkpt>
      <trkpt lat="46.318733794614673" lon="8.270529974251986">
        <ele>1698.8800000000001</ele>
        <time>2022-02-06T14:45:02Z</time>
      </trkpt>
      <trkpt lat="46.318687358871102" lon="8.270441796630621">
        <ele>1698.7</ele>
        <time>2022-02-06T14:45:10Z</time>
      </trkpt>
      <trkpt lat="46.318680234253407" lon="8.270429978147149">
        <ele>1698.55</ele>
        <time>2022-02-06T14:45:11Z</time>
      </trkpt>
      <trkpt lat="46.318644024431705" lon="8.270344901829958">
        <ele>1697.6300000000001</ele>
        <time>2022-02-06T14:45:17Z</time>
      </trkpt>
      <trkpt lat="46.318629691377282" lon="8.270283462479711">
        <ele>1696.6700000000001</ele>
        <time>2022-02-06T14:45:21Z</time>
      </trkpt>
      <trkpt lat="46.318612340837717" lon="8.270223783329129">
        <ele>1696.5799999999999</ele>
        <time>2022-02-06T14:45:26Z</time>
      </trkpt>
      <trkpt lat="46.318571688607335" lon="8.270034519955516">
        <ele>1696.3099999999999</ele>
        <time>2022-02-06T14:45:39Z</time>
      </trkpt>
      <trkpt lat="46.318498849868774" lon="8.269842742010951">
        <ele>1698.9100000000001</ele>
        <time>2022-02-06T14:45:54Z</time>
      </trkpt>
      <trkpt lat="46.318436320871115" lon="8.269774597138166">
        <ele>1698.77</ele>
        <time>2022-02-06T14:46:02Z</time>
      </trkpt>
      <trkpt lat="46.318384520709515" lon="8.269670577719808">
        <ele>1698.49</ele>
        <time>2022-02-06T14:46:11Z</time>
      </trkpt>
      <trkpt lat="46.318369517102838" lon="8.269622717052698">
        <ele>1698.27</ele>
        <time>2022-02-06T14:46:14Z</time>
      </trkpt>
      <trkpt lat="46.318352166563272" lon="8.269558344036341">
        <ele>1697.52</ele>
        <time>2022-02-06T14:46:19Z</time>
      </trkpt>
      <trkpt lat="46.318360213190317" lon="8.269541328772903">
        <ele>1697.23</ele>
        <time>2022-02-06T14:46:20Z</time>
      </trkpt>
      <trkpt lat="46.318377647548914" lon="8.269439321011305">
        <ele>1694.71</ele>
        <time>2022-02-06T14:46:32Z</time>
      </trkpt>
      <trkpt lat="46.318366080522537" lon="8.269407050684094">
        <ele>1693.4000000000001</ele>
        <time>2022-02-06T14:46:43Z</time>
      </trkpt>
      <trkpt lat="46.318347724154592" lon="8.269366817548871">
        <ele>1692.1900000000001</ele>
        <time>2022-02-06T14:46:46Z</time>
      </trkpt>
      <trkpt lat="46.318340348079801" lon="8.269355753436685">
        <ele>1691.76</ele>
        <time>2022-02-06T14:46:47Z</time>
      </trkpt>
      <trkpt lat="46.318333894014359" lon="8.269342510029674">
        <ele>1691.78</ele>
        <time>2022-02-06T14:46:48Z</time>
      </trkpt>
      <trkpt lat="46.318326685577631" lon="8.269329518079758">
        <ele>1691.4100000000001</ele>
        <time>2022-02-06T14:46:49Z</time>
      </trkpt>
      <trkpt lat="46.318320818245411" lon="8.269314179196954">
        <ele>1691.1300000000001</ele>
        <time>2022-02-06T14:46:50Z</time>
      </trkpt>
      <trkpt lat="46.318276058882475" lon="8.269204124808312">
        <ele>1689.3099999999999</ele>
        <time>2022-02-06T14:46:58Z</time>
      </trkpt>
      <trkpt lat="46.318265413865447" lon="8.26916741207242">
        <ele>1688.9200000000001</ele>
        <time>2022-02-06T14:47:00Z</time>
      </trkpt>
      <trkpt lat="46.318250494077802" lon="8.269093735143542">
        <ele>1687.72</ele>
        <time>2022-02-06T14:47:06Z</time>
      </trkpt>
      <trkpt lat="46.318248985335231" lon="8.269076636061072">
        <ele>1687.52</ele>
        <time>2022-02-06T14:47:07Z</time>
      </trkpt>
      <trkpt lat="46.318232137709856" lon="8.268875470384955">
        <ele>1686.49</ele>
        <time>2022-02-06T14:47:20Z</time>
      </trkpt>
      <trkpt lat="46.318230209872127" lon="8.268844457343221">
        <ele>1686.53</ele>
        <time>2022-02-06T14:47:23Z</time>
      </trkpt>
      <trkpt lat="46.318229455500841" lon="8.268828196451068">
        <ele>1686.6099999999999</ele>
        <time>2022-02-06T14:47:24Z</time>
      </trkpt>
      <trkpt lat="46.318228617310524" lon="8.268811600282788">
        <ele>1686.6300000000001</ele>
        <time>2022-02-06T14:47:25Z</time>
      </trkpt>
      <trkpt lat="46.318228365853429" lon="8.268794333562255">
        <ele>1686.53</ele>
        <time>2022-02-06T14:47:26Z</time>
      </trkpt>
      <trkpt lat="46.318202968686819" lon="8.26862258836627">
        <ele>1686.9400000000001</ele>
        <time>2022-02-06T14:47:38Z</time>
      </trkpt>
      <trkpt lat="46.3182039745152" lon="8.268451597541571">
        <ele>1687.4300000000001</ele>
        <time>2022-02-06T14:47:50Z</time>
      </trkpt>
      <trkpt lat="46.318176062777638" lon="8.268279768526554">
        <ele>1689.28</ele>
        <time>2022-02-06T14:48:02Z</time>
      </trkpt>
      <trkpt lat="46.318168854340911" lon="8.268236014991999">
        <ele>1689.3</ele>
        <time>2022-02-06T14:48:05Z</time>
      </trkpt>
      <trkpt lat="46.318165920674801" lon="8.268219251185656">
        <ele>1689.0899999999999</ele>
        <time>2022-02-06T14:48:06Z</time>
      </trkpt>
      <trkpt lat="46.318158125504851" lon="8.268203241750598">
        <ele>1688.8</ele>
        <time>2022-02-06T14:48:07Z</time>
      </trkpt>
      <trkpt lat="46.318149324506521" lon="8.26818723231554">
        <ele>1688.55</ele>
        <time>2022-02-06T14:48:08Z</time>
      </trkpt>
      <trkpt lat="46.318142032250762" lon="8.268175832927227">
        <ele>1688.3599999999999</ele>
        <time>2022-02-06T14:48:09Z</time>
      </trkpt>
      <trkpt lat="46.318098781630397" lon="8.26809243299067">
        <ele>1685.3599999999999</ele>
        <time>2022-02-06T14:48:18Z</time>
      </trkpt>
      <trkpt lat="46.318040695041418" lon="8.267983049154282">
        <ele>1683.6700000000001</ele>
        <time>2022-02-06T14:48:27Z</time>
      </trkpt>
      <trkpt lat="46.317981015890837" lon="8.267835779115558">
        <ele>1684.6199999999999</ele>
        <time>2022-02-06T14:48:40Z</time>
      </trkpt>
      <trkpt lat="46.317972801625729" lon="8.26779730618">
        <ele>1685.0899999999999</ele>
        <time>2022-02-06T14:48:42Z</time>
      </trkpt>
      <trkpt lat="46.317955534905195" lon="8.267763862386346">
        <ele>1684.53</ele>
        <time>2022-02-06T14:48:44Z</time>
      </trkpt>
      <trkpt lat="46.317947739735246" lon="8.267747852951288">
        <ele>1684.4400000000001</ele>
        <time>2022-02-06T14:48:45Z</time>
      </trkpt>
      <trkpt lat="46.317939944565296" lon="8.267732514068484">
        <ele>1684.3699999999999</ele>
        <time>2022-02-06T14:48:46Z</time>
      </trkpt>
      <trkpt lat="46.317875571548939" lon="8.267610808834434">
        <ele>1684.1199999999999</ele>
        <time>2022-02-06T14:48:55Z</time>
      </trkpt>
      <trkpt lat="46.31779502145946" lon="8.267500251531601">
        <ele>1684.01</ele>
        <time>2022-02-06T14:49:06Z</time>
      </trkpt>
      <trkpt lat="46.317706676200032" lon="8.267353232949972">
        <ele>1685.1099999999999</ele>
        <time>2022-02-06T14:49:20Z</time>
      </trkpt>
      <trkpt lat="46.317617325112224" lon="8.267219457775354">
        <ele>1685.1199999999999</ele>
        <time>2022-02-06T14:49:34Z</time>
      </trkpt>
      <trkpt lat="46.317555634304881" lon="8.267128514125943">
        <ele>1685.5999999999999</ele>
        <time>2022-02-06T14:49:44Z</time>
      </trkpt>
      <trkpt lat="46.317497296258807" lon="8.267042264342308">
        <ele>1685.78</ele>
        <time>2022-02-06T14:49:55Z</time>
      </trkpt>
      <trkpt lat="46.317421775311232" lon="8.266904214397073">
        <ele>1684.6700000000001</ele>
        <time>2022-02-06T14:50:10Z</time>
      </trkpt>
      <trkpt lat="46.317366370931268" lon="8.266763985157013">
        <ele>1682.8299999999999</ele>
        <time>2022-02-06T14:50:23Z</time>
      </trkpt>
      <trkpt lat="46.31733912974596" lon="8.266703383997083">
        <ele>1682.3199999999999</ele>
        <time>2022-02-06T14:50:28Z</time>
      </trkpt>
      <trkpt lat="46.317300740629435" lon="8.266542619094253">
        <ele>1680.8299999999999</ele>
        <time>2022-02-06T14:50:41Z</time>
      </trkpt>
      <trkpt lat="46.317287581041455" lon="8.26651026494801">
        <ele>1680.6500000000001</ele>
        <time>2022-02-06T14:50:47Z</time>
      </trkpt>
      <trkpt lat="46.317281546071172" lon="8.266496183350682">
        <ele>1680.6199999999999</ele>
        <time>2022-02-06T14:50:48Z</time>
      </trkpt>
      <trkpt lat="46.31726142950356" lon="8.266442287713289">
        <ele>1679.8</ele>
        <time>2022-02-06T14:50:54Z</time>
      </trkpt>
      <trkpt lat="46.317255645990372" lon="8.266426613554359">
        <ele>1679.6099999999999</ele>
        <time>2022-02-06T14:50:55Z</time>
      </trkpt>
      <trkpt lat="46.317242654040456" lon="8.266382524743676">
        <ele>1679.1199999999999</ele>
        <time>2022-02-06T14:50:58Z</time>
      </trkpt>
      <trkpt lat="46.31723603233695" lon="8.266354277729988">
        <ele>1678.71</ele>
        <time>2022-02-06T14:51:10Z</time>
      </trkpt>
      <trkpt lat="46.317242570221424" lon="8.266342962160707">
        <ele>1679.53</ele>
        <time>2022-02-06T14:51:22Z</time>
      </trkpt>
      <trkpt lat="46.317257322371006" lon="8.266315385699272">
        <ele>1679.48</ele>
        <time>2022-02-06T14:51:43Z</time>
      </trkpt>
      <trkpt lat="46.317254723981023" lon="8.266313625499606">
        <ele>1680.1600000000001</ele>
        <time>2022-02-06T14:52:01Z</time>
      </trkpt>
      <trkpt lat="46.317254472523928" lon="8.26631530188024">
        <ele>1680.6800000000001</ele>
        <time>2022-02-06T14:52:21Z</time>
      </trkpt>
      <trkpt lat="46.317256400361657" lon="8.266310272738338">
        <ele>1680.9300000000001</ele>
        <time>2022-02-06T14:52:34Z</time>
      </trkpt>
      <trkpt lat="46.317273667082191" lon="8.26631136238575">
        <ele>1680.98</ele>
        <time>2022-02-06T14:52:59Z</time>
      </trkpt>
      <trkpt lat="46.317280456423759" lon="8.266274984925985">
        <ele>1679.4400000000001</ele>
        <time>2022-02-06T14:53:14Z</time>
      </trkpt>
      <trkpt lat="46.317279199138284" lon="8.266259226948023">
        <ele>1679.0899999999999</ele>
        <time>2022-02-06T14:53:15Z</time>
      </trkpt>
      <trkpt lat="46.317278360947967" lon="8.266241205856204">
        <ele>1678.5699999999999</ele>
        <time>2022-02-06T14:53:16Z</time>
      </trkpt>
      <trkpt lat="46.317280372604728" lon="8.26622536405921">
        <ele>1678.29</ele>
        <time>2022-02-06T14:53:17Z</time>
      </trkpt>
      <trkpt lat="46.317283222451806" lon="8.266211031004787">
        <ele>1677.8299999999999</ele>
        <time>2022-02-06T14:53:18Z</time>
      </trkpt>
      <trkpt lat="46.317317336797714" lon="8.266014643013477">
        <ele>1676.7</ele>
        <time>2022-02-06T14:53:31Z</time>
      </trkpt>
      <trkpt lat="46.317281629890203" lon="8.265869300812483">
        <ele>1674.9200000000001</ele>
        <time>2022-02-06T14:53:41Z</time>
      </trkpt>
      <trkpt lat="46.317258831113577" lon="8.265669140964747">
        <ele>1673.49</ele>
        <time>2022-02-06T14:53:54Z</time>
      </trkpt>
      <trkpt lat="46.317213987931609" lon="8.265463951975107">
        <ele>1673.1700000000001</ele>
        <time>2022-02-06T14:54:07Z</time>
      </trkpt>
      <trkpt lat="46.317129833623767" lon="8.265266306698322">
        <ele>1673.54</ele>
        <time>2022-02-06T14:54:21Z</time>
      </trkpt>
      <trkpt lat="46.317120026797056" lon="8.265258427709341">
        <ele>1673.48</ele>
        <time>2022-02-06T14:54:22Z</time>
      </trkpt>
      <trkpt lat="46.317014247179031" lon="8.265176704153419">
        <ele>1672.5</ele>
        <time>2022-02-06T14:54:32Z</time>
      </trkpt>
      <trkpt lat="46.317004691809416" lon="8.265167651697993">
        <ele>1672.3599999999999</ele>
        <time>2022-02-06T14:54:33Z</time>
      </trkpt>
      <trkpt lat="46.316996477544308" lon="8.265158012509346">
        <ele>1672.3199999999999</ele>
        <time>2022-02-06T14:54:34Z</time>
      </trkpt>
      <trkpt lat="46.316968481987715" lon="8.26509665697813">
        <ele>1671.74</ele>
        <time>2022-02-06T14:54:39Z</time>
      </trkpt>
      <trkpt lat="46.316950125619769" lon="8.265061201527715">
        <ele>1671.54</ele>
        <time>2022-02-06T14:54:42Z</time>
      </trkpt>
      <trkpt lat="46.316942581906915" lon="8.265049215406179">
        <ele>1671.3900000000001</ele>
        <time>2022-02-06T14:54:43Z</time>
      </trkpt>
      <trkpt lat="46.316935122013092" lon="8.265036139637232">
        <ele>1671.22</ele>
        <time>2022-02-06T14:54:44Z</time>
      </trkpt>
      <trkpt lat="46.316927326843143" lon="8.265022141858935">
        <ele>1671.1199999999999</ele>
        <time>2022-02-06T14:54:45Z</time>
      </trkpt>
      <trkpt lat="46.316920956596732" lon="8.265008395537734">
        <ele>1671.0899999999999</ele>
        <time>2022-02-06T14:54:46Z</time>
      </trkpt>
      <trkpt lat="46.316879885271192" lon="8.26495005749166">
        <ele>1669.5999999999999</ele>
        <time>2022-02-06T14:54:51Z</time>
      </trkpt>
      <trkpt lat="46.316870246082544" lon="8.264938071370125">
        <ele>1669.21</ele>
        <time>2022-02-06T14:54:52Z</time>
      </trkpt>
      <trkpt lat="46.316861445084214" lon="8.264928013086319">
        <ele>1668.9000000000001</ele>
        <time>2022-02-06T14:54:53Z</time>
      </trkpt>
      <trkpt lat="46.316853649914265" lon="8.264917535707355">
        <ele>1668.54</ele>
        <time>2022-02-06T14:54:54Z</time>
      </trkpt>
      <trkpt lat="46.316846273839474" lon="8.264904711395502">
        <ele>1668.3399999999999</ele>
        <time>2022-02-06T14:54:55Z</time>
      </trkpt>
      <trkpt lat="46.316837221384048" lon="8.26489238999784">
        <ele>1668.2</ele>
        <time>2022-02-06T14:54:56Z</time>
      </trkpt>
      <trkpt lat="46.316830096766353" lon="8.264879733324051">
        <ele>1668.1600000000001</ele>
        <time>2022-02-06T14:54:57Z</time>
      </trkpt>
      <trkpt lat="46.316822217777371" lon="8.264868585392833">
        <ele>1668.24</ele>
        <time>2022-02-06T14:54:58Z</time>
      </trkpt>
      <trkpt lat="46.31677033379674" lon="8.264762973412871">
        <ele>1668.46</ele>
        <time>2022-02-06T14:55:07Z</time>
      </trkpt>
      <trkpt lat="46.31676740013063" lon="8.264747634530067">
        <ele>1668.6700000000001</ele>
        <time>2022-02-06T14:55:08Z</time>
      </trkpt>
      <trkpt lat="46.316763712093234" lon="8.264731708914042">
        <ele>1668.8599999999999</ele>
        <time>2022-02-06T14:55:09Z</time>
      </trkpt>
      <trkpt lat="46.316759269684553" lon="8.264716370031238">
        <ele>1669.28</ele>
        <time>2022-02-06T14:55:10Z</time>
      </trkpt>
      <trkpt lat="46.316755162551999" lon="8.264698516577482">
        <ele>1669.4000000000001</ele>
        <time>2022-02-06T14:55:11Z</time>
      </trkpt>
      <trkpt lat="46.31675080396235" lon="8.264683429151774">
        <ele>1669.5899999999999</ele>
        <time>2022-02-06T14:55:12Z</time>
      </trkpt>
      <trkpt lat="46.316692801192403" lon="8.264601035043597">
        <ele>1669.3900000000001</ele>
        <time>2022-02-06T14:55:20Z</time>
      </trkpt>
      <trkpt lat="46.316653238609433" lon="8.264591144397855">
        <ele>1667.51</ele>
        <time>2022-02-06T14:55:24Z</time>
      </trkpt>
      <trkpt lat="46.31664133630693" lon="8.264589635655284">
        <ele>1667.21</ele>
        <time>2022-02-06T14:55:25Z</time>
      </trkpt>
      <trkpt lat="46.316628260537982" lon="8.264585444703698">
        <ele>1666.95</ele>
        <time>2022-02-06T14:55:26Z</time>
      </trkpt>
      <trkpt lat="46.316616693511605" lon="8.26457723043859">
        <ele>1666.8800000000001</ele>
        <time>2022-02-06T14:55:27Z</time>
      </trkpt>
      <trkpt lat="46.316606802865863" lon="8.264565076678991">
        <ele>1666.8099999999999</ele>
        <time>2022-02-06T14:55:28Z</time>
      </trkpt>
      <trkpt lat="46.316598420962691" lon="8.264552336186171">
        <ele>1666.6500000000001</ele>
        <time>2022-02-06T14:55:29Z</time>
      </trkpt>
      <trkpt lat="46.316591212525964" lon="8.264538589864969">
        <ele>1666.45</ele>
        <time>2022-02-06T14:55:30Z</time>
      </trkpt>
      <trkpt lat="46.316584087908268" lon="8.264524759724736">
        <ele>1666.1800000000001</ele>
        <time>2022-02-06T14:55:31Z</time>
      </trkpt>
      <trkpt lat="46.316579058766365" lon="8.264508415013552">
        <ele>1665.97</ele>
        <time>2022-02-06T14:55:32Z</time>
      </trkpt>
      <trkpt lat="46.316575119271874" lon="8.264492908492684">
        <ele>1665.4200000000001</ele>
        <time>2022-02-06T14:55:33Z</time>
      </trkpt>
      <trkpt lat="46.316551398485899" lon="8.264357624575496">
        <ele>1661.9200000000001</ele>
        <time>2022-02-06T14:55:41Z</time>
      </trkpt>
      <trkpt lat="46.31652164272964" lon="8.264198368415237">
        <ele>1664.9300000000001</ele>
        <time>2022-02-06T14:55:50Z</time>
      </trkpt>
      <trkpt lat="46.316492389887571" lon="8.264018408954144">
        <ele>1661.8</ele>
        <time>2022-02-06T14:56:01Z</time>
      </trkpt>
      <trkpt lat="46.316488031297922" lon="8.263984713703394">
        <ele>1658.4100000000001</ele>
        <time>2022-02-06T14:56:03Z</time>
      </trkpt>
      <trkpt lat="46.316477302461863" lon="8.263936433941126">
        <ele>1657.1500000000001</ele>
        <time>2022-02-06T14:56:06Z</time>
      </trkpt>
      <trkpt lat="46.316466992720962" lon="8.263860577717423">
        <ele>1658.3900000000001</ele>
        <time>2022-02-06T14:56:11Z</time>
      </trkpt>
      <trkpt lat="46.316453330218792" lon="8.263720432296395">
        <ele>1661.3399999999999</ele>
        <time>2022-02-06T14:56:20Z</time>
      </trkpt>
      <trkpt lat="46.316432794556022" lon="8.263548519462347">
        <ele>1663.97</ele>
        <time>2022-02-06T14:56:31Z</time>
      </trkpt>
      <trkpt lat="46.31640387699008" lon="8.263378199189901">
        <ele>1662.97</ele>
        <time>2022-02-06T14:56:42Z</time>
      </trkpt>
      <trkpt lat="46.316283848136663" lon="8.263240233063698">
        <ele>1664.26</ele>
        <time>2022-02-06T14:56:55Z</time>
      </trkpt>
      <trkpt lat="46.31620841100812" lon="8.2631641253829">
        <ele>1663.52</ele>
        <time>2022-02-06T14:57:04Z</time>
      </trkpt>
      <trkpt lat="46.316155353561044" lon="8.263011239469051">
        <ele>1662.02</ele>
        <time>2022-02-06T14:57:16Z</time>
      </trkpt>
      <trkpt lat="46.316116964444518" lon="8.262845696881414">
        <ele>1660.3900000000001</ele>
        <time>2022-02-06T14:57:29Z</time>
      </trkpt>
      <trkpt lat="46.316075390204787" lon="8.262696666643024">
        <ele>1657.6099999999999</ele>
        <time>2022-02-06T14:57:43Z</time>
      </trkpt>
      <trkpt lat="46.316020237281919" lon="8.262540008872747">
        <ele>1655.3800000000001</ele>
        <time>2022-02-06T14:57:56Z</time>
      </trkpt>
      <trkpt lat="46.315967012196779" lon="8.262420482933521">
        <ele>1653.98</ele>
        <time>2022-02-06T14:58:07Z</time>
      </trkpt>
      <trkpt lat="46.315920073539019" lon="8.262227615341544">
        <ele>1651.8800000000001</ele>
        <time>2022-02-06T14:58:22Z</time>
      </trkpt>
      <trkpt lat="46.315869865939021" lon="8.262043548747897">
        <ele>1649.2</ele>
        <time>2022-02-06T14:58:37Z</time>
      </trkpt>
      <trkpt lat="46.315807420760393" lon="8.261955790221691">
        <ele>1647.4000000000001</ele>
        <time>2022-02-06T14:58:49Z</time>
      </trkpt>
      <trkpt lat="46.315748412162066" lon="8.261948078870773">
        <ele>1646.4000000000001</ele>
        <time>2022-02-06T14:59:01Z</time>
      </trkpt>
      <trkpt lat="46.315675741061568" lon="8.261903990060091">
        <ele>1645.6600000000001</ele>
        <time>2022-02-06T14:59:13Z</time>
      </trkpt>
      <trkpt lat="46.315645147114992" lon="8.26177834533155">
        <ele>1645.03</ele>
        <time>2022-02-06T14:59:24Z</time>
      </trkpt>
      <trkpt lat="46.315659647807479" lon="8.261698884889484">
        <ele>1644.6199999999999</ele>
        <time>2022-02-06T14:59:31Z</time>
      </trkpt>
      <trkpt lat="46.315703485161066" lon="8.261532336473465">
        <ele>1642.75</ele>
        <time>2022-02-06T14:59:45Z</time>
      </trkpt>
      <trkpt lat="46.315729385241866" lon="8.261455809697509">
        <ele>1641.6199999999999</ele>
        <time>2022-02-06T14:59:58Z</time>
      </trkpt>
      <trkpt lat="46.315737096592784" lon="8.261390849947929">
        <ele>1640.22</ele>
        <time>2022-02-06T15:00:13Z</time>
      </trkpt>
      <trkpt lat="46.315740365535021" lon="8.261376852169633">
        <ele>1640.26</ele>
        <time>2022-02-06T15:00:14Z</time>
      </trkpt>
      <trkpt lat="46.315761907026172" lon="8.261308958753943">
        <ele>1640.4400000000001</ele>
        <time>2022-02-06T15:00:19Z</time>
      </trkpt>
      <trkpt lat="46.315838936716318" lon="8.261152133345604">
        <ele>1640.0899999999999</ele>
        <time>2022-02-06T15:00:33Z</time>
      </trkpt>
      <trkpt lat="46.315831979736686" lon="8.261087844148278">
        <ele>1640.1199999999999</ele>
        <time>2022-02-06T15:00:38Z</time>
      </trkpt>
      <trkpt lat="46.31573298946023" lon="8.26097016222775">
        <ele>1640.23</ele>
        <time>2022-02-06T15:00:52Z</time>
      </trkpt>
      <trkpt lat="46.315602567046881" lon="8.260872177779675">
        <ele>1639.45</ele>
        <time>2022-02-06T15:01:07Z</time>
      </trkpt>
      <trkpt lat="46.315572643652558" lon="8.260816354304552">
        <ele>1641.3</ele>
        <time>2022-02-06T15:01:19Z</time>
      </trkpt>
      <trkpt lat="46.315560406073928" lon="8.260802943259478">
        <ele>1639.4200000000001</ele>
        <time>2022-02-06T15:01:32Z</time>
      </trkpt>
      <trkpt lat="46.315562585368752" lon="8.260800177231431">
        <ele>1637.0799999999999</ele>
        <time>2022-02-06T15:01:50Z</time>
      </trkpt>
      <trkpt lat="46.315568871796131" lon="8.260809732601047">
        <ele>1638.8699999999999</ele>
        <time>2022-02-06T15:02:02Z</time>
      </trkpt>
      <trkpt lat="46.315567865967751" lon="8.260814510285854">
        <ele>1638.9000000000001</ele>
        <time>2022-02-06T15:02:20Z</time>
      </trkpt>
      <trkpt lat="46.315520508214831" lon="8.260806882753968">
        <ele>1637.8499999999999</ele>
        <time>2022-02-06T15:02:35Z</time>
      </trkpt>
      <trkpt lat="46.315448675304651" lon="8.260761117562652">
        <ele>1637.9300000000001</ele>
        <time>2022-02-06T15:02:44Z</time>
      </trkpt>
      <trkpt lat="46.315437192097306" lon="8.260761117562652">
        <ele>1637.8399999999999</ele>
        <time>2022-02-06T15:02:45Z</time>
      </trkpt>
      <trkpt lat="46.315305260941386" lon="8.260772600769997">
        <ele>1637.8800000000001</ele>
        <time>2022-02-06T15:02:57Z</time>
      </trkpt>
      <trkpt lat="46.31521062925458" lon="8.260780312120915">
        <ele>1637.8399999999999</ele>
        <time>2022-02-06T15:03:07Z</time>
      </trkpt>
      <trkpt lat="46.315175509080291" lon="8.260801769793034">
        <ele>1637.51</ele>
        <time>2022-02-06T15:03:13Z</time>
      </trkpt>
      <trkpt lat="46.315168468281627" lon="8.260808978229761">
        <ele>1637.25</ele>
        <time>2022-02-06T15:03:14Z</time>
      </trkpt>
      <trkpt lat="46.315141562372446" lon="8.260833621025085">
        <ele>1636.46</ele>
        <time>2022-02-06T15:03:18Z</time>
      </trkpt>
      <trkpt lat="46.315133096650243" lon="8.26084217056632">
        <ele>1636.3900000000001</ele>
        <time>2022-02-06T15:03:19Z</time>
      </trkpt>
      <trkpt lat="46.315112560987473" lon="8.260853569954634">
        <ele>1636.27</ele>
        <time>2022-02-06T15:03:21Z</time>
      </trkpt>
      <trkpt lat="46.315067550167441" lon="8.260879218578339">
        <ele>1634.6400000000001</ele>
        <time>2022-02-06T15:03:32Z</time>
      </trkpt>
      <trkpt lat="46.314961854368448" lon="8.260852983221412">
        <ele>1633.99</ele>
        <time>2022-02-06T15:03:43Z</time>
      </trkpt>
      <trkpt lat="46.314779631793499" lon="8.260835465043783">
        <ele>1634.6300000000001</ele>
        <time>2022-02-06T15:03:59Z</time>
      </trkpt>
      <trkpt lat="46.314692627638578" lon="8.260843260213733">
        <ele>1634.1099999999999</ele>
        <time>2022-02-06T15:04:07Z</time>
      </trkpt>
      <trkpt lat="46.314619788900018" lon="8.260873351246119">
        <ele>1633.77</ele>
        <time>2022-02-06T15:04:16Z</time>
      </trkpt>
      <trkpt lat="46.314612831920385" lon="8.260881816968322">
        <ele>1633.8499999999999</ele>
        <time>2022-02-06T15:04:17Z</time>
      </trkpt>
      <trkpt lat="46.314601516351104" lon="8.260887181386352">
        <ele>1633.96</ele>
        <time>2022-02-06T15:04:18Z</time>
      </trkpt>
      <trkpt lat="46.314528258517385" lon="8.260945603251457">
        <ele>1635.1300000000001</ele>
        <time>2022-02-06T15:04:26Z</time>
      </trkpt>
      <trkpt lat="46.314506130293012" lon="8.260949207469821">
        <ele>1634.9100000000001</ele>
        <time>2022-02-06T15:04:28Z</time>
      </trkpt>
      <trkpt lat="46.314494898542762" lon="8.260946441441774">
        <ele>1634.6500000000001</ele>
        <time>2022-02-06T15:04:29Z</time>
      </trkpt>
      <trkpt lat="46.314483750611544" lon="8.260942166671157">
        <ele>1634.1500000000001</ele>
        <time>2022-02-06T15:04:30Z</time>
      </trkpt>
      <trkpt lat="46.314473105594516" lon="8.260935628786683">
        <ele>1633.8599999999999</ele>
        <time>2022-02-06T15:04:31Z</time>
      </trkpt>
      <trkpt lat="46.31446304731071" lon="8.260928420349956">
        <ele>1633.6800000000001</ele>
        <time>2022-02-06T15:04:32Z</time>
      </trkpt>
      <trkpt lat="46.314455335959792" lon="8.260917691513896">
        <ele>1633.4100000000001</ele>
        <time>2022-02-06T15:04:33Z</time>
      </trkpt>
      <trkpt lat="46.314450139179826" lon="8.260903861373663">
        <ele>1633.3499999999999</ele>
        <time>2022-02-06T15:04:34Z</time>
      </trkpt>
      <trkpt lat="46.314445026218891" lon="8.260890869423747">
        <ele>1633.3699999999999</ele>
        <time>2022-02-06T15:04:35Z</time>
      </trkpt>
      <trkpt lat="46.314437231048942" lon="8.260879805311561">
        <ele>1633.1400000000001</ele>
        <time>2022-02-06T15:04:36Z</time>
      </trkpt>
      <trkpt lat="46.314428094774485" lon="8.26086949557066">
        <ele>1632.9100000000001</ele>
        <time>2022-02-06T15:04:37Z</time>
      </trkpt>
      <trkpt lat="46.314332876354456" lon="8.260725494474173">
        <ele>1629.6900000000001</ele>
        <time>2022-02-06T15:04:49Z</time>
      </trkpt>
      <trkpt lat="46.314216870814562" lon="8.260567663237453">
        <ele>1628.5599999999999</ele>
        <time>2022-02-06T15:05:03Z</time>
      </trkpt>
      <trkpt lat="46.314186612144113" lon="8.260545283555985">
        <ele>1628.6300000000001</ele>
        <time>2022-02-06T15:05:14Z</time>
      </trkpt>
      <trkpt lat="46.314180493354797" lon="8.260544445365667">
        <ele>1629.6099999999999</ele>
        <time>2022-02-06T15:05:30Z</time>
      </trkpt>
      <trkpt lat="46.314178314059973" lon="8.260535895824432">
        <ele>1628.55</ele>
        <time>2022-02-06T15:05:40Z</time>
      </trkpt>
      <trkpt lat="46.314178397879004" lon="8.260538829490542">
        <ele>1627.5699999999999</ele>
        <time>2022-02-06T15:06:02Z</time>
      </trkpt>
      <trkpt lat="46.314186025410891" lon="8.260525083169341">
        <ele>1627.0999999999999</ele>
        <time>2022-02-06T15:06:21Z</time>
      </trkpt>
      <trkpt lat="46.314149396494031" lon="8.260544529184699">
        <ele>1627.79</ele>
        <time>2022-02-06T15:06:33Z</time>
      </trkpt>
      <trkpt lat="46.314134895801544" lon="8.260549558326602">
        <ele>1627.75</ele>
        <time>2022-02-06T15:06:35Z</time>
      </trkpt>
      <trkpt lat="46.314122909680009" lon="8.260549055412412">
        <ele>1627.54</ele>
        <time>2022-02-06T15:06:36Z</time>
      </trkpt>
      <trkpt lat="46.314100110903382" lon="8.26054654084146">
        <ele>1627.3699999999999</ele>
        <time>2022-02-06T15:06:38Z</time>
      </trkpt>
      <trkpt lat="46.313946219161153" lon="8.2605323754251">
        <ele>1627.03</ele>
        <time>2022-02-06T15:06:53Z</time>
      </trkpt>
      <trkpt lat="46.313793249428272" lon="8.260533465072513">
        <ele>1626.21</ele>
        <time>2022-02-06T15:07:07Z</time>
      </trkpt>
      <trkpt lat="46.31374672986567" lon="8.260560538619757">
        <ele>1626.27</ele>
        <time>2022-02-06T15:07:15Z</time>
      </trkpt>
      <trkpt lat="46.313721584156156" lon="8.26058023609221">
        <ele>1626.1900000000001</ele>
        <time>2022-02-06T15:07:18Z</time>
      </trkpt>
      <trkpt lat="46.313712112605572" lon="8.260587025433779">
        <ele>1626.21</ele>
        <time>2022-02-06T15:07:19Z</time>
      </trkpt>
      <trkpt lat="46.313701886683702" lon="8.260590545833111">
        <ele>1626.3099999999999</ele>
        <time>2022-02-06T15:07:20Z</time>
      </trkpt>
      <trkpt lat="46.313552018254995" lon="8.260615104809403">
        <ele>1624</ele>
        <time>2022-02-06T15:07:36Z</time>
      </trkpt>
      <trkpt lat="46.313479347154498" lon="8.260593144223094">
        <ele>1623.4100000000001</ele>
        <time>2022-02-06T15:07:44Z</time>
      </trkpt>
      <trkpt lat="46.313469288870692" lon="8.260584594681859">
        <ele>1623.3299999999999</ele>
        <time>2022-02-06T15:07:45Z</time>
      </trkpt>
      <trkpt lat="46.313462415710092" lon="8.260570848360658">
        <ele>1623.3399999999999</ele>
        <time>2022-02-06T15:07:46Z</time>
      </trkpt>
      <trkpt lat="46.313451854512095" lon="8.260392313823104">
        <ele>1625.1600000000001</ele>
        <time>2022-02-06T15:07:59Z</time>
      </trkpt>
      <trkpt lat="46.313452189788222" lon="8.260242445394397">
        <ele>1626.6600000000001</ele>
        <time>2022-02-06T15:08:11Z</time>
      </trkpt>
      <trkpt lat="46.313489237800241" lon="8.260224340483546">
        <ele>1626.8900000000001</ele>
        <time>2022-02-06T15:08:16Z</time>
      </trkpt>
      <trkpt lat="46.313551180064678" lon="8.260250994935632">
        <ele>1628.8499999999999</ele>
        <time>2022-02-06T15:08:24Z</time>
      </trkpt>
      <trkpt lat="46.313605662435293" lon="8.260381249710918">
        <ele>1630.8399999999999</ele>
        <time>2022-02-06T15:08:36Z</time>
      </trkpt>
      <trkpt lat="46.313604153692722" lon="8.260376639664173">
        <ele>1630.1300000000001</ele>
        <time>2022-02-06T15:08:49Z</time>
      </trkpt>
      <trkpt lat="46.313590072095394" lon="8.260349230840802">
        <ele>1628.21</ele>
        <time>2022-02-06T15:09:08Z</time>
      </trkpt>
      <trkpt lat="46.313565596938133" lon="8.260277146473527">
        <ele>1629.0699999999999</ele>
        <time>2022-02-06T15:09:33Z</time>
      </trkpt>
      <trkpt lat="46.313604405149817" lon="8.260302040725946">
        <ele>1629.8699999999999</ele>
        <time>2022-02-06T15:10:00Z</time>
      </trkpt>
    </trkseg>
  </trk>

</gpx>